GFSMA_850_spd_000.txt.gz
Wind_Speed
11 12 13 14 15 14 14 14 14 15 18 16 14 12 11 11 11 6 7 13 12 11 11 13 16 18 17 17 18 17 18 19 21 22 25 26 26 25 25 23 21 21 21
11 12 13 13 12 13 13 13 14 15 14 15 13 13 12 10 10 10 7 9 12 12 13 14 14 16 19 21 19 20 20 17 18 22 23 25 28 27 27 26 25 24 24
12 14 13 13 13 13 16 14 16 16 16 14 16 16 15 14 10 13 10 7 9 11 11 12 14 15 16 18 20 21 22 22 23 20 20 24 26 29 30 30 29 27 27
13 15 14 15 16 19 17 17 17 16 16 15 15 15 14 14 14 15 11 9 8 7 10 11 11 13 15 17 18 18 20 24 24 25 26 24 24 28 29 33 34 33 30
16 17 19 20 20 21 22 20 20 20 20 19 18 18 18 17 16 14 14 13 12 10 8 12 12 13 15 16 18 19 19 20 23 24 25 28 28 29 29 31 35 36 36
18 19 21 24 25 21 23 23 24 24 25 25 25 24 22 21 20 19 18 17 16 13 10 8 9 8 13 16 18 20 22 21 21 23 25 28 29 31 37 31 33 34 36
26 29 30 26 26 23 25 30 27 28 28 27 27 29 29 26 25 24 23 22 21 18 15 12 10 8 8 15 16 20 21 23 23 23 26 29 29 27 29 33 37 32 34
29 26 24 24 23 24 23 24 26 28 29 28 31 30 33 33 30 26 26 26 24 21 17 14 12 16 17 10 13 18 20 23 24 24 22 24 26 27 25 29 30 33 34
29 27 26 27 28 25 24 24 25 27 32 31 30 32 27 33 31 30 25 23 22 21 19 17 12 14 13 14 14 13 19 21 24 26 26 24 26 28 25 26 26 29 31
31 32 33 33 32 30 24 24 24 26 28 34 32 33 39 40 37 32 24 23 23 22 19 16 14 11 10 10 12 16 19 21 23 25 27 28 26 26 27 25 23 25 26
28 32 34 34 33 31 25 29 26 21 22 27 30 30 31 33 33 33 36 22 22 21 19 15 14 13 13 12 12 14 18 21 24 24 26 28 28 28 27 24 25 23 23
25 24 31 29 27 23 17 15 14 12 9 7 8 9 11 12 16 22 29 34 30 21 18 14 14 14 15 13 14 19 17 20 24 26 26 26 26 27 27 27 23 25 25
25 24 28 16 14 11 9 7 8 7 8 10 10 11 9 10 10 11 9 14 14 21 22 18 16 18 16 14 13 16 17 20 20 21 22 22 23 24 24 25 22 22 25
26 26 15 12 12 11 11 10 9 6 7 8 12 18 23 25 21 12 9 10 12 14 20 20 19 18 15 15 15 18 15 18 22 22 21 20 21 23 22 23 24 24 24
19 15 13 11 8 5 5 6 8 13 10 10 11 11 11 13 15 16 12 10 11 14 19 17 18 17 17 15 15 15 14 17 20 23 23 24 18 19 20 20 23 23 24
14 12 9 8 8 9 10 14 22 18 12 14 12 10 12 12 13 13 13 14 16 19 23 20 19 19 20 19 18 19 19 22 25 28 26 25 26 23 22 21 19 20 23
13 11 11 11 12 15 24 24 14 11 12 11 12 14 15 15 16 16 17 18 20 20 24 23 21 21 22 22 22 21 22 23 22 24 25 28 31 29 31 30 27 24 21
12 11 13 18 23 18 14 14 14 15 15 16 16 17 18 18 18 18 18 19 20 20 23 25 24 23 23 23 24 24 23 23 23 23 25 27 30 34 36 33 33 37 32
17 17 19 18 16 17 18 16 15 16 19 20 20 19 18 17 17 17 18 19 20 21 22 24 27 24 24 25 26 26 27 27 27 28 30 31 33 36 34 36 39 34 35
16 17 20 20 19 19 18 18 18 21 21 19 17 16 16 17 19 19 20 22 23 24 24 25 27 27 26 25 27 29 29 27 28 27 28 29 29 26 24 28 37 38 38
17 17 18 17 18 18 18 20 18 18 19 20 19 19 19 20 25 28 26 24 24 25 25 26 27 28 27 26 27 27 29 28 28 27 28 29 27 27 29 33 36 38 39
17 17 18 18 18 17 20 22 22 19 20 22 23 23 23 25 24 25 28 28 26 25 27 26 26 27 27 24 22 23 25 25 27 23 26 30 27 27 28 28 28 28 26
18 19 18 17 17 17 23 26 27 25 23 24 24 24 24 23 24 22 23 25 25 25 26 26 27 28 27 23 22 22 22 24 24 21 21 24 20 21 25 25 28 30 32
20 19 19 18 20 20 26 28 27 25 22 23 23 23 24 24 22 22 21 21 21 21 22 23 25 26 26 24 24 25 26 26 26 25 22 25 22 25 24 25 28 27 27
20 19 19 20 22 22 24 27 26 22 21 23 22 21 22 22 21 22 21 22 22 23 23 27 27 27 29 29 28 24 24 25 29 29 25 25 24 24 24 26 26 25 27
21 20 20 20 22 21 22 24 20 20 21 21 21 20 20 20 20 20 19 21 23 24 22 22 21 21 24 25 25 28 27 28 27 23 22 24 22 21 22 22 22 22 25

GFSMA_850_spd_003.txt.gz
Wind_Speed
9 10 12 12 13 12 13 14 14 14 15 13 14 12 11 11 12 10 11 16 12 11 12 13 13 15 16 18 19 20 23 23 25 23 25 27 25 25 25 25 24 23 22
8 10 11 11 12 12 13 14 14 15 14 14 14 14 14 13 13 12 11 17 16 14 14 16 17 18 19 18 20 22 21 21 22 25 25 26 27 28 27 27 26 25 24
8 10 11 12 13 14 16 17 17 18 18 17 17 18 16 16 15 15 14 12 18 16 16 15 16 18 19 20 18 20 23 24 23 23 23 28 28 29 30 29 29 28 27
9 12 13 15 16 18 18 19 20 21 21 22 22 20 20 20 19 18 18 16 16 16 15 15 13 14 17 19 19 19 19 21 24 25 27 29 26 29 30 31 31 31 30
10 12 14 17 19 21 22 23 24 25 25 26 27 27 26 24 24 23 22 21 22 21 18 18 16 15 16 18 20 21 21 21 21 24 27 28 27 25 24 27 32 34 35
10 13 16 18 20 22 24 26 27 29 30 31 32 33 33 31 29 28 26 25 25 25 23 23 22 20 16 18 19 20 23 23 22 23 24 28 31 29 30 31 29 32 35
17 16 17 19 20 22 24 26 28 29 29 29 32 34 34 37 36 35 32 29 28 27 26 22 21 16 17 16 18 19 19 23 25 23 23 26 29 31 30 31 34 36 31
22 22 23 19 19 21 23 25 26 28 29 29 31 34 36 38 36 38 42 39 36 33 31 26 24 20 18 13 15 15 18 19 21 25 24 23 26 29 27 29 32 35 36
23 19 19 19 20 20 23 24 25 27 30 31 29 32 34 35 33 34 33 39 36 33 36 32 28 26 21 17 19 19 19 17 17 20 25 24 23 27 26 25 26 30 28
21 20 20 20 19 20 23 24 24 27 28 32 30 31 35 37 38 38 41 37 33 35 28 31 28 24 20 18 17 19 19 20 19 18 23 24 24 24 25 24 23 24 29
19 20 21 22 24 23 22 21 21 19 21 22 22 22 23 26 28 26 30 31 30 28 28 27 22 19 18 18 16 17 22 19 17 19 23 25 24 25 25 25 24 23 22
20 20 22 21 21 20 19 19 19 18 17 16 15 14 13 13 17 15 19 23 26 26 23 20 20 19 18 18 16 20 19 20 20 20 24 26 26 25 25 26 26 24 23
22 22 22 20 20 19 20 20 20 21 18 14 17 13 14 21 23 22 23 22 18 14 12 26 19 18 18 19 16 19 21 23 24 24 24 25 25 26 24 24 25 25 24
23 22 23 21 22 20 21 19 14 15 17 20 24 23 26 19 16 20 19 17 18 17 22 18 15 18 23 15 18 18 18 16 19 24 24 24 24 25 25 25 25 25 24
24 24 24 24 21 17 16 15 16 16 17 20 19 15 14 14 15 12 12 11 11 12 18 15 14 15 16 16 17 16 14 17 18 19 23 25 24 23 26 26 26 26 26
24 23 22 20 18 18 20 21 22 23 21 18 15 14 14 13 13 16 16 15 15 14 19 18 19 19 18 16 16 16 16 17 18 19 21 24 26 25 24 26 28 29 29
21 22 25 22 21 24 27 23 17 19 19 18 18 18 18 18 18 19 19 20 21 21 24 24 20 19 19 20 21 20 20 20 21 25 24 23 27 32 28 29 28 29 29
18 20 23 26 24 20 19 20 20 18 19 19 19 21 22 22 22 21 21 22 22 22 23 26 23 23 22 21 21 22 22 21 22 22 24 25 25 27 30 36 34 33 33
20 20 22 22 23 23 23 22 21 22 20 21 23 24 24 24 23 22 21 21 21 21 22 24 25 24 24 23 23 23 23 24 24 23 24 26 24 23 29 32 35 39 37
21 21 21 21 20 21 22 22 18 19 23 24 24 24 23 23 23 22 21 21 21 22 23 25 27 27 26 25 25 26 26 25 25 23 23 25 27 26 24 26 29 33 37
20 19 20 20 21 21 22 21 23 23 22 24 25 26 26 25 26 29 29 29 25 24 24 26 28 28 27 25 25 24 25 23 23 21 22 24 23 25 29 27 28 32 33
20 20 22 22 21 21 24 28 30 31 27 26 26 26 27 27 26 25 23 27 31 25 24 26 28 28 26 24 22 22 22 22 23 23 23 25 24 25 24 22 19 26 25
21 22 22 21 21 21 26 30 34 35 27 26 26 26 26 26 26 25 25 26 23 24 25 25 28 28 27 25 23 23 23 22 22 19 19 22 19 21 22 24 29 27 19
22 22 22 20 21 23 27 33 36 32 25 25 25 25 25 25 25 25 21 22 24 23 22 22 24 25 24 23 23 25 25 25 24 21 20 25 23 24 24 25 26 32 30
23 22 20 21 24 26 27 30 32 27 23 24 23 22 23 24 25 28 25 23 23 23 21 24 26 28 29 29 29 26 25 22 24 24 23 27 29 28 25 29 29 30 31
23 22 22 23 26 26 24 27 27 27 24 23 22 22 23 23 23 21 22 23 23 21 20 23 22 22 20 23 24 29 28 30 30 29 22 23 25 24 25 24 25 25 26

GFSMA_850_spd_006.txt.gz
Wind_Speed
7 8 10 10 10 11 12 13 16 15 16 18 19 22 21 17 17 15 16 18 21 20 16 15 14 14 15 16 17 18 20 20 23 23 24 33 28 26 26 26 27 26 25
9 11 13 13 12 12 14 19 19 20 22 23 20 18 23 23 21 18 20 19 23 21 20 19 19 19 19 21 21 21 21 22 23 21 20 24 30 28 28 27 29 29 27
9 12 14 12 11 14 19 20 18 21 22 23 24 23 23 25 27 25 23 23 24 25 24 22 22 21 20 20 22 22 23 23 24 23 23 22 29 36 29 30 31 31 29
12 14 14 16 17 19 23 22 24 23 24 25 27 28 29 29 30 29 27 26 25 27 28 26 22 22 21 19 21 22 22 24 24 24 25 26 26 33 37 33 33 32 32
10 14 17 20 24 25 24 24 26 26 25 25 28 30 30 29 29 30 30 30 30 26 27 28 27 24 23 21 20 22 23 23 24 24 24 26 27 27 29 32 31 35 34
12 18 21 20 20 24 24 24 26 28 31 32 32 31 33 35 35 35 33 35 34 34 31 33 29 29 29 27 26 25 25 25 24 24 25 24 25 26 26 32 38 37 40
18 25 25 21 22 23 23 24 28 29 29 28 31 33 34 33 32 32 36 38 40 40 40 39 43 35 31 29 28 26 26 25 25 24 24 25 26 26 24 27 30 36 32
23 38 32 25 20 23 24 23 22 26 27 27 29 33 36 37 32 30 31 34 41 44 46 44 41 41 32 30 29 28 27 24 24 24 22 23 24 27 26 24 27 30 32
38 22 20 22 24 27 28 25 25 26 28 28 24 25 31 31 32 32 32 34 36 33 35 36 36 43 39 32 26 26 28 23 22 21 20 19 21 24 27 25 24 25 28
19 16 18 21 23 26 27 24 24 26 28 28 27 20 21 22 19 27 27 25 26 31 28 34 36 32 41 39 32 22 25 29 26 22 20 18 18 19 24 25 23 22 24
16 21 22 24 25 29 29 24 25 24 23 23 22 23 26 32 34 27 29 29 30 26 26 24 21 27 25 19 37 26 26 24 25 22 20 18 18 19 21 23 24 22 21
24 22 23 25 25 22 23 24 23 22 23 24 26 27 26 25 24 19 25 40 34 39 33 31 28 23 25 16 17 25 21 27 29 26 22 19 19 21 21 21 22 23 22
18 22 22 24 23 22 21 24 26 24 27 26 26 27 25 24 27 22 18 25 25 33 33 33 28 20 27 28 26 16 26 23 23 24 23 26 24 22 22 21 21 21 21
22 20 19 20 19 23 25 25 23 24 23 26 21 18 25 28 22 20 18 19 24 23 21 24 21 21 18 17 18 12 16 19 19 23 26 25 24 22 21 21 20 20 21
16 19 26 27 25 28 29 28 25 25 28 26 26 28 22 19 18 19 18 19 19 21 24 19 19 18 20 18 19 8 18 15 17 19 22 23 25 22 22 21 21 20 21
26 25 22 26 22 22 20 25 29 28 26 22 23 24 22 19 20 20 20 21 22 24 30 25 23 20 15 21 18 14 16 17 13 15 17 19 21 24 24 23 23 23 22
29 24 25 27 26 24 24 25 26 25 22 23 22 22 24 23 23 22 22 22 23 23 27 27 22 22 20 19 15 19 21 16 18 20 21 21 22 26 30 28 26 26 25
19 20 23 23 24 23 24 25 26 24 26 22 22 23 26 27 29 27 23 22 23 23 25 30 26 25 26 25 22 20 15 16 19 21 20 19 23 22 24 25 30 34 31
21 22 23 24 23 23 23 23 23 19 19 20 22 26 26 27 27 28 27 26 24 22 21 23 25 24 23 23 24 23 21 19 19 20 22 23 22 23 24 28 29 29 34
22 23 22 22 23 24 25 23 22 24 28 32 36 31 32 27 27 28 26 23 24 26 26 25 26 23 22 22 24 27 29 28 27 22 21 21 21 23 24 25 26 28 30
21 21 23 24 25 25 23 24 28 31 32 34 36 37 31 28 29 27 26 28 25 27 33 35 34 28 23 22 22 18 18 16 16 15 17 23 23 18 16 23 27 27 26
20 24 24 25 24 21 24 29 34 34 35 36 39 41 29 25 27 27 22 25 24 26 27 27 28 27 28 26 26 21 19 17 17 20 18 21 25 27 23 19 19 21 30
23 24 26 23 21 20 23 32 35 36 37 38 36 28 29 27 27 25 23 23 24 23 25 29 28 28 31 31 33 33 30 23 21 19 22 23 24 26 27 31 27 25 27
23 25 21 21 22 27 30 33 34 32 34 34 28 27 27 27 26 25 24 24 23 24 27 26 27 29 26 22 23 24 25 27 29 27 22 26 27 29 29 30 28 28 28
23 20 22 25 29 34 32 30 28 33 30 32 27 24 24 27 27 23 23 25 25 25 22 22 25 28 27 27 28 30 31 29 28 24 23 25 27 30 30 32 32 32 30
20 26 30 30 34 29 25 25 29 27 29 32 28 28 27 24 27 25 24 24 25 23 19 24 25 25 27 27 22 23 29 32 32 31 31 27 24 22 25 27 27 25 25

GFSMA_850_spd_009.txt.gz
Wind_Speed
4 4 8 10 11 8 11 14 17 20 19 21 24 25 27 26 25 23 20 18 18 19 19 17 18 18 18 18 19 19 20 20 21 20 23 24 26 25 26 25 25 25 26
6 8 9 11 12 12 14 19 22 21 21 23 26 26 28 28 28 28 27 25 21 21 22 20 19 20 21 22 23 23 24 25 23 22 20 25 26 31 32 29 26 28 26
8 11 11 13 14 16 18 23 26 24 24 23 25 27 27 28 30 33 32 29 28 25 23 24 23 23 24 24 22 24 24 25 25 25 23 23 27 34 35 30 29 31 29
5 8 8 13 15 16 21 25 25 24 24 24 24 23 25 27 28 29 32 32 30 30 28 26 26 26 26 24 24 24 23 24 24 25 26 25 24 28 36 35 28 31 33
7 9 11 18 21 23 25 23 20 23 25 29 31 33 31 27 27 29 29 31 34 36 35 33 31 29 28 27 27 26 23 24 25 24 24 26 27 28 32 34 36 36 36
10 14 20 25 33 27 27 29 29 28 30 30 27 26 27 27 26 30 29 29 27 32 39 43 40 38 34 31 30 30 27 27 27 27 26 25 25 28 30 30 30 34 36
20 31 29 29 28 22 22 24 28 29 27 28 33 36 38 36 35 34 34 30 27 29 29 37 44 44 39 41 35 34 34 33 32 30 27 27 26 26 26 29 29 30 35
24 24 23 23 20 22 27 30 31 30 32 29 30 32 30 36 35 29 26 24 24 28 28 23 26 34 39 39 41 40 36 34 34 31 28 25 25 26 26 26 27 28 29
19 16 16 17 19 24 28 30 32 33 32 32 31 29 23 23 31 32 30 29 28 27 27 25 21 24 33 40 44 40 38 36 37 31 28 23 21 22 26 26 26 27 28
17 15 17 20 25 29 29 31 30 29 26 27 29 27 21 23 20 25 29 37 36 33 32 30 27 21 23 29 38 46 37 41 39 33 27 23 20 19 21 25 24 25 26
15 19 25 31 29 28 27 27 28 27 28 26 24 22 25 29 31 31 34 34 37 31 30 32 33 32 27 23 28 37 42 40 31 31 29 26 22 19 18 21 23 22 22
25 30 26 25 21 22 21 22 25 27 29 29 28 27 26 27 29 24 25 35 29 35 29 26 24 24 22 25 20 18 24 29 23 29 30 27 23 22 19 18 20 21 21
21 23 23 20 21 25 23 22 22 21 20 23 26 24 24 24 23 26 22 24 27 30 27 20 19 16 17 17 22 28 20 17 24 23 25 28 26 22 21 20 19 18 18
19 18 20 25 31 29 27 27 27 25 25 27 25 27 29 31 25 22 21 22 25 19 26 25 21 18 20 19 19 20 22 32 30 27 20 25 23 24 22 21 19 20 21
18 23 30 27 27 25 25 24 27 27 26 23 20 21 22 22 24 21 19 21 24 23 26 27 28 21 17 19 20 20 14 13 17 28 14 18 23 24 21 19 18 19 20
25 30 28 25 27 27 26 24 23 22 23 20 20 20 21 21 23 27 23 20 18 19 28 25 26 21 18 15 15 19 20 9 13 19 15 17 17 17 19 21 20 18 18
28 23 21 21 22 23 23 25 25 24 23 22 19 17 19 19 21 26 29 26 27 26 25 27 23 19 18 22 20 16 18 18 10 9 8 13 14 17 18 20 22 22 20
17 16 19 24 24 23 23 22 22 23 23 20 19 22 25 31 34 28 24 26 25 24 26 29 26 24 19 17 17 14 14 14 13 11 17 19 18 16 17 17 17 19 23
20 20 17 19 22 24 26 26 25 26 24 26 31 34 34 32 32 31 27 26 28 25 23 24 27 26 23 21 23 21 17 20 18 14 12 15 18 18 20 21 22 23 23
19 19 17 19 25 25 27 25 27 29 33 34 36 34 35 36 35 33 30 26 26 28 30 30 29 30 31 30 23 22 22 17 18 21 22 20 17 16 15 16 18 20 22
15 15 19 22 23 23 26 27 29 32 34 39 39 38 38 37 28 21 21 21 21 24 25 24 27 27 28 28 26 24 21 19 16 12 10 12 15 15 15 17 19 20 22
13 17 21 20 19 22 27 30 32 34 39 34 31 37 36 27 21 21 23 24 22 23 22 22 23 24 25 24 24 26 30 27 23 19 19 20 19 20 21 21 18 19 26
13 18 17 18 21 28 25 27 35 33 30 30 33 33 31 24 21 21 24 24 24 20 20 20 20 22 22 21 23 21 21 22 22 27 25 26 23 23 23 23 24 24 25
15 16 16 21 25 24 29 30 28 30 31 30 31 31 27 26 24 24 24 24 24 26 24 22 24 27 26 26 22 21 21 22 23 23 23 29 30 29 28 28 25 24 23
14 15 20 24 27 30 27 29 30 30 27 31 28 33 27 26 21 21 23 21 22 21 19 17 16 20 21 23 24 23 25 26 29 28 23 23 23 25 27 29 30 29 28
16 19 22 24 28 28 28 26 28 28 26 29 34 29 21 17 17 19 18 20 21 20 19 20 21 21 24 26 25 25 26 24 23 28 23 23 28 27 26 22 21 20 20

GFSMA_850_spd_012.txt.gz
Wind_Speed
1 1 2 3 4 6 10 12 15 19 23 20 20 22 22 23 23 23 21 23 22 19 18 17 20 19 19 21 22 22 21 20 20 20 22 22 26 27 27 28 26 26 25
5 3 5 5 6 8 11 14 18 21 22 21 22 19 21 23 23 24 24 26 26 25 23 20 17 18 20 22 24 26 25 24 24 23 23 23 24 28 28 29 27 26 27
8 9 8 8 10 12 15 19 23 26 26 24 23 21 22 21 21 24 25 24 23 25 26 25 24 22 21 21 24 26 28 27 25 23 24 23 23 27 28 30 28 27 31
11 11 12 15 18 21 22 28 35 32 29 29 28 27 28 28 28 25 22 25 26 23 25 29 29 28 27 26 23 24 27 29 28 24 22 22 23 25 29 31 34 33 32
8 11 16 19 26 36 36 34 33 27 29 30 31 31 30 30 27 24 20 23 26 27 24 22 26 34 34 32 29 26 25 26 30 29 26 23 22 24 28 30 34 34 35
12 16 20 29 35 28 28 35 28 26 29 31 32 32 31 30 30 31 30 30 29 28 25 25 27 26 29 36 35 32 29 27 30 32 32 29 25 24 27 31 31 30 34
17 24 31 35 30 27 24 23 27 31 33 34 38 40 40 36 23 22 27 26 25 23 22 22 23 23 25 23 30 37 32 35 32 32 34 35 33 27 26 28 31 31 29
28 28 22 20 19 19 21 24 29 33 35 36 36 35 26 35 30 24 29 29 27 27 27 29 25 24 27 27 25 30 37 39 35 35 35 37 35 30 27 28 28 29 30
21 21 16 17 19 23 28 30 30 31 33 33 30 26 20 18 30 27 28 31 31 36 37 34 33 32 28 25 30 30 29 34 38 38 37 38 36 33 27 27 27 27 27
16 17 20 24 27 31 32 30 29 28 27 28 29 24 23 26 22 26 24 34 40 36 34 29 26 25 25 28 29 29 36 38 43 38 35 37 34 34 30 27 27 27 26
17 20 29 30 26 24 24 24 24 23 21 21 21 21 22 21 21 24 31 29 31 28 28 26 23 20 17 19 20 25 31 30 39 42 42 34 32 30 28 25 25 24 24
23 26 27 27 23 22 24 28 25 23 21 24 18 19 22 18 17 20 26 35 34 34 28 22 14 15 14 13 14 16 20 23 35 38 36 30 27 28 29 26 23 22 20
27 20 24 21 23 29 26 24 25 25 26 25 27 27 27 24 24 24 28 32 31 32 29 24 12 13 13 14 14 16 18 23 28 31 37 33 26 24 27 27 27 25 21
20 19 20 25 26 22 20 21 20 16 20 20 18 18 20 20 19 20 21 20 25 24 27 28 19 14 12 16 16 16 15 16 25 33 35 28 19 15 20 23 23 22 22
23 21 26 26 25 23 21 21 23 22 19 18 18 18 19 20 22 21 21 23 23 20 22 17 18 13 11 12 16 18 19 22 17 20 29 30 34 29 16 13 16 20 22
27 26 21 25 22 20 20 17 20 18 19 23 22 22 20 20 18 19 23 25 23 24 19 24 25 19 14 16 13 14 13 23 20 14 17 27 20 13 28 25 15 13 15
27 23 22 19 20 20 20 20 20 21 21 23 20 20 21 25 29 32 33 31 25 19 23 26 23 24 22 18 17 18 14 15 27 18 7 14 19 16 9 10 14 15 16
13 14 23 21 19 19 23 24 23 25 24 25 27 28 32 34 38 35 31 31 29 26 23 27 22 19 20 21 23 20 20 15 16 26 13 6 14 8 14 13 11 11 13
25 16 18 18 17 21 23 24 25 24 24 27 30 32 35 38 38 37 35 33 32 30 25 24 26 26 27 24 21 22 24 21 18 16 24 11 11 15 11 13 13 15 14
18 10 14 15 20 21 23 24 23 25 27 30 33 36 32 29 32 30 27 24 23 22 24 23 25 23 22 23 24 25 26 24 18 13 14 17 17 14 13 20 17 16 15
12 8 12 20 19 22 20 24 26 27 31 34 30 26 29 28 29 22 20 21 21 20 21 20 22 18 18 19 21 22 22 23 22 16 12 10 15 17 14 13 15 18 19
10 16 16 18 20 18 23 23 28 31 29 28 29 30 28 28 24 20 19 20 21 22 19 17 18 19 19 19 19 20 18 20 22 21 18 19 12 10 10 14 15 16 19
12 13 15 16 18 21 23 26 27 28 29 29 29 30 27 29 23 21 21 20 20 21 20 21 19 16 16 16 16 19 21 18 19 18 22 28 25 23 16 15 18 19 19
10 15 12 17 19 23 26 29 30 29 29 29 28 28 30 26 22 18 19 20 20 18 18 19 19 20 20 19 19 20 20 18 19 18 15 25 28 30 28 26 25 25 25
11 12 15 17 21 26 28 28 29 28 27 27 28 26 21 21 18 18 19 17 19 18 15 13 14 16 16 15 15 15 18 18 20 22 18 20 22 23 24 29 29 28 26
13 12 13 18 23 25 26 26 25 28 28 26 24 22 19 16 17 17 17 19 23 21 18 20 20 19 20 21 20 22 22 22 22 25 21 14 15 13 18 24 22 19 20

GFSMA_850_spd_015.txt.gz
Wind_Speed
5 5 4 4 5 7 11 12 14 17 20 24 26 25 23 21 19 17 16 17 17 17 16 17 19 19 19 20 20 20 19 19 20 19 19 19 21 22 24 24 26 26 26
6 7 7 7 8 10 13 16 22 21 25 30 31 28 25 24 23 21 19 18 19 19 19 19 19 20 20 19 20 21 23 22 22 21 21 22 21 22 24 27 29 28 30
9 11 12 12 14 16 18 24 30 29 29 30 26 23 24 24 26 28 26 24 21 19 20 23 21 24 25 24 21 21 24 25 23 22 21 21 21 22 23 26 30 29 31
11 11 12 13 17 21 26 34 36 31 31 27 24 24 24 25 25 25 24 23 22 22 22 23 23 25 26 27 27 28 26 24 26 26 24 22 21 22 23 23 25 29 31
8 11 16 19 22 29 33 34 31 29 25 25 27 27 28 28 28 28 29 29 28 28 28 28 28 28 27 28 31 30 30 29 28 29 29 26 23 21 21 23 24 25 28
12 18 21 25 28 31 31 30 27 26 28 31 32 35 35 32 29 25 22 22 24 26 22 21 21 25 26 25 25 31 32 33 31 29 30 32 29 25 23 23 25 26 24
25 25 26 26 32 31 26 27 28 30 31 33 36 37 36 22 11 24 20 19 24 28 28 28 29 28 27 28 28 25 29 37 34 31 31 33 34 31 27 26 26 26 26
25 20 26 28 25 21 22 25 29 32 33 30 31 32 18 30 20 20 31 21 23 28 30 33 35 35 35 34 33 32 31 29 36 34 35 33 35 33 32 29 27 27 25
20 23 20 19 19 22 24 29 28 28 29 29 26 23 19 13 32 29 27 29 24 32 35 31 30 29 28 30 34 36 34 33 32 35 37 33 34 34 34 33 28 29 28
19 16 15 18 30 31 29 27 28 29 31 29 27 20 20 24 25 29 25 33 38 35 29 28 27 25 23 22 24 28 34 36 32 34 34 35 36 36 39 36 30 28 29
18 21 28 34 25 26 28 29 31 30 25 25 24 24 27 27 22 21 30 28 31 29 26 27 26 16 12 13 16 20 25 29 32 35 33 37 37 37 36 37 31 28 29
32 32 21 23 26 26 26 28 23 22 22 21 19 19 22 20 24 23 24 28 25 27 27 26 20 14 9 10 11 13 16 24 24 25 28 28 30 34 34 37 28 26 26
26 25 22 23 21 25 22 20 18 19 19 19 18 17 15 17 21 23 24 28 21 27 23 19 17 13 12 10 10 12 13 15 24 25 26 22 27 33 33 33 28 23 26
29 24 22 21 19 21 18 17 19 19 20 17 17 17 17 20 20 21 22 25 27 19 24 23 20 11 10 11 8 11 10 13 16 20 28 27 23 27 32 26 27 22 25
24 19 20 19 22 19 18 16 17 18 18 20 21 22 21 21 21 20 20 22 20 22 27 26 21 20 15 16 12 12 13 16 17 19 23 27 30 23 25 21 17 20 22
21 18 21 15 16 19 17 18 19 19 23 24 23 23 22 21 22 24 27 29 30 24 27 26 31 25 19 20 19 18 14 13 18 19 22 25 24 24 31 23 17 12 15
21 31 27 19 15 19 18 18 21 23 23 24 26 25 25 27 31 32 33 36 35 30 29 31 29 28 21 20 20 22 21 18 17 19 21 19 15 20 32 28 31 25 14
28 31 28 24 16 17 17 20 22 24 26 24 26 28 31 33 35 36 37 35 33 30 30 34 31 26 23 22 22 23 20 22 20 18 19 23 25 10 19 21 14 18 27
27 25 24 20 13 15 19 22 24 26 24 26 27 33 35 34 32 31 32 32 29 25 23 26 29 28 25 22 23 22 21 21 21 18 16 20 31 16 13 15 18 19 12
23 18 16 13 12 20 21 22 22 24 26 28 33 31 29 28 30 30 31 27 23 23 21 23 23 22 22 21 22 22 23 23 24 20 14 10 15 19 12 8 11 13 19
19 19 17 14 18 19 20 19 24 26 30 31 30 28 27 27 27 25 24 24 24 23 23 20 19 20 21 20 20 19 19 20 21 21 18 13 6 8 14 6 6 10 14
21 19 17 16 15 16 19 24 27 28 28 29 29 29 29 28 26 26 24 22 22 21 22 23 21 21 17 20 19 18 19 18 17 14 13 20 16 11 8 12 11 10 11
12 8 12 15 13 21 23 25 27 26 27 28 28 28 28 25 22 22 18 18 18 18 19 22 24 22 23 14 14 16 17 19 20 18 17 18 21 22 18 13 12 15 12
14 12 10 13 20 20 24 25 26 25 27 28 25 22 22 22 21 20 20 22 18 17 17 16 16 21 22 21 22 22 21 21 22 21 17 20 16 19 24 22 22 18 17
13 10 13 17 18 22 23 23 24 28 29 24 20 21 18 18 15 21 20 20 19 21 22 21 20 18 12 15 15 16 17 16 18 18 13 14 16 15 17 22 23 23 22
12 14 14 16 20 20 20 21 24 26 24 21 21 19 15 17 20 20 16 17 18 17 14 17 16 16 21 21 20 20 19 19 20 21 18 16 15 9 5 10 15 19 19

GFSMA_850_spd_018.txt.gz
Wind_Speed
3 3 5 6 7 7 9 10 11 18 26 26 25 27 26 21 17 16 17 17 18 18 20 21 22 20 17 16 19 18 16 16 17 17 17 17 16 17 18 20 21 24 25
4 6 8 8 7 9 12 13 17 26 28 24 24 23 21 20 21 21 21 22 23 24 26 27 26 25 25 23 19 21 20 18 18 17 16 16 17 18 19 19 22 24 26
7 8 8 8 10 13 17 20 27 27 23 24 25 20 19 18 20 22 24 23 22 22 23 24 26 28 26 28 28 24 24 26 22 19 18 16 17 18 18 20 21 23 28
8 8 10 12 16 19 22 25 26 24 24 24 22 23 24 23 26 27 27 26 25 25 25 27 28 28 27 27 28 29 29 27 28 25 23 19 18 17 16 19 21 23 25
7 11 15 20 28 24 25 29 25 23 24 27 26 26 27 27 31 32 27 20 19 19 20 21 23 27 29 30 29 30 31 32 33 30 27 26 23 19 18 18 18 21 24
16 21 25 20 17 20 27 26 24 25 27 29 30 32 33 33 32 23 17 21 25 26 25 26 26 26 26 29 30 27 27 32 33 33 32 27 27 27 24 20 20 20 21
18 21 24 20 23 29 29 25 25 30 33 34 35 36 34 15 11 22 24 19 26 28 26 30 30 32 33 33 34 35 33 29 30 32 36 34 28 26 29 26 24 22 21
20 23 22 25 27 26 24 27 32 28 28 29 30 31 15 26 13 9 25 27 24 30 26 33 34 32 31 32 32 33 37 40 35 33 32 33 36 32 28 30 28 26 23
20 21 21 23 25 30 33 27 27 29 30 28 24 18 11 9 25 23 22 30 24 28 29 26 27 27 27 26 26 28 30 33 37 38 36 34 35 36 33 29 30 29 27
20 23 28 32 32 24 24 27 28 29 27 23 22 17 17 20 19 23 23 22 26 26 29 29 27 25 22 21 21 22 26 30 33 34 36 35 38 35 34 33 30 32 31
22 26 24 24 27 25 23 25 26 22 21 20 20 20 21 19 17 17 25 23 28 28 26 25 28 26 14 15 16 18 20 24 29 32 33 35 37 34 34 33 31 30 32
24 26 26 24 20 17 21 21 20 18 19 20 20 19 17 16 18 19 23 24 23 16 21 16 15 16 14 16 15 16 16 19 24 27 30 30 33 34 31 27 27 26 28
25 23 23 25 24 17 16 18 18 19 19 20 20 20 19 18 19 21 23 24 21 31 28 26 21 17 19 16 13 12 13 16 18 21 24 26 26 25 25 26 31 34 26
26 28 23 22 24 21 20 21 19 17 19 17 18 19 22 20 20 21 21 21 29 27 36 33 33 27 22 22 16 10 11 15 17 16 19 21 22 23 26 25 25 31 26
27 22 18 24 31 28 22 12 16 17 17 17 19 19 21 23 21 19 21 23 23 27 35 39 38 34 30 26 24 24 15 15 16 17 20 22 22 17 25 25 25 25 23
24 23 26 26 28 23 14 16 16 17 19 20 22 23 23 24 25 26 28 30 31 31 37 42 44 39 31 26 24 23 25 25 23 20 18 20 21 21 20 29 16 21 30
22 24 26 28 27 25 16 15 16 21 22 23 25 27 28 28 31 34 36 36 35 31 34 42 38 38 36 29 23 22 23 23 25 25 24 24 22 20 20 24 22 15 27
23 21 23 24 22 22 16 15 18 22 24 25 28 31 31 32 37 36 32 31 33 31 31 33 35 34 33 27 21 25 26 27 24 21 23 25 23 20 20 20 31 24 22
23 18 20 18 19 14 12 16 22 22 24 26 31 32 35 35 35 34 32 32 32 30 25 24 30 29 28 24 25 25 25 25 23 21 19 21 21 20 21 18 18 18 30
21 16 20 20 18 15 17 21 19 21 25 30 33 34 34 33 32 31 30 31 29 27 27 27 26 27 22 21 21 24 23 23 25 23 22 18 19 15 18 24 9 17 19
20 19 21 17 15 18 20 15 20 25 31 33 33 32 32 31 26 26 26 28 29 29 27 27 26 27 24 21 21 23 19 20 20 20 19 17 12 10 11 18 16 10 21
20 18 15 18 14 16 12 22 25 30 31 30 31 32 30 27 24 21 23 22 21 23 27 25 26 27 28 25 22 19 19 18 19 15 14 12 17 11 9 11 11 10 14
18 18 15 13 11 13 22 22 28 27 26 28 30 26 24 23 21 20 17 21 22 23 20 19 21 22 26 24 24 26 16 13 17 16 18 19 15 21 16 10 11 11 12
20 15 14 9 15 20 21 26 25 24 26 27 24 21 22 21 19 18 25 25 25 23 21 21 22 23 22 18 23 24 23 21 22 21 19 23 19 16 20 20 16 12 12
16 18 12 16 17 20 23 22 21 22 24 24 21 19 19 19 18 20 21 21 20 18 16 16 17 18 20 24 20 18 20 22 20 17 13 14 13 11 13 18 22 21 18
17 14 14 14 19 20 19 19 20 22 24 23 22 20 19 18 17 18 20 22 20 22 21 19 17 16 17 20 23 19 20 17 16 17 14 16 14 9 5 9 16 22 23

GFSMA_850_spd_021.txt.gz
Wind_Speed
4 4 4 5 7 8 9 11 12 15 21 24 25 25 26 25 24 23 22 22 22 21 21 22 22 24 25 24 23 21 20 17 13 11 10 10 12 13 14 16 19 23 23
6 6 6 8 10 12 14 15 18 21 24 25 26 24 23 21 20 20 22 23 24 25 25 24 23 22 22 24 25 25 24 23 21 18 14 11 10 12 14 16 18 22 25
7 8 9 11 12 14 17 19 21 25 27 24 22 23 24 25 26 25 25 25 26 27 27 27 28 27 25 24 24 26 27 27 27 25 23 19 14 12 14 15 17 22 24
7 7 9 12 16 19 18 20 22 24 22 22 22 25 26 28 29 30 30 30 29 27 26 26 28 28 29 29 28 27 29 29 29 29 27 26 23 18 14 14 16 19 23
6 10 19 26 24 19 18 22 22 21 22 23 26 29 29 29 30 31 31 27 23 22 24 26 27 29 30 32 33 30 27 29 30 30 29 29 27 26 21 17 17 17 18
15 20 20 20 20 18 22 22 23 27 29 31 31 29 29 27 23 19 19 21 27 27 25 27 30 31 32 32 33 35 35 31 29 30 30 31 29 30 29 25 22 20 19
16 16 15 15 16 19 23 26 29 31 27 28 26 23 20 12 10 15 26 24 20 26 27 29 30 32 34 34 33 32 34 37 36 33 32 31 29 29 31 31 27 25 22
16 15 16 18 22 27 29 24 21 23 24 26 24 18 13 14 10 10 14 19 18 27 23 26 31 27 28 29 31 30 30 31 33 33 33 36 35 31 29 32 32 28 26
14 16 20 22 22 21 21 23 22 24 24 22 20 12 11 10 22 12 17 17 18 21 22 22 23 25 26 27 27 27 28 28 29 30 31 30 34 37 34 29 32 34 30
16 18 21 22 23 24 23 22 21 23 20 17 16 11 12 14 16 20 15 19 21 23 22 23 26 31 28 24 23 25 25 27 28 28 28 28 28 31 37 35 30 32 33
18 21 24 27 25 25 23 21 22 17 16 15 13 11 12 12 12 15 24 21 21 19 19 18 17 18 21 19 20 21 22 23 26 26 25 26 26 25 28 34 32 31 33
22 22 24 25 26 24 20 21 19 17 16 14 13 10 11 13 16 17 21 23 26 25 22 20 17 19 20 20 21 22 17 19 22 23 24 23 23 23 22 26 33 30 30
25 27 27 27 25 19 22 23 19 15 14 15 15 14 16 16 18 18 19 22 22 28 28 22 23 21 22 22 22 26 19 13 16 20 20 20 18 18 20 23 25 28 29
27 29 28 26 21 23 24 20 15 12 15 15 16 17 19 17 20 22 19 19 26 30 30 31 28 25 25 25 26 29 25 22 18 15 19 21 20 17 16 19 23 25 29
24 26 23 21 19 25 22 22 18 13 15 15 19 19 22 23 23 25 25 23 21 31 37 37 35 28 29 29 29 27 25 26 26 24 20 21 21 19 17 15 19 25 26
26 26 20 20 24 25 27 21 19 17 15 18 20 23 23 26 27 26 27 27 24 28 39 34 34 31 29 28 27 27 26 27 26 25 27 25 26 24 21 18 17 22 28
27 24 20 20 20 23 21 23 20 15 17 23 23 25 25 27 27 23 24 25 24 24 31 41 32 30 30 27 26 25 25 24 22 25 24 23 23 24 22 20 18 18 23
28 25 21 18 18 20 22 21 13 13 23 24 24 26 29 28 29 25 24 24 25 25 27 35 33 28 25 25 25 24 22 21 23 23 26 23 22 20 20 21 19 16 24
28 23 19 18 21 18 18 13 14 21 22 22 26 30 32 30 27 25 25 26 24 23 23 26 33 27 26 22 21 20 20 24 23 23 24 22 20 19 18 17 20 18 22
25 21 21 19 23 17 11 15 19 20 20 26 30 32 33 31 27 25 24 24 23 22 22 24 27 26 22 21 19 18 17 17 21 20 20 22 23 21 19 16 16 15 21
22 20 20 18 16 16 13 17 15 22 25 31 31 30 31 30 26 22 19 20 21 22 22 21 24 24 22 20 19 18 18 17 20 16 16 13 12 12 17 15 12 12 18
21 19 19 19 15 11 10 16 21 25 29 28 28 29 27 23 18 20 19 16 16 23 24 24 25 22 21 20 19 17 16 14 15 12 10 10 8 11 11 14 14 13 11
20 19 18 16 13 11 17 20 24 26 25 25 27 26 21 18 18 17 18 22 22 21 22 24 24 23 22 20 19 18 17 15 14 11 11 14 11 12 14 15 15 14 13
17 15 16 15 12 17 18 23 24 23 22 23 24 21 18 18 17 17 21 20 18 20 19 17 19 21 21 20 19 21 17 17 17 15 13 16 14 15 14 20 20 13 10
12 14 15 14 15 16 22 23 22 21 21 22 21 17 17 17 17 17 19 19 20 18 17 20 19 20 20 20 20 18 19 14 16 17 16 15 13 11 10 13 19 20 13
15 16 16 16 15 20 21 20 19 20 20 21 19 19 19 17 16 18 18 18 18 19 20 18 16 14 13 14 14 15 16 15 14 6 8 10 9 8 5 7 13 20 20

GFSMA_850_spd_024.txt.gz
Wind_Speed
7 6 7 6 7 8 7 9 10 13 17 15 16 23 20 17 19 16 15 23 24 23 22 22 20 21 23 24 23 20 18 19 19 18 17 16 16 16 16 16 17 19 22
8 9 8 8 9 11 13 12 16 17 14 15 15 16 19 17 16 19 18 18 24 25 26 26 26 24 22 22 23 24 23 22 21 21 21 21 18 17 19 19 19 19 20
12 9 9 10 12 16 17 19 21 14 14 16 17 18 19 20 21 21 22 18 18 21 24 27 27 27 27 25 24 24 26 25 23 21 21 24 24 21 19 20 20 21 22
7 10 9 10 18 20 19 14 12 13 16 18 20 21 23 24 24 23 20 16 16 16 17 23 25 25 28 29 30 28 26 26 27 27 25 22 24 26 24 22 21 22 22
6 8 13 16 13 15 17 13 12 16 18 20 21 25 25 24 24 22 20 15 14 13 14 18 26 26 29 30 30 31 32 31 29 28 28 27 26 26 28 27 24 23 23
9 12 12 14 13 10 11 15 19 18 18 21 23 25 21 23 22 16 13 13 15 17 16 16 18 18 24 29 30 30 30 31 31 31 30 30 30 26 27 30 29 28 26
12 12 11 11 14 14 20 22 17 17 20 19 21 24 23 20 14 14 15 18 16 16 18 19 18 20 20 22 22 22 26 27 29 29 29 30 32 32 29 26 31 31 30
11 12 14 12 17 17 14 15 19 19 19 18 18 22 23 23 20 11 20 17 20 20 20 21 21 22 22 22 20 25 24 27 27 27 27 27 28 30 33 30 27 32 32
11 14 17 19 19 17 17 16 15 15 15 16 15 17 21 20 23 23 19 22 19 23 22 22 21 19 20 21 22 20 24 28 27 27 27 23 23 26 28 29 28 27 33
14 16 18 20 20 18 16 14 12 13 13 17 16 15 16 18 21 26 21 22 23 23 23 22 21 21 20 20 20 19 22 24 27 28 25 22 20 21 23 26 23 24 27
13 14 16 19 18 16 14 11 11 13 14 15 15 15 15 15 16 20 25 25 25 24 23 23 22 22 22 23 22 21 25 24 24 25 23 20 19 20 21 23 22 21 24
15 17 19 19 19 17 14 12 14 13 15 14 12 13 14 16 19 20 24 26 27 27 24 23 24 23 25 25 25 25 29 29 21 19 19 21 21 21 20 22 23 22 23
18 18 19 19 19 17 15 15 15 17 16 14 14 15 15 15 18 20 23 27 28 30 29 26 25 26 25 27 27 27 27 30 28 23 20 20 22 22 20 18 19 23 23
14 17 18 18 17 15 14 18 17 18 15 14 14 15 16 17 18 21 23 25 30 32 32 30 29 29 29 28 29 34 30 28 28 28 26 24 22 20 20 20 18 21 25
14 18 19 18 16 17 18 19 19 20 18 15 16 16 16 17 20 22 24 24 26 33 36 34 34 30 30 29 29 30 29 28 30 29 29 27 28 27 24 22 20 18 22
16 19 19 18 17 18 21 21 21 20 16 16 17 18 19 22 24 25 25 26 27 31 40 36 35 32 31 31 30 30 30 31 31 31 27 26 25 27 27 25 22 20 19
17 19 19 18 17 18 19 20 21 19 15 16 17 18 20 23 26 26 26 27 29 30 36 41 34 31 30 29 28 26 25 26 27 25 27 25 25 22 23 24 23 22 21
18 20 18 17 16 17 18 20 16 12 13 16 18 18 22 26 27 26 26 27 29 30 31 36 33 30 28 28 27 26 25 24 24 24 23 22 25 23 22 22 22 21 22
19 18 17 17 17 18 19 14 9 10 14 15 15 19 23 23 23 23 25 26 27 26 25 29 32 28 27 25 25 23 23 21 22 23 29 26 26 21 21 20 20 20 21
19 17 17 16 15 14 13 10 9 10 11 14 17 19 19 19 20 22 22 21 21 22 24 26 27 26 23 23 23 22 21 19 19 18 21 24 21 22 23 21 21 19 21
16 16 16 15 15 12 11 9 8 12 15 17 17 17 18 21 28 20 18 19 20 20 20 23 26 25 24 23 21 21 21 21 20 19 18 15 15 16 15 14 15 17 20
16 16 15 15 13 8 15 12 16 16 17 16 16 17 17 18 16 22 20 20 18 21 24 24 24 26 26 24 22 20 20 19 20 15 15 13 10 10 13 13 16 18 18
16 15 14 12 11 9 14 18 18 21 16 14 15 16 17 16 20 18 19 20 22 21 21 23 25 23 22 22 21 21 21 20 19 16 16 11 10 12 13 14 18 21 18
16 15 14 10 8 11 16 18 21 18 14 14 14 15 16 17 17 20 18 20 20 20 20 20 21 24 23 23 22 21 21 22 20 19 15 18 14 14 14 14 19 22 16
14 13 13 11 10 10 17 20 20 16 13 14 14 14 16 15 18 17 19 20 19 18 17 20 22 21 18 17 17 18 19 18 19 16 16 19 15 17 16 15 14 18 19
13 12 13 12 14 14 19 19 18 15 15 14 14 14 17 21 21 19 18 17 18 18 20 20 17 16 16 17 18 16 13 16 17 15 7 8 9 9 10 10 11 12 16

GFSMA_850_spd_027.txt.gz
Wind_Speed
4 3 6 6 8 7 9 9 11 11 14 15 15 16 17 18 18 17 16 23 26 27 27 24 22 21 22 23 22 21 21 21 20 21 20 18 16 15 15 17 18 19 19
15 9 9 8 9 8 8 10 11 13 15 14 16 18 19 20 19 20 21 20 27 25 25 26 24 24 22 21 22 21 21 21 22 21 22 23 21 20 19 17 18 20 21
10 10 11 12 12 13 19 19 19 13 13 17 18 20 21 21 23 22 21 22 18 23 22 21 26 25 25 23 23 22 22 22 22 23 23 23 24 24 24 23 20 20 22
4 10 13 12 13 18 10 9 11 14 17 18 21 22 23 24 24 22 22 20 17 15 19 20 23 27 29 27 27 27 25 23 23 23 23 24 26 26 26 27 26 24 21
7 8 8 13 10 7 9 12 13 16 19 21 24 24 24 23 21 23 21 17 14 15 15 20 24 25 21 24 28 24 21 19 19 20 21 23 25 28 28 29 29 28 27
6 2 5 10 9 10 12 14 17 17 19 22 23 23 22 22 23 19 15 14 14 15 17 18 21 20 22 26 25 22 18 20 18 17 17 19 20 22 30 28 29 31 29
4 5 3 8 11 11 12 15 17 19 20 19 22 23 22 23 19 20 21 13 16 18 20 19 20 20 22 22 20 19 22 24 17 19 19 19 20 21 23 31 30 29 33
7 5 11 9 11 13 16 16 17 19 18 17 19 21 25 24 18 17 19 21 20 21 20 22 23 21 21 20 20 22 19 18 28 31 27 23 20 21 22 21 29 31 30
4 6 9 11 13 15 16 17 17 17 18 18 16 19 24 22 27 23 22 22 23 21 23 23 23 22 22 20 21 19 24 30 29 28 26 23 21 21 20 21 20 24 30
5 8 10 12 14 16 17 16 15 16 17 19 19 18 19 22 25 29 22 22 23 25 26 26 23 23 22 23 22 22 23 24 25 28 26 21 21 21 21 20 21 20 23
9 11 13 16 17 17 17 18 17 16 18 19 18 21 20 20 20 22 26 25 24 25 25 24 23 23 24 23 24 23 26 31 33 32 27 23 21 20 20 21 19 20 22
10 11 14 16 17 17 19 17 17 20 18 18 21 19 17 18 19 19 22 25 28 29 26 26 26 27 27 27 27 26 29 28 31 30 30 26 24 23 21 21 20 20 19
11 11 13 15 16 17 17 18 21 22 20 22 20 18 16 16 16 18 20 26 27 30 31 29 27 28 28 29 30 30 29 29 32 33 28 26 26 25 22 22 22 21 21
8 11 13 16 17 17 16 20 20 18 21 20 20 17 16 16 16 17 19 23 30 33 31 30 29 30 31 30 32 33 31 32 33 34 31 28 30 30 28 25 24 23 22
9 12 14 16 17 17 18 20 20 22 20 24 20 16 15 15 17 17 18 23 27 32 34 33 33 31 31 30 31 31 32 33 34 36 36 38 35 33 30 31 29 27 25
10 13 15 16 17 17 17 19 21 24 23 23 16 15 15 19 19 19 23 26 27 31 38 34 35 33 31 30 29 31 31 31 33 31 32 31 29 31 28 30 30 29 28
12 14 16 17 16 17 16 17 20 22 22 20 14 15 17 17 18 22 27 28 29 30 34 38 37 34 30 29 28 28 30 31 31 31 30 30 30 29 26 29 29 28 27
14 15 17 15 16 17 18 20 20 20 14 12 12 14 16 17 22 25 25 25 27 29 31 36 36 32 29 28 29 28 28 25 28 25 26 29 28 29 30 29 30 30 26
16 17 17 16 17 16 17 15 17 12 13 13 13 14 18 21 22 20 21 23 24 25 26 28 32 30 29 27 27 26 26 26 24 25 24 26 32 28 22 26 29 29 25
16 17 16 16 17 15 15 13 11 11 11 13 15 17 19 18 18 19 22 20 20 22 23 24 26 28 26 26 26 28 25 21 23 23 25 25 23 20 18 24 25 25 24
16 16 16 17 15 14 13 12 8 8 13 16 18 17 16 19 26 25 22 20 19 20 20 22 26 27 27 27 26 27 27 25 22 23 23 23 23 16 20 23 18 16 21
16 16 17 17 16 12 17 16 13 14 14 16 16 15 15 16 16 21 19 24 23 20 23 24 26 27 27 27 24 24 24 24 26 21 21 21 19 14 12 13 15 10 17
17 17 17 16 13 12 17 15 15 17 14 13 13 14 15 14 17 17 18 21 20 21 23 25 26 25 26 25 25 26 25 24 24 24 22 25 17 14 9 12 17 17 21
17 17 16 13 12 14 18 17 16 19 12 12 13 14 14 14 16 23 25 19 19 18 19 19 22 25 27 26 22 22 23 25 26 23 20 25 21 20 15 15 20 22 24
16 16 15 13 13 14 19 19 18 17 11 13 13 13 15 15 16 22 23 20 19 18 17 21 24 25 21 19 18 23 23 20 22 21 18 21 20 20 18 21 23 19 20
15 15 14 13 13 13 19 21 18 17 14 12 12 11 16 23 23 22 22 19 18 18 21 22 20 18 17 17 19 19 20 22 18 20 17 10 10 10 15 17 16 12 14

GFSMA_850_spd_030.txt.gz
Wind_Speed
6 7 9 6 5 5 5 8 8 14 18 15 17 17 18 19 18 16 18 21 23 24 23 22 21 21 21 21 20 18 18 18 18 16 17 16 19 20 18 17 15 15 15
8 10 7 5 10 12 14 14 19 20 18 12 15 15 17 18 18 19 20 21 24 25 23 18 17 20 22 22 22 20 19 20 20 20 18 17 17 20 22 20 20 18 17
8 6 7 6 11 10 14 17 19 12 12 15 16 18 20 21 23 22 23 22 18 23 20 19 22 21 25 28 25 20 20 20 20 21 22 21 19 19 21 23 23 22 21
4 4 6 9 8 11 14 17 11 13 17 16 18 22 20 23 26 20 19 22 20 22 18 19 18 17 20 24 20 19 20 18 18 19 19 21 24 19 20 24 23 24 24
1 3 7 7 8 6 9 10 14 19 20 24 21 19 23 26 17 20 18 15 13 13 12 14 16 19 18 17 19 21 22 18 20 19 15 15 18 24 23 24 27 26 25
3 1 8 9 8 4 9 15 20 22 22 21 22 21 19 20 20 17 17 12 13 13 11 19 21 18 16 18 18 19 16 19 20 19 17 20 20 20 24 26 29 28 27
3 4 6 4 8 11 14 17 18 19 24 16 22 21 21 21 14 15 14 14 14 17 17 18 16 22 25 25 21 17 22 23 21 19 21 23 23 21 20 22 25 28 29
4 3 9 11 14 17 18 14 18 20 18 18 18 23 21 25 16 20 21 22 17 18 18 20 22 21 25 19 23 22 19 21 25 24 23 25 23 21 21 21 23 25 26
4 7 10 14 17 16 15 17 20 17 17 18 14 17 24 19 27 23 20 21 23 23 21 20 23 22 22 23 22 23 23 26 28 30 29 24 23 21 20 21 19 22 23
11 11 10 14 15 19 21 17 15 19 23 18 19 18 19 25 26 27 16 20 21 20 21 22 23 19 20 22 23 22 27 28 30 30 29 28 28 24 22 20 20 19 23
5 8 10 14 15 17 19 19 21 20 19 18 20 24 23 21 19 19 25 24 23 21 22 23 25 24 24 24 26 25 25 24 29 30 31 29 29 27 25 23 21 20 18
9 12 17 21 22 17 17 18 17 21 23 24 26 22 23 22 19 18 21 23 23 25 23 24 29 28 26 23 23 24 29 29 30 32 32 28 28 28 28 26 23 22 20
12 16 20 19 16 17 18 17 19 23 26 27 23 25 23 24 18 18 20 21 22 28 30 28 26 25 28 31 31 30 31 34 34 30 31 30 29 29 26 27 27 23 21
15 15 15 16 18 17 17 18 20 23 25 23 26 24 24 25 22 18 16 20 24 31 31 30 27 27 28 29 23 29 32 34 36 38 39 39 40 35 33 32 29 27 24
11 11 16 17 16 17 17 17 18 22 23 23 24 26 22 20 14 17 20 20 21 27 32 30 31 29 22 27 30 33 35 36 35 35 36 37 36 31 30 30 34 32 28
12 14 13 15 17 17 17 16 18 20 22 25 23 21 17 13 16 19 17 18 25 27 35 31 29 28 32 33 36 39 33 37 39 36 36 31 31 32 32 30 28 30 30
15 12 14 16 16 15 16 20 22 28 20 26 23 22 13 11 14 17 19 22 23 24 29 33 34 32 32 32 39 33 33 34 31 30 29 31 31 31 32 31 29 27 27
16 15 16 17 16 16 18 20 21 16 20 16 13 12 13 14 17 20 22 23 26 29 31 31 29 30 31 33 29 29 29 30 30 29 30 29 28 31 32 26 26 29 30
16 16 18 18 17 17 17 17 18 17 13 13 15 14 15 16 20 21 22 25 29 26 24 28 33 34 29 27 28 28 29 29 29 28 24 26 26 29 29 28 28 24 27
17 18 19 18 17 19 15 18 13 13 15 11 14 15 17 18 20 22 27 30 25 23 26 27 28 29 27 27 27 28 28 29 30 27 26 27 29 27 29 26 20 23 22
18 20 18 16 16 19 16 18 17 18 18 16 14 17 16 18 22 24 23 24 25 28 29 23 25 28 28 28 28 28 29 29 30 26 26 27 27 27 26 26 20 19 24
16 17 17 18 19 19 20 20 19 18 16 17 14 16 17 15 17 20 20 20 25 29 22 25 30 31 32 29 28 27 31 31 31 30 28 30 25 27 27 16 15 17 13
18 19 19 18 20 22 21 19 17 17 17 11 14 15 16 13 19 21 25 27 27 19 19 22 27 24 24 26 31 34 30 26 28 29 29 33 27 27 22 22 17 14 14
18 18 19 18 19 18 19 20 18 18 18 13 13 16 15 15 22 25 24 27 24 20 14 17 23 27 28 30 21 22 24 28 28 25 24 27 27 28 23 20 19 20 21
18 19 19 20 18 18 21 21 18 18 19 15 16 12 14 18 23 24 26 25 23 21 12 19 26 22 18 18 18 23 26 26 28 26 23 20 23 20 18 20 20 21 21
17 17 19 16 17 18 20 18 19 21 19 17 13 14 16 18 22 24 25 23 22 20 23 22 17 18 16 17 17 17 19 23 23 27 23 20 21 15 19 13 15 13 13

GFSMA_850_spd_033.txt.gz
Wind_Speed
8 7 6 8 10 7 7 8 8 11 15 14 13 12 12 13 14 14 16 18 21 21 21 22 17 16 17 19 21 20 19 18 17 17 17 17 15 17 17 16 15 13 13
6 10 12 11 10 12 11 10 13 15 17 15 12 14 16 16 19 19 21 19 19 19 19 15 14 15 17 19 22 23 22 19 18 18 18 19 20 17 18 19 20 18 15
12 12 8 8 8 10 11 12 15 17 15 13 17 15 15 14 17 20 19 14 19 21 17 12 10 16 16 17 14 12 15 17 18 19 17 15 17 20 20 19 20 21 21
8 8 8 6 8 8 12 15 16 15 13 18 16 13 14 19 20 18 13 9 15 13 4 6 10 12 15 12 10 13 16 14 16 16 18 18 17 19 21 21 20 24 24
10 10 6 6 8 12 12 13 14 15 18 17 20 19 16 15 17 11 11 7 4 9 13 8 10 12 10 13 16 16 15 15 16 17 18 21 20 24 25 24 23 22 24
8 5 6 9 10 10 12 13 16 17 19 23 22 22 18 18 8 10 12 7 8 7 6 8 13 17 21 23 23 20 16 17 17 19 24 21 21 22 23 23 23 22 22
7 7 10 9 8 10 12 16 17 20 22 24 25 23 27 5 13 11 12 14 16 17 17 18 18 18 21 20 19 20 20 16 15 18 17 16 20 23 23 20 23 24 23
9 10 10 12 13 15 17 18 19 21 20 21 23 26 12 23 5 13 17 20 24 22 20 20 18 17 16 18 21 20 19 21 20 20 19 19 20 22 23 21 22 23 24
6 7 11 13 14 16 18 19 20 21 20 21 23 16 10 7 30 21 23 14 16 20 21 24 17 15 15 17 18 18 18 18 22 20 19 19 20 22 25 24 23 23 23
6 8 12 15 17 19 21 22 23 20 21 21 23 18 18 22 28 27 12 22 20 24 20 17 21 24 25 24 21 18 18 19 21 22 25 22 23 22 24 26 25 25 24
5 12 14 15 18 20 22 25 20 17 16 21 22 21 23 26 23 24 29 24 26 21 18 18 20 23 26 31 29 24 23 27 26 27 22 22 24 26 26 27 26 26 27
12 14 18 20 23 24 22 19 17 16 17 20 22 27 24 23 23 22 24 25 24 25 22 22 23 25 26 23 27 29 27 24 26 28 28 24 25 27 28 28 27 27 27
17 17 20 22 23 20 19 17 17 16 18 22 26 25 23 24 22 25 25 26 25 26 29 30 26 27 22 24 28 26 26 28 33 35 35 34 32 30 30 31 31 29 29
17 19 22 21 18 21 18 18 16 16 16 17 20 20 20 23 24 24 28 19 17 27 31 28 30 23 23 24 17 23 29 35 39 41 42 40 37 32 30 30 28 26 29
17 20 18 17 20 19 19 16 15 16 19 19 22 23 24 20 17 21 15 12 14 21 31 29 24 22 20 25 31 36 41 41 40 41 37 37 35 30 28 26 26 27 27
13 15 17 18 18 18 16 15 17 18 23 26 28 26 21 22 18 11 8 11 13 17 25 28 32 32 33 34 34 36 39 41 36 32 29 26 25 25 27 27 27 27 27
19 18 18 18 18 20 15 18 21 24 26 25 25 17 14 13 11 11 15 18 21 23 28 34 35 37 38 37 39 38 30 28 27 28 26 26 25 25 25 27 28 30 28
16 18 18 19 19 18 16 21 23 25 25 23 17 17 16 14 14 18 22 25 27 24 29 36 34 34 35 33 27 26 24 24 24 24 23 26 23 24 24 26 28 24 24
16 16 17 18 20 23 17 22 23 22 25 19 17 16 15 17 20 23 24 23 26 29 26 25 32 30 25 22 23 23 25 26 26 26 24 24 22 24 27 29 28 27 25
19 17 20 24 25 19 20 23 26 24 22 19 20 17 16 18 20 21 24 27 26 27 25 28 31 26 25 24 24 28 29 30 32 31 30 25 22 24 26 26 25 28 27
18 22 23 24 22 21 23 25 27 23 20 22 19 19 18 20 23 25 23 25 27 26 29 31 27 27 28 28 27 25 30 38 38 31 26 24 28 25 24 23 25 26 22
16 20 20 22 22 24 25 26 25 24 20 19 19 18 18 22 23 21 22 24 24 28 30 26 25 26 27 24 27 32 35 31 32 25 29 28 23 22 22 21 24 21 9
21 19 22 23 25 25 23 24 24 21 20 20 19 17 18 21 20 22 22 25 23 24 22 20 20 23 27 27 31 30 23 25 28 28 31 30 25 24 21 24 19 17 19
19 23 23 24 25 26 23 24 22 21 21 20 20 18 19 21 20 22 23 23 24 22 19 14 18 25 29 25 18 20 23 27 25 25 26 31 24 21 20 17 11 12 18
24 22 20 22 25 25 21 21 23 23 21 21 20 18 19 19 21 22 22 24 24 20 17 16 15 14 13 12 13 16 19 23 26 28 27 21 27 25 20 18 11 13 24
25 16 20 21 22 23 23 24 25 24 22 21 21 20 18 19 20 20 22 24 22 18 17 15 17 15 11 13 13 14 17 20 22 29 27 29 31 19 18 16 18 18 24

GFSMA_850_spd_036.txt.gz
Wind_Speed
9 11 11 8 9 8 8 7 6 8 11 14 13 11 12 13 17 18 19 19 20 16 14 12 8 9 11 16 17 17 19 18 16 17 18 17 17 16 14 14 15 18 18
10 10 9 11 11 11 11 9 10 12 14 14 12 16 15 16 16 16 19 20 17 12 11 8 6 3 8 8 11 12 13 14 19 18 16 17 18 19 17 17 16 17 20
11 15 13 12 12 12 11 11 12 13 13 14 15 17 16 15 16 19 18 16 14 5 3 4 3 3 6 5 7 13 9 11 13 17 17 22 23 28 28 26 23 23 23
16 14 11 11 11 10 8 11 13 15 16 17 18 15 12 14 13 13 8 6 5 5 3 3 4 5 7 8 6 8 8 11 16 13 15 18 22 23 30 30 23 21 25
14 12 11 10 8 8 11 12 15 16 18 18 17 15 13 10 11 5 6 7 5 2 6 2 4 8 11 13 12 11 10 13 13 14 18 16 19 20 23 23 21 20 20
14 13 12 10 8 9 12 14 16 16 17 18 17 15 14 10 6 7 10 9 9 8 7 11 14 14 12 11 10 11 13 14 14 12 14 16 18 19 20 21 22 20 20
12 12 9 7 10 12 14 15 15 16 18 17 18 19 12 8 12 5 9 13 15 17 21 21 18 17 13 11 13 13 13 15 15 17 17 16 16 18 21 22 23 22 22
11 8 8 11 13 14 16 15 16 17 18 17 19 20 4 14 8 22 11 23 17 14 16 19 22 22 20 16 16 16 15 15 16 18 18 17 18 18 20 23 24 24 23
10 9 12 13 14 17 16 16 18 20 20 18 18 14 7 5 24 10 24 9 8 16 20 22 20 17 17 19 22 24 24 22 20 18 17 15 18 20 22 24 25 26 26
13 15 14 14 17 16 16 17 20 22 19 19 18 19 17 18 21 21 12 19 22 22 23 21 19 18 21 23 24 26 23 22 23 23 22 18 19 22 23 24 27 29 28
19 17 14 14 16 17 18 20 22 20 17 17 15 16 18 21 24 22 30 20 22 24 25 22 21 22 25 25 25 23 24 25 22 19 17 18 20 24 26 28 29 29 30
18 15 14 15 17 18 21 22 20 18 17 15 15 19 20 20 20 23 25 28 30 30 28 22 20 24 25 25 21 20 27 24 22 21 23 22 23 26 29 30 30 31 32
19 17 18 18 21 20 20 19 17 17 16 16 18 20 22 23 23 22 25 28 31 32 24 17 19 22 23 23 23 23 20 20 25 29 32 35 34 32 32 32 31 31 31
19 19 17 19 20 17 18 17 18 16 15 16 19 22 24 24 25 27 23 22 30 26 21 20 23 22 23 21 24 26 30 31 35 39 43 44 41 30 28 29 29 28 28
15 17 16 15 19 22 18 18 20 18 20 20 23 27 30 29 21 21 23 22 14 17 23 25 24 26 29 32 32 33 36 38 39 39 39 33 24 22 23 23 23 24 25
16 14 14 18 18 20 22 21 23 20 21 24 28 30 30 21 15 16 14 10 15 17 23 28 31 32 33 35 35 35 35 34 32 27 24 23 22 21 22 22 23 24 25
14 19 15 14 19 23 22 23 25 22 24 25 28 28 22 19 19 16 14 14 17 21 26 31 30 34 32 32 31 27 24 23 22 22 22 21 22 22 22 21 22 22 23
21 12 13 17 20 21 22 25 25 23 25 28 26 23 20 19 17 17 19 21 23 22 25 31 31 29 30 28 24 23 21 21 22 23 24 24 23 22 23 24 25 26 27
13 10 15 17 18 22 23 25 21 24 26 26 25 21 23 19 20 19 21 22 22 26 25 27 29 30 31 26 25 24 23 24 23 27 31 29 26 24 22 23 25 25 24
10 9 14 16 22 21 24 22 22 25 26 24 23 21 22 22 23 20 21 25 27 25 25 27 30 32 30 28 24 24 26 29 34 27 17 15 16 18 22 24 24 24 25
8 8 14 17 22 20 26 24 24 25 26 25 22 23 22 23 23 22 24 24 24 25 27 28 31 30 29 27 25 27 31 34 27 20 20 23 22 18 19 18 19 21 23
14 7 17 22 21 25 23 26 24 25 25 25 23 23 22 22 22 22 22 21 23 24 26 28 28 27 26 26 29 31 31 26 30 23 27 23 22 21 18 14 15 17 20
7 16 20 20 25 24 24 25 23 24 24 22 24 24 22 23 22 22 22 21 22 23 24 24 25 24 27 29 28 23 21 23 25 23 25 28 22 20 18 15 14 15 14
13 10 20 25 23 21 21 23 23 23 23 24 24 24 23 23 22 23 22 22 22 22 22 20 19 21 21 21 20 19 22 21 25 26 23 28 25 25 24 16 11 8 11
15 20 22 23 19 19 19 20 21 23 24 24 23 23 22 23 22 21 22 22 22 21 19 17 15 15 16 15 15 18 19 22 28 29 22 23 30 31 23 18 10 10 13
18 18 16 16 21 23 23 21 22 24 24 22 22 22 21 21 20 21 22 21 22 18 16 15 12 14 13 16 15 14 16 19 21 27 20 30 30 24 20 18 13 15 14

GFSMA_850_spd_039.txt.gz
Wind_Speed
10 10 10 9 11 9 8 7 5 6 7 9 11 13 16 17 17 17 17 17 19 17 7 4 4 4 9 11 13 16 15 18 17 14 15 17 18 19 20 21 22 24 24
8 7 11 13 13 11 9 7 7 7 9 12 13 15 18 17 16 17 18 16 14 12 7 3 1 2 4 5 7 9 10 13 10 15 23 26 22 24 28 27 25 24 27
11 13 14 15 14 12 10 7 7 9 11 13 15 17 16 15 16 15 15 13 7 5 6 7 4 1 2 3 7 8 11 9 11 14 15 16 22 24 28 32 35 32 27
14 16 16 15 13 10 9 8 9 12 14 16 15 14 12 12 13 15 12 8 4 4 7 9 9 9 8 8 8 8 10 11 13 14 14 14 15 18 18 32 26 22 18
18 17 16 14 11 9 9 10 13 15 15 13 14 12 11 13 14 11 8 9 7 6 8 9 11 12 14 13 10 9 10 13 15 15 15 16 17 18 18 19 18 20 18
16 17 15 12 9 9 10 12 15 14 13 13 13 13 16 12 9 7 12 12 11 11 12 15 16 18 18 19 17 13 12 13 15 15 17 18 18 17 17 18 19 20 21
18 16 13 11 10 9 12 13 12 13 15 17 19 20 16 5 7 12 8 19 14 18 18 15 18 18 17 15 14 15 14 14 16 17 17 18 19 18 20 20 20 21 22
17 14 12 11 10 11 13 12 15 18 20 20 19 19 6 11 17 12 22 18 12 10 12 20 20 22 21 17 16 18 20 20 18 17 19 20 20 19 19 21 23 24 24
15 14 12 10 11 12 13 18 20 20 21 21 18 13 7 4 12 13 12 14 8 12 19 22 22 22 21 19 20 23 23 22 22 18 17 17 18 20 22 22 22 24 26
14 13 13 13 12 14 16 20 25 23 23 18 17 15 11 12 11 12 15 13 23 22 20 24 24 24 22 21 22 24 24 26 26 23 18 17 19 21 22 23 25 26 28
18 17 16 14 13 11 16 18 21 22 19 17 14 10 12 15 16 20 25 21 23 20 25 24 25 24 22 22 25 24 26 27 28 25 19 17 19 21 23 25 26 28 30
20 18 16 13 11 13 17 19 21 20 18 16 15 14 14 17 20 20 26 28 30 29 25 23 24 23 21 24 22 23 24 25 26 23 23 23 22 24 27 30 32 33 34
23 23 18 15 16 17 18 16 17 19 18 15 13 13 15 18 21 24 26 31 30 26 19 20 15 15 19 22 24 23 23 24 25 28 32 34 34 33 34 36 36 33 32
26 22 20 17 19 19 14 19 23 20 18 17 15 15 18 22 25 25 22 23 28 23 21 11 13 19 19 25 29 30 30 32 33 35 37 39 38 34 29 28 27 27 28
24 23 18 23 25 14 16 17 16 18 18 17 17 19 23 25 24 19 15 17 22 15 15 14 20 21 29 31 32 32 31 32 32 32 30 28 24 24 25 23 25 26 26
23 23 29 27 23 13 15 14 17 18 19 20 19 21 25 26 22 19 17 16 16 18 21 26 27 28 30 30 28 29 29 28 26 24 24 24 23 22 22 23 25 25 26
30 31 26 19 13 13 13 16 19 20 21 19 20 22 23 23 21 21 20 18 18 19 25 30 30 30 30 30 30 27 26 25 23 23 23 24 24 25 25 25 26 25 25
24 20 17 16 11 12 16 19 19 20 20 19 20 22 23 20 21 20 19 20 22 21 22 30 32 32 31 29 30 28 25 23 22 22 24 27 28 28 27 26 25 26 28
22 19 16 13 12 13 16 18 20 20 20 20 22 21 23 20 20 20 22 21 21 22 25 27 31 32 32 30 29 27 24 23 24 26 22 15 15 17 19 24 26 27 28
20 12 9 8 8 12 17 20 23 22 21 23 22 22 22 20 20 21 20 20 21 23 22 25 29 31 31 29 27 27 31 30 30 21 13 14 16 17 18 20 23 26 27
17 13 8 4 11 21 22 21 21 19 23 21 22 21 22 21 22 21 20 20 20 21 23 25 28 30 30 28 26 28 30 29 24 18 18 18 18 19 18 18 20 20 21
14 10 15 19 17 19 21 19 19 21 21 21 23 22 22 23 23 22 22 21 21 21 23 26 28 29 27 25 27 26 24 25 28 23 26 29 22 22 19 17 15 16 19
13 20 19 17 21 20 23 24 21 18 21 22 22 22 23 23 23 21 21 22 22 21 24 26 28 25 25 23 24 26 23 22 25 26 27 33 24 24 24 23 18 15 16
15 13 16 18 21 23 20 18 16 17 20 22 23 25 23 22 21 20 22 23 22 22 23 25 23 21 19 21 21 22 23 26 29 29 24 29 21 26 28 20 14 14 11
11 13 16 21 18 16 18 18 18 17 21 24 27 26 22 22 20 20 21 21 23 22 22 21 18 17 17 17 18 22 23 24 30 30 23 15 27 30 26 17 11 11 12
13 16 18 17 19 21 20 19 18 20 23 26 24 23 21 22 20 19 20 21 23 21 21 17 15 15 15 16 18 17 19 23 26 28 11 26 26 25 28 18 24 19 17

GFSMA_850_spd_042.txt.gz
Wind_Speed
12 12 11 11 10 8 7 6 5 6 7 10 11 12 15 18 18 17 17 17 15 10 1 5 2 2 4 5 9 10 11 12 10 13 16 19 22 21 26 26 25 25 26
10 11 12 12 11 10 9 8 7 8 8 10 13 15 16 17 18 16 13 12 10 5 5 6 3 2 1 4 7 8 9 9 14 13 13 16 17 20 21 26 32 34 29
10 10 12 12 13 12 11 10 8 8 10 12 15 15 15 16 15 12 11 9 7 4 6 7 6 7 7 2 3 6 6 9 10 14 17 15 16 17 19 20 26 21 22
11 12 15 16 14 12 12 9 8 10 13 15 15 14 14 13 13 11 6 5 4 4 6 8 9 10 11 12 12 12 9 9 11 13 11 17 12 18 16 17 19 19 19
14 18 17 16 15 13 11 8 9 12 15 14 13 13 13 13 11 6 3 7 5 6 7 8 11 13 16 17 18 12 10 11 11 12 13 14 16 17 14 14 15 16 18
16 19 18 15 13 11 9 9 11 13 12 12 12 13 12 8 6 4 6 7 10 14 15 15 15 16 18 18 17 13 11 12 13 14 15 16 16 16 17 16 17 16 17
17 17 15 14 13 11 9 11 11 10 11 12 15 17 8 4 6 8 13 10 20 20 14 13 14 20 20 21 20 18 15 13 13 15 16 17 18 19 19 18 17 19 19
16 15 14 14 13 11 11 8 8 9 11 14 16 17 6 8 9 11 12 17 19 14 10 14 20 22 22 20 19 18 18 21 21 17 17 18 18 18 18 19 20 21 20
17 16 16 16 14 12 9 7 7 9 14 19 19 15 7 5 17 7 15 16 17 12 17 21 18 22 22 22 21 20 22 24 23 22 19 19 19 20 20 22 22 22 23
19 19 18 16 14 13 10 7 9 14 19 22 18 15 13 13 9 12 11 19 20 20 21 17 21 23 23 23 24 23 22 22 23 24 20 18 18 19 21 22 24 25 25
21 21 19 17 16 14 11 10 14 20 25 18 16 15 14 14 14 18 24 21 25 25 24 23 21 21 25 25 25 23 23 23 26 29 32 28 20 20 22 24 26 28 29
23 22 20 19 19 18 16 17 28 23 17 17 17 13 12 12 14 17 24 30 31 31 26 23 18 20 23 24 19 21 24 28 30 32 32 31 29 26 27 28 30 33 34
25 24 24 24 23 19 15 27 26 15 18 18 14 13 12 12 15 20 25 27 27 26 20 21 17 18 23 17 20 26 30 33 34 34 34 36 37 34 31 32 33 34 33
25 26 28 25 22 14 35 26 21 12 13 13 14 13 12 14 17 20 20 18 20 17 17 16 9 14 20 20 25 33 32 32 32 32 32 33 34 33 30 27 27 29 28
28 29 28 33 26 33 22 16 10 11 12 12 14 13 14 16 18 19 16 15 15 15 19 17 12 17 19 25 28 30 30 30 29 29 29 29 28 26 24 25 25 26 27
30 34 33 28 27 19 14 8 6 11 13 15 15 13 15 17 18 17 17 17 16 17 22 22 22 22 24 26 26 27 28 28 28 27 27 27 27 26 25 26 27 27 27
31 33 27 23 13 10 9 11 9 12 15 18 15 15 16 17 19 18 18 17 18 20 24 26 25 26 27 26 27 27 26 26 26 25 25 25 26 28 29 30 29 28 28
31 23 21 15 13 16 22 9 15 16 18 18 17 16 17 17 20 18 19 19 21 21 23 27 28 29 28 27 27 28 26 24 24 25 26 26 25 22 19 20 22 28 30
26 26 22 19 21 21 8 11 18 19 21 22 17 19 19 20 20 18 20 20 21 22 22 26 29 28 29 28 29 28 26 27 26 25 20 16 14 16 18 20 21 22 23
27 20 20 19 8 11 12 15 18 22 25 21 20 22 20 22 19 19 20 20 19 21 22 24 26 27 28 28 28 29 30 27 27 22 15 14 15 16 18 19 21 23 24
22 25 21 17 19 20 17 23 22 21 22 22 22 23 22 21 20 20 21 20 20 21 21 22 24 26 28 28 27 27 27 29 28 16 20 20 19 17 18 18 19 21 21
26 20 22 18 19 21 17 16 21 24 24 23 23 22 23 22 22 21 22 22 22 21 20 21 23 26 26 26 25 24 25 26 23 24 30 31 25 20 15 19 21 23 23
10 15 18 19 17 13 15 21 25 25 23 22 21 22 23 24 24 22 22 23 22 22 21 21 24 24 26 23 23 24 24 24 26 29 29 32 24 19 19 22 19 20 20
15 19 15 11 13 15 20 20 20 21 21 22 21 23 25 27 29 20 22 22 22 22 21 22 24 24 22 21 20 21 25 27 28 28 25 29 18 21 21 19 11 14 16
15 11 11 13 17 18 18 20 22 21 21 20 20 24 26 28 25 22 22 21 21 22 21 22 23 21 19 18 18 21 24 25 30 31 22 14 24 28 24 18 11 20 19
12 13 15 18 20 22 21 22 22 22 23 23 23 24 27 28 25 23 22 21 22 21 20 21 20 18 17 16 17 18 21 23 24 27 16 24 25 23 26 25 25 25 26

GFSMA_850_spd_045.txt.gz
Wind_Speed
15 14 11 11 9 9 6 3 3 6 10 11 12 13 15 16 15 14 13 11 8 4 5 6 6 5 6 5 8 7 8 7 12 12 13 17 20 16 22 22 24 25 20
13 13 11 11 12 10 7 6 7 9 10 11 13 14 14 14 15 13 12 10 6 1 7 8 4 4 3 5 3 4 5 9 9 10 14 15 13 15 14 16 18 19 18
12 12 13 12 12 11 9 9 9 10 10 11 12 12 13 14 14 13 10 4 5 3 5 8 9 11 10 8 11 13 12 10 10 12 12 13 15 12 17 14 15 17 15
14 13 12 13 12 11 10 11 10 9 9 10 12 13 13 13 13 10 5 5 4 2 6 8 10 10 11 12 13 11 10 11 12 12 12 14 12 15 16 13 15 16 16
14 12 13 14 13 13 13 11 10 8 9 11 12 13 14 13 8 6 2 6 3 3 7 11 13 15 16 16 16 12 10 10 10 12 12 13 14 15 14 15 15 16 16
13 13 16 15 15 16 14 12 10 9 8 10 11 12 12 8 6 4 5 8 7 11 13 11 12 12 14 15 15 13 11 11 12 11 12 13 14 14 15 16 16 15 16
15 16 18 18 17 17 15 13 10 7 8 10 12 13 8 5 7 6 8 11 12 16 13 10 11 15 16 18 17 15 14 12 12 13 15 15 16 16 16 16 16 17 18
18 18 18 18 18 18 17 13 9 9 9 10 8 6 3 7 9 9 13 12 13 16 12 11 19 19 16 19 19 19 19 19 20 18 16 16 17 18 19 19 19 21 20
20 18 18 19 19 19 15 13 12 9 9 9 7 5 5 5 10 8 11 12 14 18 15 20 20 18 21 22 22 23 22 22 22 21 18 17 18 19 19 20 22 21 22
22 20 20 21 21 19 17 17 13 10 8 7 12 12 13 13 6 8 7 12 18 19 17 18 20 21 25 22 23 24 24 23 22 21 22 21 20 20 20 21 23 23 23
24 22 23 23 23 22 21 18 14 11 16 18 12 15 15 14 14 10 14 12 17 17 17 17 18 20 23 24 25 27 27 24 21 24 26 28 25 23 23 23 25 26 27
27 26 26 26 25 24 23 19 13 21 24 14 18 16 13 9 8 9 15 19 20 16 17 15 12 18 21 22 23 27 24 24 28 32 34 34 33 32 29 28 29 29 30
31 29 29 29 29 27 22 14 20 26 15 14 13 10 11 11 12 14 15 18 17 16 13 12 14 17 17 18 21 23 26 30 34 33 33 33 32 33 33 31 28 29 29
33 30 32 32 32 27 23 20 20 11 10 9 8 11 11 12 13 13 14 14 17 16 16 13 11 16 15 20 23 26 31 32 32 32 32 32 31 31 30 26 26 26 27
32 31 34 34 32 29 19 21 10 9 6 7 12 13 14 12 12 13 16 16 12 15 19 12 13 13 18 22 25 28 29 31 31 31 31 31 31 30 29 26 26 26 26
29 32 37 36 32 25 19 12 10 9 9 9 14 15 14 13 14 16 16 16 13 15 20 17 16 16 21 22 27 27 29 29 30 29 30 30 29 28 28 27 27 27 27
33 34 38 37 32 23 16 16 16 16 11 14 16 16 14 14 17 17 17 17 15 16 20 21 19 18 26 27 24 27 28 28 28 28 28 29 29 29 30 29 27 26 26
29 32 38 34 27 22 19 21 21 18 16 15 15 18 17 17 19 19 19 19 18 18 20 23 20 19 22 24 26 27 26 26 26 27 26 25 26 26 22 21 21 23 23
26 31 31 28 22 22 19 24 27 15 17 19 19 21 21 20 22 20 20 21 21 23 24 22 23 20 21 22 22 23 23 23 22 25 24 23 21 19 20 22 22 22 23
23 27 28 28 25 21 23 28 20 19 22 23 22 24 23 23 24 21 21 21 22 24 22 21 21 21 19 18 21 20 19 18 20 22 17 19 18 20 22 23 24 22 23
22 26 23 22 18 23 26 24 24 20 21 22 23 25 25 24 24 24 23 23 23 24 20 20 21 20 19 18 18 18 19 19 20 16 15 16 20 20 19 18 19 20 24
19 15 13 15 24 23 21 19 16 19 21 24 27 27 26 25 26 26 25 25 24 23 24 20 21 21 20 19 20 17 17 18 19 15 21 23 19 20 17 14 17 23 22
16 11 15 20 20 19 15 15 17 21 25 27 26 25 25 25 25 28 28 28 27 23 24 23 23 21 21 18 17 16 16 17 20 21 21 24 20 18 15 16 15 14 14
10 15 18 16 15 12 13 17 19 21 24 25 24 24 25 25 25 27 29 34 24 23 24 24 25 24 23 23 20 16 17 18 20 19 17 23 17 19 20 19 12 12 14
18 17 13 12 15 15 17 19 21 25 26 26 25 24 23 24 27 28 30 28 28 25 24 23 25 25 23 21 18 16 16 17 21 20 17 13 17 23 21 20 11 15 19
13 11 12 15 18 22 21 21 23 27 30 29 27 26 25 26 27 26 30 31 29 26 23 22 23 23 21 19 18 17 15 16 18 19 8 16 18 18 18 14 13 22 20

GFSMA_850_spd_048.txt.gz
Wind_Speed
19 16 14 12 10 9 8 6 4 0 5 7 9 11 13 13 12 9 7 8 6 1 6 7 7 9 9 9 8 6 5 7 9 12 12 17 10 12 11 13 19 16 14
16 13 13 10 10 10 8 7 3 3 4 6 10 12 11 11 10 8 3 5 2 1 7 9 7 6 7 10 5 6 6 9 9 11 11 10 13 11 11 11 11 13 13
15 13 12 12 11 12 10 9 6 6 5 6 8 10 10 11 10 8 2 2 5 2 6 8 11 14 13 11 13 14 13 11 11 12 12 12 14 11 13 12 10 11 12
15 14 14 13 14 12 11 11 9 6 6 6 7 7 8 9 10 6 1 0 0 1 4 10 13 15 16 17 18 18 16 14 13 13 12 13 12 13 14 14 13 14 14
17 15 14 13 13 14 14 13 11 9 8 6 3 6 9 9 6 5 5 5 4 3 4 12 13 16 18 20 20 18 12 12 13 14 14 13 14 15 15 15 16 16 16
17 16 15 13 14 16 17 15 14 11 5 4 3 5 9 9 7 6 6 6 5 7 9 9 9 10 16 18 18 17 13 12 13 13 13 15 15 16 16 16 17 18 17
18 17 15 16 18 17 17 17 15 10 7 6 3 6 8 8 9 8 8 8 8 9 9 8 8 10 14 19 18 14 16 14 14 14 15 16 17 17 17 18 18 18 19
18 18 19 18 17 17 20 19 16 11 8 9 3 7 6 9 9 11 10 10 10 9 9 9 11 14 14 13 16 21 21 20 21 21 19 19 18 18 18 19 19 20 21
20 22 22 20 20 22 22 21 18 14 9 9 8 6 6 8 11 11 12 10 11 9 11 12 15 15 13 14 16 15 21 22 24 23 23 18 19 20 21 21 21 22 23
25 24 24 23 23 24 23 23 20 16 13 7 11 13 10 10 7 9 9 9 9 12 13 15 15 15 15 15 16 20 24 26 26 27 27 24 23 23 24 25 25 25 25
27 27 27 26 25 26 27 26 24 19 16 11 14 9 10 11 10 11 13 11 13 14 14 14 14 14 13 15 12 16 22 24 28 29 27 29 32 33 30 28 28 29 29
29 28 28 27 27 28 29 28 25 23 19 20 22 11 12 11 11 12 12 15 16 15 14 14 11 12 13 13 14 18 24 27 27 28 32 35 34 32 29 27 27 28 28
29 28 30 31 31 31 31 30 27 24 23 20 15 10 11 12 11 11 12 14 15 14 14 12 13 13 14 13 14 22 26 31 32 32 32 32 32 32 31 31 28 26 26
28 27 30 33 32 33 33 30 28 25 22 15 10 10 11 11 11 11 12 13 15 15 14 14 14 15 14 16 18 26 21 25 32 30 31 32 32 31 31 31 30 26 26
28 29 28 32 33 34 34 32 28 25 15 14 12 14 13 13 12 12 12 12 13 16 16 14 15 15 17 17 20 22 22 23 30 30 30 30 31 30 29 29 27 26 26
30 30 26 28 35 35 34 30 23 18 18 17 17 11 14 14 14 14 13 14 14 17 22 17 18 19 19 20 20 23 22 28 27 30 31 29 28 30 30 31 30 29 28
30 25 29 34 35 34 34 26 24 21 15 19 19 14 16 16 16 16 15 16 18 18 23 22 20 21 21 21 21 21 22 23 23 26 30 28 29 30 31 31 29 27 24
25 28 31 32 37 36 32 26 22 21 23 28 14 16 18 17 19 19 19 19 19 20 22 25 24 23 22 22 22 22 21 21 22 23 28 27 29 29 28 26 24 24 23
21 22 27 29 32 29 27 25 25 20 25 19 18 18 20 20 21 23 22 22 21 22 22 24 26 23 23 22 23 22 21 21 20 23 26 27 28 27 26 26 26 26 25
16 18 22 22 22 26 25 18 18 27 27 21 22 22 23 24 25 25 24 26 23 23 23 24 25 24 23 22 21 22 22 20 21 21 22 22 25 26 28 27 26 24 22
14 15 14 15 19 21 19 23 27 29 24 25 20 22 23 26 28 28 27 26 24 23 23 25 25 24 24 23 21 21 23 21 20 20 19 18 21 22 21 21 21 19 20
7 8 12 12 15 19 23 27 26 22 20 19 21 22 23 27 29 30 31 32 32 29 27 27 27 24 25 23 21 21 21 20 22 17 17 23 20 22 22 19 20 23 21
8 7 9 13 17 22 22 20 16 17 19 20 22 22 23 22 26 27 27 29 33 35 35 31 28 25 25 22 22 21 20 20 22 21 20 23 20 22 19 19 22 25 19
5 10 12 16 15 14 12 12 16 21 21 21 22 23 24 24 23 25 24 26 27 27 28 28 29 25 23 21 20 19 19 20 20 20 18 24 20 20 20 22 23 21 19
9 12 7 7 8 10 16 16 20 23 21 24 24 25 26 25 24 28 28 29 29 30 30 29 32 27 28 28 27 22 19 18 21 19 17 19 16 22 22 21 13 14 19
4 4 6 8 13 16 18 19 20 24 26 28 28 28 29 30 29 30 31 32 32 31 26 27 24 25 26 26 25 24 18 19 19 20 13 17 20 20 24 17 13 22 19

GFSMA_850_spd_051.txt.gz
Wind_Speed
16 14 12 12 12 12 11 9 7 4 2 1 2 5 7 7 7 4 9 8 2 4 7 6 7 7 8 7 7 4 6 6 9 9 10 14 11 12 13 12 16 17 14
16 13 14 12 11 11 10 10 8 5 4 3 2 5 4 4 6 3 2 7 2 4 8 9 6 7 8 10 8 9 9 9 10 11 11 12 12 14 13 13 12 12 13
15 12 12 12 12 12 12 10 9 8 6 5 4 3 3 5 3 3 2 2 8 3 8 9 11 12 13 14 14 13 12 11 12 13 13 11 12 10 12 13 15 14 15
12 14 13 12 12 13 11 11 9 6 6 5 5 3 1 2 6 2 2 3 3 6 8 8 12 14 16 17 18 20 20 18 13 12 11 12 12 13 15 15 15 16 17
17 15 13 13 17 12 13 11 9 9 9 7 6 4 4 4 5 3 6 4 5 6 5 12 14 13 15 17 19 21 19 15 13 13 13 12 13 14 15 16 17 17 17
19 18 14 16 15 13 12 11 11 10 9 8 7 8 6 5 5 6 7 6 7 7 7 8 10 12 13 16 18 18 19 11 11 12 12 13 14 15 16 17 18 18 19
19 19 15 17 15 13 13 14 13 13 9 10 7 9 9 14 14 9 10 10 10 9 9 10 8 7 11 18 18 18 15 16 14 12 13 15 16 17 18 19 19 20 21
18 19 17 16 16 14 16 17 16 11 11 11 8 8 8 8 12 12 12 12 12 11 11 11 10 11 13 12 15 18 21 22 20 18 20 18 18 19 19 20 22 22 23
19 20 20 18 19 18 20 19 19 17 14 12 12 8 8 10 12 14 14 13 13 13 11 11 13 13 15 14 15 15 20 21 20 23 22 23 22 21 22 23 24 25 26
26 24 23 25 24 23 25 23 19 18 18 15 11 10 12 14 8 10 10 13 12 12 11 12 13 14 14 14 15 18 26 27 22 22 22 25 25 23 23 25 27 28 29
25 28 24 27 27 26 26 26 20 22 18 15 15 15 18 11 12 13 15 12 11 9 11 14 15 14 13 13 14 19 23 25 24 24 26 27 28 30 32 31 28 28 28
21 25 29 31 28 27 27 28 26 25 19 20 20 18 12 12 13 15 16 16 16 16 16 15 15 12 12 13 14 21 26 26 27 27 29 30 31 32 31 30 28 27 27
26 26 29 31 27 28 29 27 26 22 27 24 23 18 10 12 14 14 15 15 17 16 16 15 15 15 14 14 15 19 25 30 32 30 30 29 30 31 31 31 30 27 27
29 28 25 26 26 29 30 31 29 30 28 25 21 18 20 13 15 14 14 15 18 18 16 16 14 15 15 16 17 24 28 26 26 32 34 30 31 30 30 30 30 29 27
32 28 28 28 29 31 32 36 35 33 28 26 25 19 15 19 15 14 15 15 16 18 19 16 17 16 16 18 19 19 22 25 29 35 32 30 29 27 28 29 30 30 28
30 31 30 28 31 30 32 36 35 30 30 27 22 14 18 14 13 16 17 17 17 19 23 19 19 18 20 19 22 27 24 28 29 29 33 33 33 31 30 29 30 30 29
24 28 29 29 32 32 34 35 30 31 28 23 16 16 20 14 17 19 20 21 20 20 23 24 22 21 21 21 23 24 22 24 27 27 29 33 35 33 31 29 28 28 27
19 22 24 25 27 32 37 27 29 27 21 17 19 19 18 16 20 21 24 24 24 23 23 28 26 25 24 23 25 25 25 25 26 27 29 33 32 31 29 26 25 25 25
20 21 22 22 26 29 26 22 23 20 19 17 22 19 18 21 23 24 23 26 25 25 26 27 29 26 26 25 25 26 25 24 26 25 26 27 28 30 30 28 27 27 24
15 15 15 16 16 16 16 20 20 20 23 22 25 25 24 24 22 24 25 27 29 29 29 31 31 28 28 27 25 26 26 26 23 24 25 25 25 25 25 26 27 27 25
8 8 8 8 8 9 11 14 18 19 20 23 26 23 22 18 21 27 29 31 31 31 31 29 27 29 29 28 25 25 25 25 26 24 25 22 22 22 22 21 22 22 17
3 1 1 3 2 7 10 14 16 20 23 22 20 16 17 22 25 27 30 32 35 41 41 34 33 32 33 29 28 27 24 23 27 22 22 24 22 23 21 20 21 26 28
5 3 2 2 6 10 14 18 20 19 14 15 17 19 21 22 25 26 29 32 34 33 36 42 40 39 35 31 28 26 22 24 25 24 22 27 23 24 22 20 21 26 30
4 2 4 8 11 10 10 10 12 15 17 18 20 21 23 26 28 30 31 32 31 31 31 30 34 35 30 30 27 23 21 21 23 23 20 26 23 24 22 22 23 24 23
3 6 4 4 4 4 12 15 15 19 20 21 21 23 25 29 31 32 34 36 36 36 33 32 35 36 38 33 31 26 24 21 26 23 19 22 22 21 22 26 20 19 22
2 2 1 2 6 7 11 17 19 21 24 24 23 24 27 31 34 34 37 40 40 38 33 31 32 35 32 36 39 36 33 25 23 24 19 19 18 19 26 22 12 24 22

GFSMA_850_spd_054.txt.gz
Wind_Speed
16 16 12 11 10 7 6 7 9 6 4 3 1 4 5 5 7 3 9 8 4 5 4 4 4 6 5 5 6 4 7 8 9 9 10 11 13 11 14 13 12 15 15
14 12 11 9 9 14 9 11 8 5 1 4 3 1 0 3 4 1 8 7 5 3 7 7 5 5 6 9 9 9 10 11 12 11 10 11 9 10 10 12 13 13 13
15 17 18 15 14 11 10 12 12 7 11 4 8 5 3 3 5 3 4 9 7 5 7 10 12 11 12 13 14 14 12 13 13 13 10 9 9 10 12 12 12 13 13
17 18 14 15 14 15 18 14 17 12 7 6 5 6 5 7 7 5 5 5 6 7 8 9 10 13 16 17 17 17 18 18 16 13 10 10 11 11 12 13 15 15 14
17 17 16 17 19 19 17 17 13 11 11 10 11 10 11 7 11 4 8 10 13 6 6 8 12 13 13 11 13 15 17 18 17 13 11 12 12 13 14 15 15 16 16
24 21 21 18 19 19 15 16 16 13 13 13 9 14 14 14 12 12 13 12 9 13 17 8 11 11 12 13 12 15 17 13 13 11 11 12 13 15 17 17 18 18 18
23 22 20 19 21 18 16 18 18 18 18 17 19 18 16 15 16 15 14 13 12 15 14 13 16 11 10 11 14 18 17 18 18 19 13 12 15 17 18 18 19 19 19
23 23 20 20 21 20 21 23 19 20 19 20 20 13 14 14 20 16 14 16 16 17 15 15 16 12 15 16 17 18 18 21 21 19 18 17 16 16 17 19 20 22 24
22 22 20 23 25 21 25 23 21 19 20 21 22 16 8 11 6 10 16 17 16 17 17 14 16 14 13 16 19 21 22 21 19 19 22 21 20 18 19 20 22 24 25
28 26 24 27 27 26 26 24 23 21 22 22 24 22 22 20 11 8 11 13 18 19 18 19 15 16 19 18 17 22 25 26 25 23 23 23 23 20 21 23 24 25 26
30 28 29 27 29 32 29 28 28 26 24 25 19 21 23 18 12 11 13 10 15 16 12 14 16 19 20 21 19 24 24 26 24 25 26 26 26 25 25 26 24 25 25
29 25 29 30 34 33 31 28 28 28 26 27 28 23 21 20 12 12 14 15 15 10 10 12 20 24 20 15 20 21 24 26 27 28 30 29 26 27 28 27 27 25 25
31 30 27 29 33 34 31 26 28 31 32 32 31 28 24 19 22 20 18 16 19 22 22 23 20 20 20 17 19 23 25 26 27 33 32 33 32 31 31 29 29 28 27
34 31 31 27 28 27 26 26 26 29 34 32 31 29 24 23 23 19 17 20 21 19 23 24 18 19 17 18 21 22 25 29 33 34 35 37 34 30 32 29 29 29 29
29 31 33 30 23 24 27 27 30 33 35 33 29 26 25 20 15 17 22 21 20 24 25 23 22 17 19 20 21 22 26 28 30 33 35 33 34 35 33 33 31 30 31
32 31 32 30 27 25 27 28 31 33 35 34 29 27 21 20 21 17 15 20 25 27 28 22 19 19 19 22 25 25 27 30 32 33 31 31 32 34 36 35 33 31 30
31 22 21 24 25 24 26 31 32 33 34 29 24 17 17 20 19 18 20 23 23 25 27 26 23 25 25 25 23 24 28 30 33 28 28 34 33 35 33 31 31 29 26
22 21 16 17 20 24 27 29 30 29 25 24 18 17 20 21 19 20 23 24 26 27 28 32 30 30 33 27 28 29 29 31 33 33 31 30 30 27 27 30 33 27 25
21 20 18 19 20 23 24 24 23 22 21 18 18 22 19 18 17 21 26 29 28 29 31 32 36 37 36 29 30 31 29 30 28 28 26 23 21 25 31 32 28 27 27
19 20 20 20 18 16 15 17 18 15 14 17 19 19 21 21 23 28 28 25 27 30 29 32 37 39 33 32 32 29 29 29 30 27 25 27 31 27 27 24 24 28 29
16 14 13 11 8 6 6 6 6 9 14 16 18 21 22 21 18 18 21 26 28 31 36 37 35 34 34 31 29 27 23 23 26 22 26 26 28 24 25 29 26 27 28
10 8 7 6 5 3 2 4 8 12 14 18 20 15 12 15 17 20 24 27 29 34 37 38 41 41 38 34 30 29 28 29 30 32 24 29 27 28 30 27 23 24 27
8 6 5 4 2 1 4 8 12 14 14 11 12 14 17 20 20 25 28 32 35 36 36 39 42 41 41 41 41 31 30 31 33 23 24 27 29 33 23 23 24 27 29
8 7 4 3 5 4 1 3 6 8 10 12 14 16 19 21 22 24 29 33 37 37 37 38 40 39 37 35 36 36 31 30 28 31 30 32 28 26 24 25 26 26 25
7 4 3 5 6 2 6 9 11 13 15 18 20 22 24 27 29 32 36 40 43 44 42 40 40 42 39 37 34 31 30 30 34 35 32 27 26 25 23 22 24 27 21
9 8 8 6 3 4 6 12 15 19 21 24 25 27 28 30 33 34 37 41 46 47 43 42 41 38 38 38 38 36 34 33 39 36 33 24 23 24 24 27 20 15 23

GFSMA_850_spd_057.txt.gz
Wind_Speed
20 20 16 14 13 12 11 8 6 4 6 6 4 4 7 3 2 3 6 7 7 4 4 7 8 5 5 6 7 6 7 9 9 9 10 11 9 10 12 13 14 14 15
18 17 14 12 11 12 9 7 6 6 5 5 2 1 1 3 0 2 6 8 6 5 8 8 8 8 8 9 8 9 9 10 10 11 11 11 8 8 11 12 12 13 14
18 16 13 13 11 9 8 10 12 8 6 5 5 3 4 3 2 5 6 8 7 6 5 9 11 11 11 12 15 15 14 14 14 14 12 7 7 8 10 12 14 15 14
21 19 16 16 14 15 15 16 15 13 11 10 8 7 6 5 4 4 8 9 10 9 8 9 11 12 12 15 16 17 16 17 17 14 10 9 8 8 10 11 12 13 14
21 19 20 20 18 19 20 20 18 17 15 11 12 12 12 11 9 10 9 8 12 13 15 15 13 13 13 12 10 12 13 15 16 12 11 10 9 9 11 12 13 14 14
20 20 20 21 23 23 21 21 20 18 16 16 17 17 15 15 13 12 11 11 12 16 17 17 20 19 18 16 12 14 16 16 14 14 14 13 10 11 13 14 15 15 16
23 27 22 25 26 24 23 22 19 18 19 19 18 19 16 17 16 15 15 14 14 16 19 18 18 18 18 17 16 18 18 18 17 16 18 16 15 15 14 14 15 16 18
24 24 27 27 27 25 24 24 22 21 20 24 24 23 19 22 23 22 20 16 16 19 19 21 19 20 20 15 18 18 20 20 20 20 19 20 22 19 15 16 16 17 19
28 26 27 27 29 27 25 27 25 22 22 26 25 24 11 14 14 18 19 17 22 21 21 22 22 22 20 19 17 20 24 24 22 21 23 23 23 22 19 17 18 20 21
29 30 28 27 30 29 27 29 28 27 25 27 27 26 27 20 10 8 13 13 22 24 23 21 21 21 23 22 24 25 26 23 22 25 25 23 25 25 24 21 20 20 21
32 32 30 28 30 32 30 29 31 32 30 26 26 28 27 26 27 19 14 15 16 22 23 22 20 21 25 25 28 26 24 23 26 27 26 24 28 27 27 25 23 23 21
32 33 31 30 32 33 34 34 32 32 31 29 30 30 31 28 27 22 21 19 18 16 20 26 23 22 23 28 27 27 24 27 27 27 27 27 28 30 30 28 24 23 23
33 37 36 33 32 35 34 34 34 33 32 30 31 34 34 25 25 27 23 23 23 24 24 24 20 22 24 23 24 22 23 26 26 29 29 29 30 31 30 31 28 25 25
35 35 36 36 29 27 29 33 32 31 30 31 33 38 33 30 27 24 27 24 26 31 32 34 31 23 21 20 22 24 25 25 26 27 29 30 29 31 33 32 28 29 27
27 35 37 38 29 25 24 25 28 29 29 32 36 32 33 29 26 23 22 27 28 26 31 24 25 25 25 23 24 25 27 28 28 28 29 31 31 32 32 31 30 28 27
32 33 32 28 25 24 25 24 27 27 28 34 33 34 29 25 22 20 24 25 26 27 32 29 29 28 24 24 22 22 25 29 30 31 32 33 33 33 30 29 25 27 28
28 30 26 20 20 25 26 25 27 27 31 32 32 27 23 18 16 21 23 21 22 25 31 33 30 30 30 30 32 31 34 30 32 33 34 35 34 30 27 28 26 27 29
29 27 19 17 16 19 21 21 23 26 26 25 23 20 16 15 19 20 21 22 24 25 30 35 35 36 36 34 34 35 35 35 34 34 36 33 31 28 26 28 27 29 26
23 21 19 19 17 16 18 19 20 19 17 15 14 13 13 15 18 19 18 21 26 29 32 35 38 36 36 34 37 39 38 37 38 35 33 30 29 27 28 28 29 25 25
20 20 20 20 18 18 17 15 11 11 12 11 10 11 13 16 21 20 19 23 26 27 27 30 34 37 34 33 34 38 39 37 38 35 31 27 29 29 30 30 29 26 27
19 19 18 18 18 16 12 10 10 10 8 8 10 13 16 17 12 13 17 19 21 24 27 32 36 39 42 41 39 38 41 37 34 29 30 27 27 31 31 30 29 29 29
18 18 17 14 12 10 10 11 10 7 7 9 11 12 9 10 13 15 18 20 23 27 31 35 39 40 44 43 41 41 39 37 35 34 32 30 28 32 31 30 29 31 21
18 16 14 13 12 11 9 7 6 7 9 9 8 7 9 11 16 21 24 26 27 28 29 32 37 39 41 41 40 42 40 38 37 34 28 32 29 30 29 30 27 19 22
15 14 12 9 7 7 7 7 7 7 7 8 9 13 16 19 22 27 30 34 36 37 40 42 42 44 41 38 39 42 41 37 33 31 32 30 31 31 28 28 20 20 24
13 11 9 10 12 10 8 7 8 7 8 10 13 15 18 20 24 26 30 34 37 39 38 39 42 43 44 44 37 38 40 38 36 34 33 31 33 31 28 23 21 22 24
10 11 13 12 11 9 9 9 9 10 11 12 15 17 19 21 23 25 27 31 35 35 35 37 37 37 36 37 42 40 37 40 36 33 34 31 31 21 22 22 23 18 20

GFSMA_850_spd_060.txt.gz
Wind_Speed
26 19 18 18 17 16 13 10 9 6 4 5 5 3 2 2 1 3 5 6 5 3 5 1 9 9 7 7 9 8 10 10 10 11 11 11 10 8 8 9 10 11 12
30 24 20 18 17 14 12 10 7 4 5 6 6 5 4 3 2 1 2 5 6 5 7 8 11 10 9 9 8 11 11 12 12 13 13 11 9 9 10 12 12 12 11
31 25 19 17 15 14 12 10 10 7 8 7 4 6 6 6 4 5 4 3 4 5 6 8 11 11 11 12 14 15 15 14 14 14 13 10 10 9 11 13 14 15 14
24 22 19 16 15 15 14 12 13 12 10 9 7 8 8 8 8 8 6 5 6 8 9 10 12 12 12 12 15 16 16 15 14 13 13 11 11 8 8 10 13 14 13
25 23 21 18 17 17 17 16 18 16 14 13 12 11 11 11 11 11 9 9 10 10 10 12 14 14 14 15 16 15 14 14 15 15 13 13 10 6 9 11 12 12 12
26 23 21 17 20 20 20 21 21 20 19 17 16 15 15 15 14 14 15 14 13 12 12 13 16 16 18 18 18 18 17 15 17 16 16 17 17 17 17 15 13 12 13
26 24 22 20 24 27 24 24 24 24 23 21 18 19 19 19 21 19 18 19 18 17 16 14 15 16 16 18 18 18 18 18 18 19 19 20 19 20 21 20 18 15 15
26 25 25 24 26 27 25 26 27 27 25 23 23 23 21 23 26 25 25 24 23 21 21 19 19 19 20 20 20 18 17 18 19 22 22 21 23 24 23 22 18 16 17
27 27 26 26 29 29 29 28 29 29 29 25 27 23 12 18 23 27 28 28 25 24 24 24 23 23 24 23 23 21 20 20 21 22 24 23 24 23 24 24 24 22 21
30 31 29 28 28 31 33 32 31 30 30 29 28 30 32 24 14 10 23 25 23 21 27 28 27 25 25 25 25 24 24 23 24 25 25 25 24 22 24 25 27 26 24
35 31 32 30 32 33 33 33 34 33 31 32 32 32 32 34 37 29 19 19 21 28 28 27 26 28 28 28 27 27 27 27 27 24 24 25 26 24 26 27 28 27 22
37 35 33 34 31 33 32 31 32 33 32 34 34 34 30 37 36 36 32 29 27 24 24 28 28 28 30 32 30 29 30 32 30 26 25 26 26 26 27 28 28 25 23
35 37 34 38 37 34 33 30 31 35 32 33 34 34 32 36 38 34 31 28 26 26 29 28 25 26 28 25 23 29 30 29 27 26 27 27 27 27 29 29 28 26 26
35 34 32 32 31 35 35 25 31 35 30 34 34 32 35 36 34 35 31 29 27 27 30 31 37 32 33 36 34 28 28 27 28 29 28 28 27 30 30 30 28 26 25
36 34 32 34 31 31 33 31 32 31 29 32 30 30 31 31 32 28 27 27 25 25 25 31 28 22 21 25 28 29 28 27 28 29 30 31 30 30 32 29 27 28 26
39 32 29 29 28 27 34 33 29 22 26 29 27 28 28 30 27 25 23 21 22 26 30 27 27 24 24 28 28 29 29 27 28 30 33 35 34 34 34 30 27 28 29
34 39 35 35 37 33 28 25 23 26 25 27 29 29 26 25 22 19 18 20 25 26 29 29 29 29 29 28 31 32 33 36 37 40 37 39 39 38 35 32 27 28 29
27 28 28 28 22 20 22 23 24 24 26 24 24 24 23 19 18 17 18 21 22 21 27 30 32 34 33 32 34 35 36 40 41 41 43 41 42 35 37 33 29 30 28
27 30 30 31 22 19 16 19 22 22 20 20 19 18 18 16 15 16 16 18 20 20 25 32 36 37 35 30 31 33 34 35 38 39 42 41 42 41 35 35 32 32 28
38 34 33 26 23 21 21 21 21 19 19 19 18 16 13 13 12 14 18 19 18 19 21 25 29 33 34 34 34 37 40 39 40 37 39 41 41 41 36 34 33 31 31
38 33 25 23 23 23 21 21 19 18 18 17 14 12 11 12 16 15 13 13 17 20 24 28 33 36 38 37 37 38 38 39 41 39 40 39 35 37 35 35 33 35 29
30 27 25 24 23 21 20 19 17 17 15 12 12 13 14 17 16 17 17 18 21 24 27 29 32 34 37 38 42 44 43 41 43 41 33 35 36 40 33 26 30 31 27
27 25 23 21 19 17 17 16 15 14 14 14 15 16 16 16 17 18 19 22 24 26 29 33 37 40 42 42 41 43 40 39 44 42 36 37 32 31 28 28 31 27 27
23 22 20 18 18 17 17 16 15 16 16 16 15 14 14 16 19 23 26 28 29 29 30 32 34 37 38 38 36 40 41 46 46 42 38 39 36 33 26 25 28 27 23
23 21 21 20 19 18 17 18 18 15 13 12 13 14 17 19 21 23 25 26 28 28 27 28 29 30 31 30 26 28 33 29 34 39 37 34 37 31 28 27 27 28 19
22 21 20 18 16 18 19 16 14 13 12 12 13 15 16 16 18 21 24 25 27 28 30 31 32 32 32 31 26 23 24 26 28 33 35 31 37 30 25 28 22 18 17

GFSMA_850_spd_063.txt.gz
Wind_Speed
33 30 27 23 22 19 17 15 13 10 7 6 4 3 3 4 5 5 7 8 7 6 7 8 10 10 9 8 8 8 10 10 10 10 10 10 10 10 12 13 12 11 11
32 28 25 22 18 16 15 12 9 7 5 4 5 5 4 3 2 1 2 3 3 4 5 7 10 12 10 6 7 10 12 11 11 11 11 11 11 13 13 13 14 13 12
29 25 20 17 16 14 13 11 9 7 6 7 6 7 6 5 4 3 2 3 3 3 3 4 8 11 11 11 12 12 13 13 11 11 11 13 12 12 13 14 14 12 12
32 23 23 19 16 15 13 11 9 9 6 7 7 7 8 8 6 7 6 6 6 5 4 6 9 12 13 12 14 15 15 15 13 12 13 14 12 11 11 14 14 13 12
28 27 31 20 17 16 15 13 11 11 11 10 10 10 10 9 8 9 9 9 9 8 7 8 11 13 13 13 14 15 16 17 15 14 14 15 14 15 16 18 19 18 13
30 27 24 20 18 17 16 16 15 14 15 14 13 13 14 13 14 13 13 13 12 12 11 12 13 14 15 14 15 16 17 15 14 15 15 16 18 19 18 20 21 21 20
27 24 22 20 19 19 18 18 18 20 20 19 18 18 19 19 20 19 18 19 18 16 17 17 16 17 17 16 16 17 18 15 13 14 17 20 20 19 20 21 20 21 20
29 24 23 22 19 19 21 23 22 23 23 24 23 22 22 24 27 26 24 24 24 22 22 20 20 20 19 20 19 19 19 16 15 16 20 21 22 21 21 21 21 20 21
27 26 24 24 23 22 23 24 25 28 28 28 28 24 10 17 18 20 24 29 29 28 26 23 23 24 23 23 22 22 22 19 19 21 21 23 24 22 21 22 23 23 24
31 24 26 27 25 24 25 28 29 30 29 31 31 31 31 28 15 11 19 20 26 31 28 24 25 28 27 27 27 27 23 23 22 21 23 25 24 23 23 23 24 25 26
38 30 28 30 29 29 29 29 32 33 34 34 35 34 33 34 38 37 27 29 29 29 30 24 27 31 30 29 29 29 27 27 26 26 27 27 25 24 24 25 26 25 27
44 39 40 35 32 32 32 32 33 34 36 36 37 34 36 34 29 32 32 35 34 26 28 31 24 28 29 31 30 30 29 29 27 27 30 30 27 26 27 26 28 27 26
44 45 44 38 36 34 33 33 35 37 36 34 36 35 35 35 33 34 30 34 31 33 32 29 26 26 30 33 31 32 30 26 27 32 31 31 29 29 29 29 29 28 28
43 42 38 38 38 37 35 39 38 35 21 31 32 32 35 37 37 30 28 30 30 30 30 29 28 28 27 30 35 31 32 36 33 30 32 32 31 31 32 32 32 31 31
42 38 35 34 34 36 38 37 30 28 27 32 31 30 35 32 25 27 26 27 28 26 23 25 25 26 31 28 20 21 25 28 30 30 30 33 33 33 34 35 35 34 34
41 41 37 35 35 37 38 37 36 39 37 32 27 28 30 25 25 23 24 27 26 25 25 23 27 30 29 24 24 26 27 28 29 28 29 32 34 36 38 39 41 39 35
41 36 36 33 33 35 35 37 38 33 30 26 24 26 27 27 23 24 25 24 22 21 24 29 31 28 25 26 28 29 31 32 32 30 32 35 39 42 42 42 45 44 36
44 35 39 35 37 39 38 35 27 23 23 26 27 26 25 22 23 23 20 19 18 20 23 26 25 26 27 28 30 32 32 31 33 33 32 35 38 39 40 42 44 48 42
44 42 38 51 31 29 31 23 20 22 24 24 25 21 21 22 20 19 18 19 21 21 23 23 25 27 29 27 29 31 33 35 35 35 37 40 40 41 41 41 42 43 53
41 37 34 37 33 31 22 22 20 22 24 24 21 19 20 20 18 18 18 21 21 25 18 20 24 27 29 30 32 35 39 39 41 40 42 42 41 42 42 42 40 40 52
42 37 35 36 31 28 24 24 24 24 25 22 22 22 20 18 19 20 22 23 24 21 22 24 26 29 32 35 36 37 41 46 49 47 49 51 46 46 41 38 38 39 37
42 38 33 31 33 27 24 25 27 26 24 22 21 20 21 20 18 20 23 20 20 21 23 26 29 32 35 37 39 40 41 44 49 43 36 43 40 40 39 35 37 40 27
41 31 29 31 26 25 26 26 24 23 21 21 21 21 19 19 21 20 19 19 20 23 26 30 33 34 35 33 35 37 36 37 40 40 34 45 39 42 36 36 35 25 24
30 30 30 25 24 23 24 24 23 22 21 19 18 17 19 18 18 19 20 22 23 25 27 28 29 29 29 30 31 32 33 38 41 40 33 34 35 39 37 33 34 25 23
28 25 24 23 22 22 21 21 20 18 18 19 18 18 17 17 19 20 23 23 24 25 25 25 25 25 26 26 26 29 32 33 37 42 34 32 33 34 35 36 30 24 26
27 25 24 21 22 22 21 19 18 16 16 15 15 15 16 18 19 21 22 23 24 24 24 24 24 24 25 25 25 24 26 29 32 38 32 29 36 29 30 32 29 25 31

GFSMA_850_spd_066.txt.gz
Wind_Speed
36 33 30 28 26 22 19 18 16 13 12 11 9 6 7 8 9 9 8 9 8 8 8 9 11 11 10 8 8 8 9 9 10 10 11 11 13 12 13 13 12 12 11
36 33 31 29 26 23 18 16 13 11 9 8 7 6 5 5 5 6 5 5 4 4 5 7 10 11 10 7 5 7 9 11 11 9 9 10 11 12 13 13 13 12 11
35 32 29 26 24 21 18 15 13 10 7 6 6 5 4 4 3 3 1 1 1 2 2 3 6 7 7 7 8 9 11 11 10 9 9 10 10 12 16 15 15 15 15
33 29 26 24 22 16 13 12 10 8 6 5 4 4 4 5 5 3 4 4 3 4 4 3 4 6 7 8 11 11 12 13 11 10 9 11 14 15 16 17 17 16 16
32 28 26 23 13 13 13 11 8 9 7 5 6 6 6 6 7 7 8 7 7 8 7 7 7 7 8 9 10 11 13 13 12 11 13 11 14 15 16 16 16 17 17
31 31 21 13 19 17 15 14 12 9 9 9 9 10 11 11 11 11 11 12 12 11 11 10 11 10 10 10 10 11 12 12 14 16 16 11 14 16 15 16 17 17 17
30 24 24 26 27 20 18 15 13 14 14 14 15 15 16 16 17 17 17 16 16 16 15 15 15 14 14 14 12 13 13 14 13 15 18 15 17 18 17 18 18 18 18
34 29 29 27 25 23 20 18 17 18 18 19 19 19 19 21 23 22 22 23 22 22 21 20 19 17 16 17 16 15 17 15 15 15 19 21 20 21 20 20 20 19 19
33 32 28 26 26 20 18 18 19 20 21 21 23 20 9 13 17 17 18 19 23 26 25 24 23 21 19 21 21 21 19 19 18 19 21 22 24 24 23 22 22 21 22
32 32 31 25 23 20 20 20 21 23 22 23 25 28 30 31 19 14 15 15 19 22 25 25 27 27 22 23 24 24 23 23 23 24 23 25 26 25 25 25 23 24 25
40 37 31 28 24 23 24 26 25 26 26 28 30 32 33 34 35 35 31 27 27 24 24 25 26 27 26 21 25 27 28 28 28 28 24 26 27 27 27 26 25 26 27
46 44 41 34 26 24 26 29 29 29 31 31 33 35 37 32 33 36 39 32 27 27 26 28 23 25 27 27 24 27 29 30 31 30 29 27 27 26 28 28 29 28 28
44 48 46 42 37 32 30 32 32 31 34 36 32 29 37 37 38 38 38 32 26 23 24 23 24 26 26 23 21 25 26 28 30 30 28 27 30 30 32 32 32 28 27
45 41 48 49 45 38 36 39 37 37 37 37 29 22 23 29 31 35 37 35 27 21 24 24 23 22 20 19 22 26 32 31 23 25 29 29 30 32 33 34 34 34 34
44 42 44 47 43 38 39 35 34 35 34 30 29 28 27 30 31 31 31 25 26 22 21 21 19 19 20 21 26 31 26 21 21 22 25 27 27 30 33 35 37 38 38
41 42 44 43 41 42 39 36 35 34 31 28 33 34 38 34 29 26 30 23 22 21 22 19 17 20 22 26 26 28 22 23 25 26 28 28 28 30 32 35 38 42 45
41 41 41 43 43 41 39 38 34 32 36 38 41 34 34 26 27 26 26 24 23 23 24 22 24 23 25 26 24 22 24 27 27 27 27 28 30 31 32 36 39 41 42
40 42 43 41 41 35 35 28 30 32 34 35 34 34 28 25 29 28 25 23 24 22 22 23 23 24 28 22 22 26 26 27 28 28 29 31 33 35 38 39 40 39 39
45 46 50 44 43 37 38 40 33 31 31 24 24 27 27 29 26 25 22 23 22 20 21 21 22 27 25 23 24 25 26 27 29 31 34 36 38 41 43 45 46 46 43
37 43 41 36 37 38 38 34 33 28 23 22 23 26 28 24 21 22 22 22 22 22 21 23 25 21 21 22 25 29 33 33 37 37 38 39 40 41 42 45 46 46 44
37 43 43 42 40 38 31 31 32 26 25 25 26 25 23 22 22 24 23 22 20 19 23 19 18 19 22 25 28 32 37 39 40 39 39 39 42 43 42 41 39 38 36
45 43 45 43 35 35 39 35 27 29 27 27 27 26 23 24 24 23 19 19 20 19 17 18 20 23 25 27 29 32 34 36 41 41 40 44 40 40 38 37 34 31 31
50 47 43 40 35 29 29 29 28 27 27 26 24 23 23 22 21 19 18 19 17 17 18 20 22 23 25 26 30 31 31 34 37 40 40 48 42 42 38 37 32 27 28
41 41 37 31 29 29 31 30 27 26 23 22 21 21 20 19 17 17 17 16 17 18 20 20 21 22 24 24 25 27 30 33 37 37 34 43 41 42 36 35 36 29 27
32 30 28 26 26 28 29 27 25 23 22 21 21 20 19 18 19 16 16 17 18 18 18 20 21 21 21 21 22 25 26 30 38 39 38 33 34 36 38 36 35 23 22
27 27 28 26 27 26 24 23 21 19 18 19 19 19 19 17 16 16 17 16 17 18 19 19 19 19 20 20 20 22 25 28 31 40 21 31 41 33 32 34 31 32 26

GFSMA_850_spd_069.txt.gz
Wind_Speed
34 34 31 28 27 26 24 23 19 19 17 16 14 11 11 11 11 12 12 11 10 11 10 9 11 11 10 9 9 9 8 7 7 8 9 11 15 17 17 17 16 14 14
35 35 31 29 27 24 22 19 18 16 14 13 13 12 9 8 8 8 8 6 6 6 5 7 8 9 9 8 6 7 7 8 7 7 7 10 13 16 18 17 15 14 14
35 33 32 30 26 23 20 20 17 15 13 13 10 9 8 7 5 5 5 4 3 2 1 2 4 6 6 5 5 6 6 7 7 7 7 9 11 14 15 16 14 14 14
35 34 34 31 27 23 21 20 15 14 13 11 9 7 6 6 6 6 4 4 4 3 3 4 3 2 4 5 5 6 7 8 9 10 8 8 9 12 14 14 14 14 14
37 34 33 32 28 23 21 18 14 12 11 11 8 6 5 6 7 8 7 7 6 6 6 7 7 7 5 5 6 7 8 11 12 11 10 8 8 11 13 13 14 14 14
38 35 33 31 26 24 21 17 13 13 11 9 8 7 7 8 10 10 10 10 11 11 10 10 11 11 10 8 7 9 9 11 13 14 14 11 10 12 14 15 15 15 14
38 35 32 28 27 23 16 12 15 13 12 13 11 11 12 12 14 15 16 16 15 15 15 14 15 15 14 12 11 11 12 12 13 15 17 16 15 16 17 18 18 16 15
39 34 32 30 21 18 16 22 18 15 14 15 16 14 11 14 18 18 20 20 19 19 20 19 19 19 18 16 15 15 16 15 14 15 17 20 22 21 21 21 19 18 17
38 32 32 26 22 18 26 24 20 17 14 15 17 17 7 9 11 13 13 17 18 19 20 23 23 23 22 21 20 18 18 19 19 18 18 20 23 24 24 24 21 20 20
36 34 34 25 28 28 27 22 22 18 15 18 19 23 23 25 15 12 17 16 18 14 18 20 22 26 24 25 24 22 20 22 24 23 21 20 21 27 27 24 23 21 22
40 37 37 34 29 31 25 26 25 20 18 19 22 25 26 29 31 29 20 21 25 23 21 21 20 22 24 25 25 25 25 24 26 28 27 25 26 24 28 28 26 24 22
40 37 39 37 33 34 31 28 25 22 21 23 26 29 30 27 27 28 28 32 31 29 26 19 18 19 18 21 25 27 29 27 27 31 32 33 33 32 29 29 27 28 27
41 42 40 38 38 35 32 28 23 21 23 27 29 30 28 24 29 37 29 36 33 29 27 22 20 17 16 21 25 28 26 25 27 30 33 35 33 35 30 31 35 30 33
47 45 45 44 44 43 40 36 33 31 33 33 34 32 28 25 20 25 26 31 30 25 28 21 18 17 18 21 22 22 22 24 27 30 28 26 27 30 30 31 33 35 35
48 49 46 43 45 45 45 46 44 40 37 35 31 28 31 28 25 25 26 26 24 23 23 22 19 17 17 18 21 22 23 24 23 22 22 24 26 27 30 32 33 36 38
51 51 51 48 49 46 42 44 44 43 40 39 34 30 26 28 29 30 31 26 23 29 25 18 17 17 18 19 24 27 25 23 23 23 24 26 28 30 32 33 34 36 38
48 50 51 49 45 42 41 41 43 41 43 43 39 33 32 37 36 34 29 27 27 24 24 22 20 19 20 22 24 25 27 25 25 26 26 27 28 29 30 32 35 36 39
38 37 38 39 40 39 40 42 43 41 35 38 31 28 30 34 32 32 30 27 27 25 24 23 21 21 22 23 25 23 20 22 23 23 25 27 29 31 33 36 38 41 44
43 40 37 36 37 40 41 40 39 43 33 36 31 31 28 27 28 25 25 28 24 21 22 24 22 21 22 25 20 17 18 21 22 24 27 29 29 30 31 33 35 38 42
41 39 40 36 40 47 40 39 37 36 37 34 29 22 23 27 26 24 26 22 23 25 24 22 20 21 23 16 17 19 22 24 25 24 27 27 27 29 31 34 37 39 40
44 42 34 36 39 37 33 29 26 31 31 32 26 24 26 26 27 25 24 24 24 25 23 20 20 21 17 16 18 21 24 25 25 24 25 27 32 33 34 35 36 37 37
44 43 43 39 35 36 32 32 32 34 31 31 30 27 29 29 29 26 23 24 23 21 21 20 19 17 18 20 21 21 23 22 17 25 29 32 33 35 36 36 37 36 33
42 44 43 43 42 39 34 36 38 30 30 31 31 31 31 29 24 22 23 21 20 19 18 16 16 18 19 20 21 22 22 23 23 26 31 34 33 35 31 33 37 34 30
35 35 35 37 40 39 39 35 30 28 29 32 29 29 27 25 22 21 20 19 17 16 15 16 17 18 18 19 20 21 23 25 27 27 28 32 30 34 34 35 39 31 24
25 26 30 30 32 32 30 31 29 30 30 28 25 24 23 21 19 17 15 14 14 15 15 16 17 17 17 19 18 20 21 25 27 26 29 23 25 32 40 36 24 21 25
25 27 28 28 26 27 29 30 29 29 29 29 27 23 21 18 15 13 13 13 13 14 14 15 15 15 16 15 18 20 23 25 25 25 14 25 28 21 23 32 19 23 23

GFSMA_850_spd_072.txt.gz
Wind_Speed
37 36 28 26 25 23 22 20 16 18 18 17 15 15 13 13 15 13 13 14 12 11 10 10 10 9 8 9 9 8 8 9 9 10 9 11 13 13 13 14 14 14 13
37 34 32 26 25 24 22 19 19 18 17 15 15 14 12 12 12 13 11 12 11 9 9 6 6 7 7 7 6 5 5 5 7 8 7 8 10 11 12 13 13 14 13
33 33 32 28 23 22 21 20 18 17 16 15 14 15 12 11 10 10 10 8 8 8 7 7 5 2 3 3 2 3 3 5 6 6 6 7 8 9 10 12 12 12 13
31 30 32 28 24 25 23 20 20 20 16 15 14 13 11 10 10 9 10 10 9 9 6 5 5 4 2 2 2 2 2 4 5 6 6 7 7 8 10 12 12 12 12
32 32 30 24 30 28 22 22 22 17 17 15 14 12 11 10 10 10 10 9 12 12 11 11 9 8 8 6 5 6 6 6 5 6 6 7 9 9 10 12 13 14 14
35 36 31 32 31 26 25 25 23 17 16 16 12 11 10 9 10 10 11 11 13 13 13 13 13 14 14 12 10 9 10 11 10 9 9 8 9 12 13 13 14 15 15
39 37 29 33 32 29 26 23 21 19 17 16 12 11 11 11 11 13 14 14 15 15 15 15 15 13 17 16 14 13 13 14 15 15 14 14 12 13 14 15 16 17 17
40 41 38 35 32 30 22 22 22 18 18 18 13 10 8 11 16 18 17 18 19 17 19 19 19 19 17 16 18 17 17 16 16 19 19 20 20 20 19 19 19 20 20
40 40 37 36 34 28 25 24 19 18 16 16 17 11 7 10 8 10 13 17 18 20 22 20 22 23 23 23 22 22 21 20 19 19 20 23 25 26 26 26 26 25 23
41 39 38 35 32 28 29 22 20 22 18 17 18 21 19 13 11 9 11 15 17 19 19 22 22 24 24 24 26 26 27 23 23 23 24 23 23 25 27 30 30 33 29
39 39 40 38 34 32 29 24 27 27 22 20 21 17 20 21 22 19 21 18 18 21 23 23 21 21 21 22 28 29 28 26 26 25 28 28 28 29 27 27 31 31 29
50 45 42 38 34 36 31 28 27 26 29 27 23 21 18 15 15 17 20 24 25 21 26 27 24 22 23 24 27 28 25 27 28 28 29 30 31 34 35 32 29 33 33
51 54 49 42 42 44 36 35 33 30 33 28 26 20 20 21 20 22 25 29 29 30 34 33 30 25 27 23 24 24 25 26 29 29 28 30 31 34 37 40 38 37 34
45 58 55 49 52 45 43 40 38 38 31 29 27 26 25 24 23 29 27 25 27 30 31 28 23 23 22 22 25 23 25 27 26 26 28 29 32 36 35 32 32 35 35
44 48 48 48 46 44 44 38 40 40 36 35 35 33 27 26 26 30 28 28 27 23 27 20 23 23 24 23 26 22 22 25 26 28 30 32 32 30 30 31 33 34 36
38 38 46 47 46 41 37 37 39 37 34 35 32 31 31 32 34 33 34 34 33 34 24 20 22 24 22 26 24 24 24 26 29 29 29 29 27 28 29 31 33 35 37
42 44 48 45 41 42 41 38 38 37 36 37 35 40 41 39 41 38 35 35 40 35 32 24 24 24 24 23 25 24 26 28 24 27 26 25 26 26 27 29 32 34 37
46 45 43 42 44 46 47 42 40 39 40 36 36 42 40 30 31 35 30 42 45 35 31 30 29 26 23 23 26 27 25 23 20 20 23 22 24 26 29 30 32 33 35
41 40 41 44 47 53 58 57 52 46 35 37 37 38 38 37 37 39 40 42 36 31 30 29 24 23 23 27 24 23 23 18 17 21 23 24 25 26 25 26 26 29 32
43 45 48 50 49 50 50 42 44 43 45 49 49 50 48 40 42 50 43 35 30 32 29 26 23 24 23 22 20 16 13 14 15 19 23 22 23 22 23 26 26 29 32
44 42 42 44 43 44 44 42 42 46 44 44 38 38 38 39 36 32 33 32 32 32 32 25 25 23 21 19 16 11 13 14 16 19 20 18 20 23 26 26 30 32 34
38 36 37 37 37 42 39 40 44 36 35 33 33 35 35 37 34 32 32 32 34 34 29 26 23 20 17 14 13 13 12 12 13 12 18 19 22 24 23 24 29 32 34
34 36 34 33 35 35 39 35 32 31 33 34 34 39 35 37 38 36 36 32 29 28 24 22 20 18 16 15 15 15 14 13 14 15 18 20 19 21 20 23 30 33 35
30 32 34 34 36 39 36 33 34 33 36 36 38 35 35 37 37 36 32 31 26 23 21 19 17 17 17 18 17 17 16 17 17 17 16 20 16 21 22 23 31 29 29
29 29 30 29 30 27 27 28 30 33 34 32 33 34 34 35 33 28 24 20 19 17 15 14 16 17 16 17 18 17 15 12 16 15 16 20 16 22 25 27 16 20 25
21 21 25 25 26 28 28 28 28 27 29 32 31 30 27 27 25 22 20 18 16 14 13 15 15 15 15 16 16 17 16 15 14 14 8 17 17 19 18 17 16 23 17

GFSMA_850_spd_078.txt.gz
Wind_Speed
32 28 27 27 27 28 27 28 23 18 19 17 13 19 15 13 11 13 18 16 15 14 14 13 12 12 12 11 11 11 11 10 9 8 7 7 7 7 7 8 8 8 9
36 28 26 28 29 29 30 24 20 19 17 16 18 20 16 12 9 11 17 17 16 14 13 13 13 12 11 10 10 10 9 8 8 7 6 5 5 5 5 6 7 7 8
35 32 32 32 27 27 28 21 20 21 18 15 18 17 17 14 13 9 15 17 16 14 12 11 11 10 9 7 7 7 6 5 5 5 5 4 3 3 4 5 6 7 7
33 35 31 32 28 23 25 21 21 19 20 18 18 19 17 18 13 12 11 14 15 14 12 11 11 9 8 6 6 5 4 4 3 2 1 1 1 1 1 2 3 4 5
29 30 30 26 29 28 25 23 22 22 21 19 18 17 16 17 20 14 9 10 9 11 12 11 9 8 9 8 7 8 8 7 6 6 5 4 3 2 2 2 3 4 6
38 36 35 30 31 33 29 22 24 23 22 20 17 18 17 15 16 18 19 16 14 12 10 11 12 12 12 13 12 12 11 11 11 10 9 9 8 7 7 7 7 8 9
33 33 32 35 32 30 30 26 25 23 20 22 19 19 20 22 21 22 21 23 22 19 19 16 17 17 15 14 14 14 15 16 17 15 14 14 14 13 13 12 11 12 12
37 39 33 36 36 32 31 27 24 24 22 25 22 21 13 17 21 19 20 21 22 22 21 26 23 21 20 17 17 17 17 18 20 21 22 20 20 19 18 18 17 17 18
36 37 30 34 33 29 29 29 29 29 28 28 26 16 9 9 13 20 23 22 22 23 24 23 25 25 23 24 22 23 23 22 22 22 24 25 26 24 23 23 22 22 23
38 39 35 37 37 33 35 34 34 32 28 27 28 28 14 10 8 4 14 19 26 25 23 25 26 26 29 32 31 29 26 26 25 27 28 28 28 28 27 27 26 25 26
40 41 37 39 32 37 37 38 36 34 28 25 23 28 24 20 16 13 17 17 19 23 28 26 28 31 28 27 30 31 33 30 29 29 29 30 30 30 30 29 29 29 29
46 39 37 38 36 36 38 36 35 32 29 25 24 26 22 20 19 18 23 25 23 25 25 26 28 30 31 31 29 29 30 34 32 32 30 32 32 32 32 33 33 35 34
52 48 43 47 43 38 36 37 36 32 30 28 28 29 25 25 27 27 23 23 23 22 22 28 32 32 31 33 32 30 32 33 32 32 29 30 32 33 33 34 35 36 35
58 55 52 49 53 46 39 42 40 39 34 33 30 30 34 31 33 34 28 27 27 26 29 32 33 34 30 31 28 30 34 33 35 32 31 31 31 31 33 33 33 31 32
51 61 60 56 55 50 45 45 45 45 44 42 39 35 37 37 36 34 32 30 29 29 31 33 33 30 29 24 23 28 30 32 34 32 30 30 31 31 31 31 31 32 33
43 50 64 62 60 56 51 48 50 50 50 49 46 45 40 39 38 40 39 37 35 36 38 33 28 33 29 28 30 28 30 33 33 32 30 30 30 30 30 32 33 33 34
41 42 53 63 63 62 56 51 53 54 57 56 50 48 46 45 42 45 43 40 40 38 43 42 38 37 37 33 34 28 35 36 35 35 33 30 31 32 33 33 32 33 31
42 41 40 47 53 56 62 60 56 54 56 57 52 51 54 52 52 47 45 45 44 44 45 43 41 41 35 34 39 37 37 41 37 35 33 32 33 30 32 31 31 30 30
39 40 41 48 50 51 59 62 62 61 58 53 49 46 46 47 47 46 46 47 47 48 46 44 40 41 41 46 48 47 44 39 37 36 30 29 30 30 31 32 30 29 30
40 39 40 41 42 44 47 54 55 53 53 58 54 49 49 47 44 44 45 47 48 48 42 49 51 49 48 44 43 42 43 42 41 36 30 28 25 26 27 27 28 28 27
42 42 44 45 46 47 48 49 51 53 54 54 53 51 49 50 52 47 49 47 49 46 47 49 51 50 47 42 44 41 43 43 37 26 22 21 24 25 26 26 25 23 24
46 47 47 47 47 50 49 47 48 48 47 46 47 48 49 51 52 54 52 52 52 50 59 51 53 51 49 49 45 43 43 34 25 23 22 25 27 24 24 26 25 23 25
45 49 49 49 51 51 51 51 51 50 46 46 50 52 54 54 52 52 52 52 55 55 52 53 45 40 39 38 38 33 26 24 20 14 12 21 24 27 26 27 25 21 27
46 47 49 48 48 50 48 48 47 46 48 50 51 52 52 53 51 46 45 47 50 46 39 44 39 35 30 28 25 21 20 21 19 14 19 30 28 28 25 26 26 28 29
43 46 44 43 46 45 44 44 41 43 45 49 51 47 44 43 43 43 45 41 37 32 28 26 19 19 20 19 17 15 12 5 16 18 18 23 25 26 27 30 30 26 27
40 38 38 41 42 44 45 43 41 42 42 44 44 46 44 47 48 46 38 31 27 22 20 19 19 18 14 10 5 2 9 13 16 17 17 20 22 23 30 27 22 21 22

GFSMA_850_spd_081.txt.gz
Wind_Speed
33 32 29 29 29 28 29 30 33 37 33 26 28 14 11 12 8 8 19 18 17 16 15 15 14 14 13 13 13 13 12 11 10 9 9 9 8 7 7 7 7 8 8
35 37 33 33 31 30 30 30 32 37 25 23 26 19 11 13 8 8 18 18 16 15 15 15 14 14 13 13 12 12 11 11 10 9 9 8 7 7 6 6 6 6 6
36 35 35 33 33 32 32 30 29 26 24 19 25 12 14 12 10 10 16 17 17 16 15 15 14 14 13 13 12 12 11 10 10 8 7 7 6 4 4 4 4 3 4
39 37 36 34 34 34 32 30 27 24 23 21 31 17 13 12 10 8 15 16 17 16 15 14 13 12 12 11 10 10 9 9 8 7 6 5 4 4 4 2 1 2 2
40 37 37 35 35 37 30 30 28 29 24 24 27 21 19 14 13 12 11 14 14 14 14 14 13 12 11 10 10 10 10 8 8 7 6 6 6 5 5 4 3 2 2
39 37 36 34 32 35 29 32 25 27 24 23 23 23 21 17 15 15 13 14 13 13 13 14 12 13 11 11 12 12 11 11 11 11 10 9 8 8 8 8 6 5 5
39 38 36 38 35 34 34 31 27 28 27 25 23 21 20 20 19 19 16 16 16 16 15 15 15 15 15 13 15 17 17 16 14 14 13 13 12 12 12 11 11 11 10
38 41 39 37 36 35 32 32 31 31 29 26 25 25 24 21 21 21 22 22 20 21 21 19 19 19 19 18 17 17 19 19 17 20 18 16 15 15 16 16 17 16 16
44 43 44 36 32 40 36 33 34 34 33 30 27 23 14 14 26 28 27 28 27 26 25 25 25 26 25 24 22 22 23 22 22 23 23 24 21 20 21 21 21 21 21
39 40 32 34 29 33 36 37 34 36 32 34 31 30 20 14 12 12 26 26 25 24 26 29 30 28 27 27 26 26 27 26 26 27 26 27 29 28 25 25 24 24 23
42 40 39 37 36 37 37 38 36 36 33 34 35 35 28 19 14 8 8 16 21 22 26 28 28 30 30 29 30 30 29 31 32 32 29 29 29 30 31 29 28 27 25
44 39 38 39 38 38 38 37 37 37 35 33 33 37 34 28 22 19 17 18 20 23 24 26 27 29 30 31 34 36 35 34 34 34 33 34 30 30 32 33 33 31 30
48 44 40 42 40 38 41 38 39 38 36 35 31 31 30 32 26 20 20 22 24 25 27 30 27 27 30 31 32 33 36 37 35 34 36 34 34 33 32 35 35 35 35
51 49 43 46 43 43 40 37 37 39 36 36 33 35 33 31 29 29 27 28 30 32 30 34 32 31 31 32 33 33 36 37 38 39 37 36 35 34 33 34 35 35 35
50 50 50 49 48 47 43 39 38 38 38 40 42 39 36 34 32 34 35 34 33 32 37 38 36 33 34 34 31 31 34 33 30 37 38 37 35 34 35 35 34 33 33
45 52 51 54 51 48 45 43 43 41 43 43 43 43 40 39 36 36 38 38 38 37 38 40 40 39 39 40 37 33 32 32 29 30 32 32 34 35 35 34 33 32 31
39 46 50 57 59 60 55 52 50 51 49 50 50 49 48 47 46 43 42 40 41 41 44 47 46 44 42 46 45 42 38 38 33 30 33 34 34 36 35 34 31 31 32
38 39 43 52 58 64 61 62 58 55 55 55 55 54 55 54 53 50 47 48 48 49 50 50 51 49 47 46 47 44 40 40 38 37 38 36 38 38 34 32 31 32 32
40 38 40 44 50 53 59 67 67 63 60 60 56 58 59 59 57 55 54 54 55 53 50 51 50 49 47 47 45 44 47 43 45 47 41 40 38 36 32 28 29 30 31
43 43 44 44 45 47 48 55 64 66 64 64 65 61 60 60 60 58 56 53 51 49 49 50 50 47 45 44 40 45 49 44 48 46 40 38 36 30 25 24 24 25 26
43 44 45 46 45 47 49 48 50 55 57 58 60 62 61 61 61 59 56 54 52 53 47 44 47 45 47 46 50 51 50 47 43 46 42 36 31 27 24 25 27 24 26
44 44 47 47 48 48 48 48 47 48 50 52 54 56 57 56 54 53 53 52 52 53 53 51 49 48 53 52 50 49 43 40 38 41 39 34 32 28 26 20 22 24 24
47 50 49 48 50 50 49 49 47 47 48 51 52 54 55 55 54 52 49 50 54 54 53 51 52 52 54 53 51 48 44 41 38 38 35 32 29 26 16 20 24 24 27
48 50 51 53 52 54 52 51 49 48 49 51 50 52 52 50 48 48 49 51 53 55 54 50 50 51 49 50 44 37 33 31 29 26 23 21 18 14 18 24 27 27 26
48 49 49 50 52 53 54 52 48 49 50 51 53 53 51 50 49 52 51 50 49 49 49 49 44 33 30 27 25 23 27 25 19 13 12 13 13 16 23 23 23 25 28
46 46 46 46 47 48 49 50 50 49 51 55 57 59 58 57 53 53 54 51 48 45 38 28 21 23 21 20 20 18 17 12 10 5 9 13 18 18 19 19 23 23 25

GFSMA_850_spd_084.txt.gz
Wind_Speed
42 39 34 31 32 36 36 39 44 40 35 22 20 21 18 13 8 5 15 17 17 17 17 17 16 15 15 14 13 12 11 11 10 9 8 8 8 7 7 7 7 7 6
40 35 32 33 35 35 35 39 43 41 37 24 22 20 15 13 7 6 17 18 17 16 16 16 16 15 14 13 12 12 11 10 10 9 9 9 8 7 6 6 6 6 5
36 35 36 36 35 35 37 40 42 40 37 24 20 18 15 14 9 7 17 18 17 16 16 16 15 15 14 13 13 12 11 11 10 10 9 8 8 7 7 7 6 4 3
37 30 34 34 36 36 37 40 43 41 37 29 20 17 17 15 11 9 16 17 17 18 17 16 15 14 14 14 13 12 11 10 9 8 9 8 7 7 6 6 5 3 1
36 36 35 33 34 36 37 40 45 41 36 29 21 18 18 15 11 10 16 17 17 17 16 15 14 14 13 13 12 12 12 11 10 11 8 8 8 8 8 7 6 4 3
39 38 37 35 37 39 38 38 39 37 34 28 24 19 18 14 14 11 13 15 17 16 14 14 14 14 13 12 12 13 12 13 14 11 12 13 11 10 10 10 9 8 7
40 39 39 37 38 41 37 36 33 30 27 28 28 20 17 15 14 13 13 13 16 15 14 14 16 15 15 14 15 16 16 17 16 15 17 16 14 13 13 13 13 12 11
39 39 37 38 38 42 37 36 32 31 29 31 34 29 21 17 18 18 17 18 17 17 17 16 16 17 17 18 19 18 18 20 19 20 19 18 16 15 15 16 15 16 15
40 42 38 39 39 41 36 35 34 33 34 34 31 28 15 11 22 24 25 23 21 21 20 19 20 21 21 21 21 22 22 21 23 22 23 25 20 21 22 21 20 20 19
37 37 38 37 40 39 38 35 35 35 35 37 35 31 25 16 16 16 29 29 26 26 24 24 24 25 24 25 24 26 25 25 25 27 27 28 29 29 28 27 26 24 25
38 39 39 41 39 40 40 38 39 38 38 38 37 35 30 23 17 18 21 32 33 31 27 27 28 27 27 27 28 27 26 26 28 29 30 32 32 33 33 33 31 29 29
42 40 37 39 37 38 42 38 39 36 38 39 39 40 38 33 24 22 17 14 22 20 20 25 27 25 27 28 28 28 28 29 30 32 34 35 36 35 35 35 35 34 33
46 45 43 44 40 38 36 39 40 43 42 39 40 42 39 38 32 27 21 20 19 17 20 23 27 29 28 29 30 29 29 29 31 33 35 38 38 38 35 36 37 36 36
43 45 47 45 42 38 38 38 42 43 41 40 41 40 41 38 36 36 32 26 24 23 28 30 30 31 30 30 31 30 30 29 32 35 39 40 41 41 39 40 40 39 38
44 47 47 48 46 44 42 42 44 44 42 40 39 41 41 38 35 33 35 33 32 32 35 39 37 37 36 35 34 33 33 34 35 35 38 41 42 44 45 43 43 41 40
36 43 48 49 48 46 45 43 43 43 44 42 39 40 42 39 37 41 40 40 39 36 36 39 42 38 34 37 36 37 39 38 38 38 38 38 41 45 46 47 43 43 40
36 39 45 51 53 50 48 49 48 47 46 45 45 47 48 49 48 46 47 44 43 43 42 44 43 43 39 39 41 43 44 45 43 41 37 39 46 37 38 42 42 43 40
36 37 40 48 56 55 54 54 55 55 54 53 51 51 52 50 50 49 48 50 48 50 48 47 48 49 49 48 47 45 44 44 46 43 41 46 44 44 46 44 43 41 40
38 38 39 42 47 53 58 59 60 59 56 57 56 56 57 55 57 58 57 57 56 56 55 52 52 52 54 53 46 46 45 44 43 41 44 42 46 42 45 42 42 40 38
41 42 42 43 44 46 49 54 58 62 65 66 66 65 62 60 62 61 60 62 60 58 58 56 55 54 52 50 45 43 47 45 45 42 44 44 45 41 41 38 37 33 33
38 40 42 44 45 47 47 48 51 56 58 59 62 65 66 67 66 64 62 63 60 58 59 56 56 48 44 50 48 48 46 47 48 48 46 43 44 42 39 36 33 36 34
39 41 43 45 47 48 49 49 48 50 52 54 55 57 61 62 64 65 63 60 60 58 57 53 53 47 47 51 53 50 47 48 47 49 47 43 42 40 38 38 40 38 29
43 44 44 44 48 49 48 48 48 49 50 52 53 53 54 55 55 57 56 55 55 55 55 53 56 56 55 55 56 54 48 48 53 47 39 36 37 35 37 37 33 27 21
48 48 49 48 48 49 48 47 47 47 49 51 51 50 50 49 49 48 48 50 51 52 55 57 60 61 64 59 49 45 47 44 43 37 29 27 30 30 28 26 23 15 15
48 52 53 51 53 50 49 49 48 48 49 50 50 48 50 49 47 46 46 47 50 53 55 57 60 63 60 56 52 43 37 36 31 23 21 23 21 20 18 17 14 13 18
39 47 52 54 51 51 49 47 48 50 53 52 54 55 56 53 50 51 51 54 55 57 61 59 54 53 49 45 37 27 25 27 28 19 17 15 14 12 7 12 16 21 26

GFSMA_850_spd_087.txt.gz
Wind_Speed
47 41 45 39 34 41 41 42 36 30 26 25 23 19 15 14 11 10 14 15 15 17 17 17 16 15 14 13 13 12 11 10 9 8 7 7 6 6 5 4 4 4 4
47 47 42 40 35 41 42 41 39 32 28 25 23 21 15 13 9 7 13 16 16 17 17 17 16 15 14 12 12 11 10 9 8 7 6 6 6 6 6 5 5 4 3
45 43 41 38 35 39 41 40 40 33 28 22 22 21 16 12 9 7 13 17 17 17 17 16 15 14 13 12 11 10 9 8 8 7 7 7 7 6 5 6 6 5 4
42 41 42 36 34 40 41 42 43 36 30 24 26 21 17 14 11 7 14 17 17 17 16 16 15 13 13 11 10 10 9 8 8 8 7 7 7 7 7 6 6 6 5
38 38 35 35 36 39 40 44 44 39 31 28 25 20 17 15 12 9 14 17 17 16 16 15 14 13 12 11 10 10 9 9 9 8 8 9 8 8 8 9 8 7 6
39 35 33 33 35 38 41 45 44 38 34 28 23 19 18 14 12 9 12 16 17 16 15 14 14 13 12 11 11 11 11 12 12 13 10 12 10 10 11 12 10 10 9
38 40 33 32 34 39 41 43 43 40 32 27 24 20 20 16 14 11 10 13 16 16 15 14 14 14 14 14 15 14 13 13 16 15 14 17 13 13 16 13 14 13 12
40 41 37 37 37 39 41 43 46 42 34 29 26 27 20 18 18 17 15 14 12 15 17 17 17 17 17 17 18 16 15 15 18 19 19 17 16 19 18 17 16 17 17
43 37 37 36 36 39 41 41 44 43 39 32 29 23 14 10 21 21 23 20 19 19 20 19 19 18 19 19 19 19 18 19 20 20 21 22 20 20 20 21 21 21 21
42 37 36 38 36 40 39 38 38 39 35 35 34 34 22 13 14 15 29 28 24 25 24 25 23 22 21 22 21 22 21 21 22 24 25 26 27 26 27 28 28 28 27
35 36 36 40 42 38 40 35 34 37 34 35 39 38 32 24 19 17 17 22 29 31 28 28 26 25 23 23 24 24 23 24 24 25 26 26 27 31 33 33 33 33 33
35 34 37 35 36 37 43 39 36 40 37 36 37 37 37 36 32 24 18 22 29 30 30 28 29 26 24 24 25 25 25 25 26 26 27 29 30 32 34 36 37 37 36
36 35 33 38 39 40 43 41 41 41 40 40 38 37 38 38 36 29 28 26 23 23 24 28 22 19 22 25 27 27 26 27 27 27 28 29 31 33 35 38 39 40 39
34 36 36 38 38 39 39 40 40 42 44 40 37 39 40 38 38 38 33 29 26 24 25 27 22 23 27 26 26 28 30 29 28 29 28 29 32 34 37 39 40 41 42
35 38 38 38 38 38 39 38 42 42 45 37 36 44 47 45 42 44 42 36 34 31 32 33 32 32 32 32 34 34 37 37 35 33 33 35 36 38 38 40 42 44 45
34 37 40 41 41 42 42 40 38 37 42 46 45 47 47 45 43 42 43 44 43 38 36 39 40 44 41 38 34 35 33 36 39 38 39 39 39 40 40 41 39 45 47
31 35 37 40 43 46 46 46 43 42 45 45 47 50 49 45 43 41 41 46 46 40 39 48 49 48 44 47 41 38 37 38 40 42 47 46 41 40 43 41 44 46 43
32 33 33 35 40 46 49 50 50 50 50 50 50 51 51 48 49 47 51 50 51 51 54 54 54 53 51 53 50 48 48 46 47 46 44 39 40 40 43 43 40 45 41
33 34 36 38 38 39 44 50 52 52 52 52 51 53 53 51 53 54 53 54 56 58 56 55 57 56 57 55 54 54 50 50 49 47 45 42 44 41 40 40 46 49 43
35 35 37 39 40 41 44 46 51 56 58 58 58 58 58 60 62 59 58 58 58 58 57 57 59 62 60 59 57 56 56 55 54 51 46 42 41 43 45 43 40 45 46
32 33 35 38 42 43 46 47 49 53 56 59 61 63 63 63 64 63 61 64 63 62 61 54 52 50 49 49 56 57 54 54 53 48 46 46 46 43 45 46 40 42 43
35 37 40 41 42 44 45 47 49 49 51 53 56 58 60 60 62 63 62 62 62 59 60 55 52 49 51 49 50 53 50 52 52 49 47 51 47 45 43 45 41 40 40
34 40 43 45 46 47 46 47 48 49 50 52 52 52 53 53 53 54 55 54 54 57 60 61 56 56 54 50 50 48 50 52 54 53 50 50 45 42 40 40 35 38 39
32 36 38 42 47 50 50 49 47 47 49 51 53 53 53 52 52 50 50 51 49 49 52 55 60 62 62 56 55 53 53 54 56 58 51 40 36 34 34 31 32 34 30
21 29 33 42 44 46 45 44 48 49 50 51 51 50 52 52 49 45 45 47 48 48 47 50 52 57 60 60 62 64 64 57 53 45 38 34 30 27 25 23 24 23 22
19 20 24 30 31 43 45 46 46 46 47 48 52 55 52 54 52 50 52 52 53 53 52 54 54 56 60 61 62 64 61 45 44 31 26 24 20 25 16 17 17 18 17

GFSMA_850_spd_090.txt.gz
Wind_Speed
30 36 33 35 34 37 38 37 34 31 27 22 22 17 12 12 14 15 16 18 19 18 18 17 17 16 15 14 12 12 10 8 7 8 8 7 7 6 4 4 3 3 3
29 42 37 36 31 38 39 38 38 32 27 23 22 17 13 13 12 12 14 16 17 16 17 17 16 15 14 13 11 9 9 8 8 7 6 6 5 4 4 3 3 3 2
30 45 41 39 36 36 40 40 37 32 26 24 23 19 15 11 9 9 14 15 16 16 16 16 16 14 12 11 10 9 9 8 7 7 6 5 5 5 5 5 4 4 4
35 49 42 39 38 35 41 41 37 32 29 27 25 22 18 14 10 10 13 15 16 16 16 15 13 12 11 10 10 10 9 8 8 7 6 7 6 6 6 5 5 6 5
35 40 39 39 37 36 42 42 38 34 30 26 24 23 19 15 11 10 11 15 16 15 15 14 13 12 11 10 10 10 9 8 8 8 8 7 7 7 7 7 6 6 7
24 31 35 36 37 38 43 43 41 35 31 28 27 25 19 16 12 9 9 14 15 15 14 14 13 13 11 11 10 10 9 9 9 10 10 9 8 9 9 8 8 11 11
26 33 31 34 33 33 44 43 41 37 32 30 29 25 20 19 15 11 10 13 14 15 15 14 14 13 13 13 13 12 12 12 12 13 12 12 12 12 12 10 12 14 15
25 35 29 30 29 33 41 41 42 39 33 32 32 27 21 18 18 17 14 13 14 15 16 16 16 16 15 16 15 15 15 14 14 15 15 15 16 15 15 15 16 16 19
28 40 35 32 32 34 35 39 44 41 37 35 32 22 14 9 20 19 20 16 17 15 15 18 19 18 18 19 19 18 17 17 17 17 18 17 18 17 17 16 18 20 22
31 38 39 42 36 41 35 36 43 41 38 38 30 29 21 14 14 14 23 22 21 18 20 22 22 22 21 20 20 21 20 20 20 21 22 22 24 22 23 23 24 25 27
24 34 38 37 34 41 37 37 40 44 38 38 37 30 25 21 16 18 17 27 28 22 24 25 26 26 24 24 24 23 22 22 23 24 25 24 26 27 28 28 28 29 30
31 29 38 33 35 38 41 42 37 39 42 37 35 35 34 34 31 23 22 21 17 20 24 29 33 28 25 24 23 23 23 23 24 25 26 27 27 27 29 31 32 33 35
29 28 31 31 32 39 42 42 41 38 37 37 35 36 36 39 35 30 28 22 20 20 22 29 34 30 23 21 21 21 23 23 24 25 26 26 28 29 30 31 33 35 37
29 34 30 26 28 34 38 40 39 38 39 45 41 39 37 39 36 36 33 27 26 26 27 30 27 26 25 24 20 22 24 32 29 27 28 27 29 31 32 32 33 34 36
26 30 31 28 29 32 36 37 43 45 39 41 43 41 40 37 39 39 38 35 30 30 32 34 33 28 30 27 26 26 30 29 33 35 40 37 34 34 35 35 35 37 39
21 23 28 30 28 33 35 37 36 40 42 45 42 42 44 40 37 38 43 41 39 40 41 38 41 41 36 35 35 36 41 40 37 36 36 39 42 40 42 44 43 44 43
20 23 24 28 30 32 34 36 39 39 42 41 44 45 50 50 44 43 45 48 47 45 48 47 44 43 43 37 43 49 47 45 44 41 39 38 41 42 45 46 47 48 45
20 22 24 29 32 35 37 38 39 41 43 44 44 43 43 47 49 48 49 48 47 49 49 51 52 51 51 47 49 50 52 51 50 49 46 46 44 47 49 47 46 46 47
23 23 25 26 28 31 34 37 40 42 45 47 46 46 47 47 48 50 51 54 53 53 54 54 55 56 54 56 56 55 53 55 56 57 55 53 51 51 49 47 49 49 48
25 28 28 29 30 32 34 35 36 40 45 50 52 52 53 54 54 54 54 54 53 54 55 56 57 59 56 57 57 58 59 61 60 56 55 52 50 49 48 48 47 46 47
21 23 27 29 31 34 36 36 38 41 42 44 46 50 54 56 57 56 55 58 58 59 61 56 53 55 57 53 55 61 58 61 58 55 53 53 50 48 47 42 46 48 49
20 22 25 29 33 34 35 36 38 41 44 45 47 49 51 54 57 58 59 60 59 56 60 58 55 51 54 54 52 52 56 52 50 49 47 46 47 49 45 43 43 43 47
23 26 27 27 32 33 36 39 40 43 45 47 48 48 48 49 50 52 54 54 55 56 59 61 57 58 56 55 55 55 56 57 54 50 48 52 52 53 52 48 50 49 47
21 26 28 30 33 34 37 37 36 36 40 43 44 45 47 46 46 48 49 52 52 50 50 51 57 59 63 54 52 54 54 52 53 55 55 54 53 49 47 41 35 29 30
16 18 22 27 28 29 36 42 42 38 41 42 40 42 44 46 46 48 50 51 52 51 51 49 52 55 58 56 60 65 59 48 47 45 44 42 35 26 20 19 19 19 21
5 8 13 19 21 25 31 34 39 39 40 44 48 49 50 54 54 53 52 56 60 57 55 58 57 57 57 59 62 58 55 55 47 40 32 25 21 22 14 13 13 15 15

GFSMA_850_spd_093.txt.gz
Wind_Speed
29 30 29 33 32 31 33 36 36 33 29 25 22 18 14 12 15 16 16 21 18 18 18 17 16 16 16 15 13 11 10 10 10 10 10 10 9 7 6 6 5 5 4
28 32 32 34 34 29 32 34 36 34 29 24 22 18 12 12 15 17 15 19 18 17 16 17 17 16 14 13 11 10 9 9 9 9 9 8 7 6 5 5 4 4 4
27 33 35 38 38 34 27 35 37 34 28 24 22 19 14 14 15 15 16 16 17 16 17 15 15 15 14 12 11 10 9 9 9 8 7 7 6 5 5 5 5 4 3
28 34 35 39 38 37 36 37 39 33 29 26 25 21 19 17 15 14 15 16 17 19 18 17 16 15 13 11 11 10 10 10 9 8 8 7 6 6 5 5 5 5 4
31 35 35 38 40 37 40 41 40 34 31 28 26 22 20 17 15 14 14 15 17 19 19 17 16 14 11 10 11 11 11 10 10 9 8 8 7 7 5 6 7 7 7
32 33 37 45 38 41 39 43 39 35 31 29 28 24 21 19 16 14 13 15 18 17 16 15 15 13 12 12 11 11 11 11 10 10 10 9 8 8 8 8 9 9 9
25 24 48 38 41 41 40 43 41 36 33 30 29 25 22 19 17 14 13 16 19 18 16 15 15 14 14 13 13 12 12 13 11 11 12 11 11 11 11 10 12 13 13
13 22 27 37 35 37 39 43 41 38 35 33 27 24 16 17 20 18 16 17 19 18 17 16 16 15 15 15 15 15 15 15 15 15 14 14 14 14 14 15 15 16 15
17 20 28 26 31 32 34 41 41 41 38 34 32 21 12 10 21 22 20 18 18 19 18 18 17 16 16 17 18 19 19 18 17 17 17 17 16 16 16 16 17 18 18
27 26 31 26 28 32 34 41 41 39 37 37 34 30 24 14 13 12 21 21 20 20 19 18 18 19 20 21 21 21 21 21 20 20 21 21 22 22 21 21 21 23 23
30 28 37 33 30 32 31 36 38 38 38 38 40 36 24 19 14 12 17 24 24 23 22 23 22 23 22 24 24 24 24 23 23 24 24 24 25 27 27 27 26 27 27
22 32 37 39 36 36 37 36 34 34 37 41 40 37 33 29 22 20 15 14 19 27 26 26 23 19 21 24 28 26 25 25 25 26 26 27 28 29 30 31 31 31 31
24 20 27 41 41 37 36 43 42 43 42 44 40 39 37 34 27 21 20 23 25 28 24 19 21 24 27 34 34 23 20 21 22 24 26 28 29 31 32 33 33 34 34
22 19 26 26 39 35 34 38 43 39 41 43 39 36 36 34 29 30 31 30 25 25 26 22 20 24 25 31 33 31 27 26 25 25 28 29 29 31 31 33 34 35 35
24 20 23 26 30 29 33 35 42 39 44 42 39 38 35 34 36 34 36 36 32 28 25 24 29 26 26 31 29 34 30 33 32 34 34 32 36 35 35 39 38 38 38
21 22 24 26 26 27 29 40 39 42 43 45 39 41 45 42 44 40 36 36 36 37 36 32 32 36 34 37 37 36 36 40 41 39 40 41 37 37 40 40 41 41 41
16 21 22 24 23 22 23 26 33 39 40 42 42 39 41 43 45 42 39 39 43 38 41 47 43 41 40 44 44 43 41 42 41 43 45 45 43 44 43 44 43 46 47
14 16 19 21 23 25 25 28 32 38 38 41 40 44 44 44 48 45 46 48 46 49 48 53 47 45 48 48 48 48 48 50 51 54 45 48 47 51 49 49 48 48 48
14 15 16 19 21 25 28 29 31 34 34 37 39 40 43 43 44 44 47 46 48 50 49 53 55 47 45 47 54 57 56 56 57 55 56 55 53 53 54 55 54 53 53
16 18 19 19 20 22 25 27 31 34 36 38 39 40 42 45 47 46 47 48 48 50 47 45 51 54 46 48 45 47 47 50 55 58 60 59 57 55 52 51 49 50 51
16 18 21 22 23 24 27 28 29 31 33 34 36 38 40 42 45 47 49 51 45 43 44 44 45 47 46 45 45 49 50 56 56 53 56 57 57 53 53 52 50 47 44
20 16 19 21 23 25 27 27 29 32 33 34 36 37 39 40 42 45 47 48 48 46 48 50 51 51 53 56 53 49 49 46 47 49 50 52 50 50 48 48 46 45 44
18 19 22 24 22 24 26 29 33 34 35 38 38 40 42 43 42 43 43 44 45 46 49 54 58 59 57 57 58 54 52 53 55 51 46 48 45 46 51 53 52 53 52
16 19 20 20 24 25 29 31 32 31 32 34 34 33 36 36 39 42 43 45 47 45 46 50 56 61 56 52 49 49 53 56 55 54 54 53 48 46 46 46 48 50 50
9 11 12 14 17 21 26 30 32 32 33 35 37 40 45 48 46 45 45 46 47 48 49 48 51 55 55 57 58 60 61 50 49 44 44 43 35 33 29 27 23 16 20
4 5 7 9 12 13 18 21 24 24 22 23 26 30 36 40 44 45 46 48 45 41 42 45 45 49 47 47 50 48 47 44 45 39 25 20 19 18 10 7 7 11 11

GFSMA_850_spd_096.txt.gz
Wind_Speed
32 32 25 20 25 28 27 26 28 29 28 21 19 17 15 13 14 14 13 19 17 16 15 17 16 18 16 15 13 13 12 12 12 12 11 10 9 9 8 7 6 6 5
31 30 28 26 29 29 27 30 32 28 25 19 18 17 13 12 14 14 14 19 18 17 17 15 16 17 16 15 13 12 11 11 11 11 10 9 9 8 7 6 6 5 4
33 31 31 28 29 30 28 28 32 26 22 19 18 17 14 13 15 16 14 16 18 16 15 15 16 16 16 14 13 12 12 11 11 10 10 9 8 7 7 6 6 5 5
29 26 28 31 32 32 32 32 34 26 23 20 19 17 14 13 15 15 15 14 14 15 17 16 15 15 16 14 13 12 12 12 11 10 10 10 9 8 7 6 6 6 6
29 28 30 32 33 36 34 36 32 33 24 22 20 18 15 14 15 14 16 15 15 16 17 18 17 16 16 14 13 13 14 13 12 11 11 11 10 9 8 7 8 7 8
29 31 31 32 38 39 41 36 39 36 27 23 21 18 15 15 15 14 15 17 15 15 17 17 19 17 18 15 14 14 13 13 13 12 12 11 11 10 10 9 9 10 11
28 29 30 35 38 38 41 38 39 33 29 26 22 20 16 15 14 12 13 14 16 16 15 14 15 14 16 16 15 15 15 15 13 12 13 13 12 12 12 12 12 13 14
20 24 35 44 44 38 39 45 38 32 33 29 27 22 14 13 14 15 14 15 17 17 17 18 18 17 16 16 17 16 15 15 16 15 15 16 16 15 15 15 15 16 16
18 11 27 39 42 45 44 46 40 34 34 30 24 22 14 12 17 16 18 16 17 18 18 19 21 21 20 17 17 17 18 17 17 18 19 18 17 18 19 18 19 19 19
15 12 25 44 43 40 44 43 43 36 35 29 24 23 17 15 21 11 17 18 18 19 22 21 22 22 21 21 20 21 19 20 21 22 22 22 23 22 22 22 22 22 23
19 16 20 21 24 31 36 37 41 37 34 32 32 28 22 16 14 12 14 20 20 22 22 23 23 23 24 23 23 22 22 21 23 24 26 26 26 27 28 27 27 27 27
22 23 25 27 27 30 32 34 37 41 37 34 31 31 25 22 21 18 11 13 17 20 24 25 25 24 22 23 23 23 21 22 26 27 28 28 29 29 31 32 32 32 33
22 24 32 34 30 29 30 29 30 37 37 33 35 33 27 25 21 23 16 15 12 16 17 20 27 29 26 26 25 24 26 26 28 29 28 30 30 31 31 33 34 35 37
21 22 29 33 37 37 35 34 34 34 39 41 38 36 31 30 27 20 19 17 18 19 18 19 26 29 26 28 28 27 30 32 41 31 27 27 29 31 31 32 33 34 35
23 20 18 24 36 39 39 37 34 37 45 42 44 35 35 33 34 31 23 22 23 23 25 22 23 28 26 26 28 27 33 40 33 39 34 31 31 33 34 33 36 39 38
20 19 19 20 27 33 41 35 37 35 42 41 43 36 31 33 35 35 34 28 28 27 28 26 26 20 24 29 34 35 34 36 40 37 39 36 39 40 44 42 43 40 41
19 19 21 21 22 25 31 31 29 34 39 38 37 36 39 32 34 32 34 35 40 37 37 39 37 37 35 34 33 37 37 41 42 41 42 44 45 47 45 48 46 47 49
17 19 18 20 19 23 25 25 27 34 36 29 35 40 42 43 38 40 41 44 46 42 44 49 50 49 43 46 45 45 48 45 45 43 45 44 46 50 48 47 49 48 50
16 17 19 20 22 23 24 25 23 24 28 34 37 37 39 41 45 45 44 44 46 48 51 50 46 40 46 43 40 42 45 42 44 47 48 51 52 54 53 52 55 59 57
17 18 19 19 20 21 23 24 24 26 30 31 33 37 40 43 46 43 42 42 37 36 35 38 41 40 37 42 39 41 40 42 47 43 45 49 49 51 51 51 53 55 56
16 17 18 18 18 18 19 24 27 28 30 32 34 36 37 39 41 40 38 39 36 38 40 40 41 44 43 40 41 41 43 44 45 44 48 48 44 46 47 49 49 49 48
16 15 15 15 16 22 27 26 24 24 26 28 30 31 32 34 36 38 40 42 43 44 44 45 45 44 48 47 45 43 44 43 47 47 50 52 46 45 44 47 49 52 53
18 20 21 20 21 23 25 25 26 28 29 30 32 33 34 35 37 40 40 40 40 41 44 48 51 48 47 47 45 46 46 46 48 44 40 43 37 41 48 51 55 55 55
14 15 16 17 18 22 25 26 26 25 26 27 33 34 34 35 35 37 39 40 40 40 41 42 45 54 58 57 56 55 51 50 51 47 43 39 38 35 41 44 46 51 53
10 11 12 14 14 16 21 24 24 23 23 25 29 32 35 38 41 41 41 40 39 38 43 43 44 47 49 50 50 49 49 49 52 48 43 35 38 35 31 28 31 31 25
4 5 6 6 7 8 10 12 14 12 14 16 19 21 25 29 32 36 37 37 36 36 37 37 37 38 39 40 42 39 38 35 31 29 30 25 25 24 19 19 15 13 11

GFSMA_850_spd_102.txt.gz
Wind_Speed
20 21 22 19 18 20 20 20 20 20 21 25 28 26 25 21 16 17 12 9 9 12 16 16 15 17 17 16 15 14 15 14 14 14 13 13 12 11 10 9 8 6 6
20 21 24 23 22 20 20 20 23 21 22 25 26 26 24 16 19 11 11 11 15 14 15 16 16 16 17 15 16 15 15 15 14 14 13 12 12 10 9 8 7 6 5
26 22 21 24 22 19 18 20 21 22 24 27 26 26 26 20 14 9 13 11 18 16 15 16 15 15 16 16 14 15 15 15 14 14 13 12 11 11 10 8 7 7 6
31 30 28 27 24 23 22 21 23 23 26 30 28 27 24 24 22 10 12 9 19 17 16 16 16 16 13 14 15 17 15 14 14 14 13 13 12 11 10 9 9 8 8
26 30 31 30 25 24 25 25 26 26 30 30 28 23 21 20 23 18 16 11 16 19 20 18 16 15 15 15 16 17 16 15 15 14 13 13 12 11 11 11 10 9 9
23 27 28 29 30 28 30 29 28 28 33 31 27 23 23 21 22 19 15 7 11 10 12 18 20 19 17 17 18 18 17 16 15 15 14 13 13 13 12 12 11 11 10
19 21 25 26 28 30 30 33 32 33 33 33 29 25 23 23 24 23 22 16 15 13 13 14 17 20 20 21 19 19 19 18 17 16 15 15 14 14 14 14 13 13 12
18 21 23 26 26 29 29 35 36 34 35 36 32 29 20 21 23 23 25 22 17 15 16 18 17 18 18 15 15 16 18 19 20 18 16 15 15 15 15 15 15 15 14
23 26 22 23 25 28 32 37 37 39 40 40 34 32 20 11 25 23 21 28 19 19 17 14 13 15 13 15 14 15 18 19 18 19 18 17 16 16 17 17 18 18 18
27 26 24 23 26 29 39 38 37 35 44 42 33 26 23 26 25 16 20 22 25 21 19 18 17 16 18 21 21 21 18 19 18 18 17 18 17 18 17 19 21 22 21
24 24 25 25 27 29 37 35 41 43 46 41 40 30 25 18 19 24 22 26 25 24 25 26 22 24 27 29 28 29 21 20 20 19 18 18 19 18 17 20 23 24 24
23 21 20 22 26 33 35 35 40 42 45 40 41 33 28 27 23 22 14 26 29 28 26 24 29 29 28 28 32 31 28 23 21 22 21 20 22 25 23 25 27 27 27
22 22 17 18 17 21 34 41 38 39 51 44 40 38 30 25 20 21 15 14 18 18 21 23 25 23 27 28 25 26 25 23 24 23 23 23 23 25 26 28 30 31 32
20 19 19 15 14 17 23 34 35 43 39 38 32 31 28 26 25 20 18 9 10 18 20 21 21 21 19 21 21 24 26 25 26 25 26 27 29 31 31 33 34 35 37
21 19 20 18 15 19 22 29 31 39 37 33 32 30 30 30 28 25 21 16 17 18 21 19 22 19 20 20 22 24 29 29 29 31 31 31 30 32 33 35 36 37 39
21 22 21 24 23 19 24 25 32 34 35 36 33 31 31 33 35 38 31 28 27 20 18 20 13 21 20 21 22 23 23 26 29 31 31 32 34 34 37 41 42 38 41
18 21 24 27 29 27 25 27 29 31 26 35 33 36 36 35 33 33 31 32 32 27 24 27 25 19 20 20 24 26 26 27 29 29 34 40 45 47 40 40 41 40 39
16 16 21 24 24 31 31 34 33 30 29 34 33 32 33 31 30 29 29 36 35 35 35 37 39 36 37 36 37 38 41 45 44 46 49 54 53 46 42 41 42 42 43
18 15 19 21 24 24 30 34 34 31 33 32 33 33 29 32 36 35 34 30 30 32 29 29 33 35 37 38 41 41 41 42 42 46 43 41 42 46 44 41 43 47 47
17 16 16 17 20 20 24 28 32 34 36 36 31 28 30 33 28 25 29 35 36 26 27 30 33 34 38 38 36 34 37 39 39 36 37 37 38 40 41 43 45 44 45
17 17 17 14 13 21 24 22 24 22 21 26 28 24 22 21 20 28 26 25 29 31 33 37 42 42 41 41 39 32 34 33 33 32 30 29 28 34 32 37 37 37 37
25 22 24 27 24 23 22 22 21 20 18 20 20 21 21 23 30 30 31 30 29 31 33 34 34 34 26 27 28 27 27 26 31 35 31 32 32 34 40 41 41 42 49
23 23 27 24 23 25 25 23 20 20 22 24 26 22 23 26 27 28 29 32 31 35 37 40 43 44 45 47 48 43 43 42 42 41 38 35 33 33 37 42 46 44 43
25 26 22 23 23 23 22 21 20 22 24 25 24 23 26 27 28 28 28 31 31 32 32 33 34 32 32 33 33 34 34 34 31 31 31 29 31 29 28 30 32 33 34
23 25 22 21 22 23 25 26 25 26 30 29 30 31 29 27 28 31 29 25 24 25 28 29 29 29 29 30 29 27 24 22 21 21 21 22 19 19 20 22 22 22 21
16 15 14 12 10 9 8 11 17 14 14 14 14 12 16 20 22 20 20 20 18 14 16 16 14 14 13 13 14 13 10 11 10 13 11 10 11 11 7 10 10 14 18

GFSMA_850_spd_105.txt.gz
Wind_Speed
20 21 22 25 25 24 23 22 20 18 17 20 22 27 24 21 21 20 18 14 11 9 10 16 17 18 18 19 18 16 14 14 14 14 15 14 14 13 12 11 10 9 8
21 21 22 23 22 22 23 23 20 20 21 22 24 28 28 24 22 19 19 15 11 10 12 18 19 19 19 19 17 16 15 15 15 15 15 14 13 12 12 11 10 8 7
22 22 22 25 25 22 20 21 22 22 19 21 25 28 27 23 24 23 20 15 13 14 15 19 19 21 20 18 18 17 16 16 15 15 15 14 13 13 12 11 9 8 8
25 23 22 23 23 23 22 23 21 24 19 23 27 28 29 24 23 22 18 12 10 18 16 19 20 18 19 19 17 17 17 16 16 16 15 14 13 12 12 11 10 9 9
27 27 26 25 22 25 26 26 25 25 25 27 29 29 31 23 25 20 16 11 10 18 20 20 19 18 17 17 18 18 19 18 17 16 15 15 14 13 12 12 11 10 10
27 30 32 32 28 30 27 26 25 23 25 29 32 30 33 26 23 20 15 11 12 20 21 22 20 20 18 16 17 19 20 19 17 16 15 15 14 14 14 13 12 12 12
20 25 28 32 33 33 32 29 28 26 29 30 32 31 31 26 22 19 18 15 14 13 16 20 21 22 21 19 20 19 19 19 19 17 17 16 15 15 15 14 14 13 12
22 21 23 28 29 30 30 32 30 31 34 35 36 32 23 26 29 24 22 20 16 16 14 11 17 21 21 20 21 19 18 18 19 19 18 17 16 16 16 16 15 14 14
24 25 24 24 26 26 29 30 36 39 39 41 40 33 25 20 32 25 24 21 19 20 17 13 14 15 18 22 18 15 15 17 18 19 19 18 16 17 17 16 16 15 16
29 26 25 25 25 27 29 30 35 39 44 44 42 38 30 32 35 23 30 25 20 22 20 20 16 14 15 19 19 16 15 16 18 19 19 18 18 16 16 16 17 17 18
28 30 29 28 27 28 28 30 36 38 50 45 49 40 29 23 36 29 32 34 31 29 22 27 22 18 17 17 18 18 19 18 18 20 20 18 18 19 20 21 21 21 21
32 33 30 28 27 27 29 30 34 46 42 45 46 46 32 30 36 27 22 33 33 39 30 24 21 21 21 20 21 24 24 23 22 21 22 24 24 23 23 22 24 26 25
32 30 28 27 26 25 27 25 43 33 38 38 46 46 37 30 24 23 23 22 32 35 34 31 30 31 25 27 28 28 28 26 23 22 23 24 25 25 25 25 27 27 28
29 27 25 22 20 20 20 25 38 35 34 42 46 46 38 35 24 23 26 18 21 24 26 29 25 24 24 26 21 20 23 23 22 24 25 24 27 28 27 28 29 31 32
26 24 24 22 18 15 18 16 32 35 44 40 47 41 39 32 29 23 27 21 15 13 27 27 23 19 15 17 17 17 20 21 24 27 28 29 29 30 32 33 32 34 34
23 22 24 22 19 14 16 16 26 31 41 42 42 40 38 35 31 31 28 25 19 15 17 21 21 20 17 17 17 19 20 21 22 21 25 30 31 31 32 32 34 34 39
22 24 24 23 19 16 13 16 23 34 36 35 37 36 30 30 33 33 33 29 32 32 27 28 20 14 17 18 18 21 22 24 26 26 26 29 30 32 34 39 42 45 39
20 22 25 24 22 21 16 23 25 24 28 31 33 32 31 34 34 33 36 39 37 39 35 32 28 28 24 24 28 27 24 26 30 35 39 42 39 40 41 42 40 40 41
16 18 24 26 28 27 25 25 27 29 33 31 29 33 34 35 35 35 32 31 28 31 32 33 35 33 32 29 27 30 33 34 35 32 31 31 32 33 35 35 36 40 41
20 18 16 23 23 24 25 32 31 32 32 31 33 31 35 34 34 30 34 32 29 28 27 28 32 32 31 30 29 30 34 27 26 28 31 34 34 34 35 36 38 40 43
19 16 14 17 20 24 23 25 28 31 33 32 31 33 32 28 25 29 30 30 29 31 36 33 28 29 32 31 35 30 27 24 24 18 22 26 27 28 31 32 33 31 32
18 19 20 21 22 24 25 22 25 24 29 26 28 30 30 27 21 21 24 25 25 23 22 27 32 33 33 32 30 27 18 21 28 30 32 37 38 28 29 34 34 34 34
23 24 23 24 25 21 22 21 20 22 23 23 23 21 23 24 24 26 27 25 29 30 32 31 32 31 29 26 28 33 37 36 40 36 32 31 32 31 31 30 32 35 32
24 27 24 23 21 24 23 23 24 23 23 24 25 25 25 30 31 33 34 35 32 31 32 32 34 35 36 36 36 29 26 24 23 23 21 20 21 21 19 20 21 21 21
18 17 15 13 14 15 20 24 27 29 28 26 24 23 22 25 29 27 27 28 24 24 25 24 22 22 21 24 25 24 20 18 17 16 15 14 15 15 14 15 15 15 15
19 15 13 10 7 8 8 12 13 18 20 18 16 18 24 23 25 24 20 24 24 18 13 14 10 8 6 4 4 6 8 10 11 11 11 8 8 8 5 8 8 10 12

GFSMA_850_spd_108.txt.gz
Wind_Speed
23 23 23 24 23 23 23 22 20 18 18 20 27 26 27 27 23 22 22 19 15 13 9 10 15 17 18 19 20 18 16 17 16 15 15 15 14 13 13 12 11 10 9
23 23 24 25 25 24 23 22 22 20 20 21 22 26 30 28 25 21 24 20 18 13 10 10 18 20 21 22 20 18 17 17 16 16 16 15 13 13 12 11 10 9 8
24 23 24 25 24 23 24 23 24 23 22 22 22 24 30 28 26 22 23 23 19 14 12 11 17 20 20 21 20 19 17 17 17 16 16 15 14 13 12 11 10 9 8
23 24 25 25 24 25 25 24 25 24 24 25 25 30 28 31 29 23 23 24 19 15 14 14 19 22 22 21 20 20 17 17 17 17 16 15 14 13 12 11 10 9 9
25 26 25 23 23 26 28 25 24 24 24 24 23 27 30 30 29 24 25 25 18 14 14 17 20 21 21 21 20 19 18 18 18 18 16 16 15 15 14 13 11 11 10
27 28 27 25 24 26 27 26 26 26 25 23 23 26 29 30 29 25 26 24 18 15 14 20 23 22 21 20 19 19 19 19 18 18 17 17 16 15 14 13 13 12 11
26 29 29 28 28 29 30 29 28 27 29 27 27 28 28 30 32 29 24 25 19 15 17 24 24 24 23 21 20 21 22 21 20 19 17 18 17 17 16 15 14 13 12
25 27 29 31 33 33 33 32 32 31 30 30 33 30 21 26 31 31 24 26 19 16 20 23 25 25 27 25 22 21 20 20 20 20 18 17 17 17 16 15 15 14 13
27 27 27 29 31 34 37 38 38 36 35 33 35 28 19 11 34 36 27 27 22 21 19 19 20 23 24 23 21 21 18 18 18 18 18 18 18 18 18 17 15 14 13
30 29 27 27 27 29 33 36 38 39 38 36 38 40 31 25 35 19 33 28 27 25 23 22 20 17 17 18 21 22 19 18 17 18 18 18 19 19 19 17 17 17 17
34 33 31 29 28 28 29 32 36 37 39 40 42 46 36 24 35 38 28 32 31 30 26 24 21 19 16 15 17 20 20 18 16 15 18 19 18 19 21 19 19 20 19
37 35 33 31 30 30 30 31 35 37 38 42 43 46 44 38 41 37 27 37 36 32 30 28 25 24 22 18 16 18 20 19 17 17 16 19 21 22 21 22 23 23 25
34 37 35 35 33 31 31 30 35 36 39 44 50 45 47 40 46 36 30 33 36 33 32 32 28 26 25 24 22 20 19 18 20 21 20 21 21 21 22 24 24 25 26
28 32 33 34 29 30 28 33 35 34 33 39 53 45 49 39 42 39 27 24 26 36 36 35 35 29 26 25 25 23 22 22 23 22 23 23 24 24 24 25 27 28 27
25 27 28 28 28 28 27 31 32 29 33 40 34 39 50 42 38 35 30 27 29 27 33 33 37 35 30 26 24 25 23 20 20 21 21 22 23 25 27 28 28 29 33
23 24 25 26 27 26 24 23 26 29 36 30 35 41 37 42 41 34 28 28 28 28 23 24 25 25 21 22 20 21 21 20 20 20 20 21 20 25 27 30 31 34 31
24 24 24 23 25 25 22 24 26 22 28 33 37 41 42 47 40 33 28 30 26 24 20 15 21 20 22 20 21 21 20 24 22 21 20 22 25 25 27 31 33 35 36
27 23 23 23 25 23 20 22 23 22 22 32 34 38 42 45 40 36 33 31 32 27 25 24 24 24 26 23 21 19 20 20 24 26 27 27 30 30 36 34 33 35 39
25 23 22 23 24 24 21 18 21 20 20 29 33 33 31 35 34 35 32 33 36 35 32 31 33 34 30 29 26 27 29 29 25 26 28 32 36 33 33 34 33 34 36
23 18 15 20 24 24 23 22 22 24 22 24 25 27 29 30 29 32 33 34 34 35 34 30 29 30 30 31 27 27 27 28 27 29 30 30 30 31 33 35 33 32 30
22 15 14 15 22 25 25 28 26 25 26 26 27 28 29 28 31 33 35 35 35 32 28 27 29 26 25 26 29 27 27 26 29 26 27 22 20 18 20 27 28 33 31
25 21 19 18 20 22 22 25 26 28 31 31 30 31 29 31 32 35 31 27 28 27 32 33 29 32 32 29 30 30 29 28 27 24 18 20 28 28 28 23 22 26 29
24 25 22 22 23 22 22 21 22 23 27 29 30 32 33 33 33 33 30 28 27 27 25 26 25 24 27 30 32 31 31 29 28 24 29 28 28 26 24 27 26 25 26
27 25 28 26 28 26 22 21 23 23 23 26 27 27 27 24 26 28 28 27 28 27 29 29 30 31 32 32 30 27 27 34 40 38 31 22 23 19 18 17 17 17 20
15 15 19 20 24 25 25 24 23 24 24 24 23 24 24 24 25 26 27 29 31 30 32 34 34 32 31 33 33 28 25 25 24 22 22 19 18 17 15 14 13 13 12
19 15 16 14 11 14 17 21 17 20 24 22 20 20 24 24 23 21 20 22 23 22 20 18 18 18 19 17 20 19 18 16 16 17 15 15 14 13 9 10 8 7 8

GFSMA_850_spd_111.txt.gz
Wind_Speed
24 25 25 25 25 24 24 25 23 19 20 18 19 22 23 23 22 20 20 22 19 16 14 10 9 14 15 17 18 18 18 17 16 15 15 15 15 14 14 13 11 10 8
24 25 25 25 26 25 24 23 22 21 19 18 20 24 26 25 24 22 23 24 19 17 14 12 12 16 17 19 18 18 18 17 17 15 15 15 15 14 13 13 11 10 8
24 25 24 25 26 25 23 23 22 22 22 19 21 24 29 30 28 24 25 24 22 20 15 13 12 19 19 20 21 18 17 17 16 15 15 15 14 13 13 12 10 9 8
25 25 25 25 25 25 25 23 23 24 25 23 23 23 25 29 29 25 25 23 27 22 18 14 12 18 21 21 21 19 17 17 17 16 16 15 14 14 13 12 11 10 9
26 26 26 25 26 26 26 25 24 25 26 25 25 26 26 28 29 27 26 24 24 22 19 15 14 20 19 21 20 20 19 18 17 17 16 15 14 14 14 13 11 10 10
26 27 27 26 26 28 28 29 27 25 25 24 25 25 28 32 29 29 27 26 23 22 19 15 16 21 22 21 21 19 19 18 18 19 17 16 16 16 15 14 13 12 11
25 27 27 27 28 29 30 30 29 28 28 24 22 22 24 28 31 28 27 26 23 25 20 18 20 22 24 22 21 20 19 20 19 19 19 17 17 16 16 15 14 13 12
27 27 28 30 30 31 31 31 32 31 31 28 25 21 15 21 28 30 29 27 29 25 22 21 22 25 25 25 23 21 22 22 21 21 20 19 17 17 17 16 15 14 12
31 29 28 29 31 33 33 33 33 35 34 32 29 24 11 13 23 31 32 30 28 26 23 23 23 26 26 26 25 22 22 23 23 22 21 18 17 18 17 17 16 16 14
34 31 30 29 30 33 36 35 35 36 36 35 32 37 34 21 16 14 30 32 29 27 25 24 23 26 27 26 26 23 20 18 18 20 20 20 18 18 18 18 16 17 16
33 34 34 32 30 32 33 35 37 37 38 39 39 38 40 35 27 25 22 37 30 30 27 26 23 22 22 23 23 22 22 21 20 19 18 19 18 19 20 19 18 20 21
32 33 36 36 33 32 32 33 33 35 36 39 40 41 42 40 37 33 30 42 38 34 30 30 28 25 23 21 19 18 19 21 20 19 18 18 19 20 20 20 20 20 22
34 32 35 37 36 35 32 31 32 33 35 36 40 42 44 44 45 42 38 40 37 35 33 34 32 28 27 25 21 19 18 20 21 20 19 18 18 18 20 21 21 22 23
33 31 33 35 35 35 33 32 33 33 32 35 39 46 46 48 50 46 43 38 27 30 36 33 34 33 30 27 25 22 20 20 21 21 20 20 21 21 22 22 22 23 24
34 32 28 28 33 34 34 35 34 32 31 36 39 40 46 51 49 42 43 42 40 25 34 32 33 34 33 30 25 22 22 22 21 21 21 22 22 23 23 24 24 24 26
35 32 28 27 30 32 34 34 32 32 30 34 35 37 40 46 48 42 40 38 32 31 26 29 30 32 28 31 28 26 24 21 20 20 21 21 20 20 21 22 23 24 25
34 32 26 26 28 29 32 33 29 28 25 24 29 37 28 33 39 44 46 38 31 29 27 27 29 29 29 24 23 22 22 21 21 21 21 20 19 19 21 23 26 26 28
32 31 29 26 27 27 30 27 27 23 24 24 28 34 32 35 36 50 43 42 35 32 28 26 24 28 25 26 23 22 23 25 24 23 20 21 23 26 29 31 32 35 38
31 33 32 29 28 26 26 26 23 21 22 23 26 32 34 37 33 40 46 40 35 32 29 27 27 23 23 24 27 30 30 28 20 22 24 28 30 30 33 35 37 38 37
32 33 34 31 26 24 24 23 21 19 18 18 22 33 32 34 39 44 42 36 35 31 32 32 31 30 30 28 32 29 29 28 24 26 27 30 31 33 34 33 34 34 33
29 32 31 25 20 20 22 23 21 18 19 19 16 24 33 34 27 29 35 41 34 33 34 38 35 30 29 31 32 31 31 26 26 27 28 29 31 30 32 27 23 23 27
29 34 25 25 20 22 25 24 24 23 21 22 24 22 21 22 22 24 26 28 31 32 36 37 32 36 32 30 25 24 24 26 26 27 28 29 29 30 23 20 26 31 29
23 24 29 24 20 20 21 23 22 24 25 27 27 27 29 28 29 33 33 29 32 30 29 28 29 31 30 28 28 27 27 29 30 27 29 29 28 23 25 21 22 24 26
4 8 16 19 23 23 21 22 23 23 25 25 27 29 26 31 34 30 31 31 30 29 30 28 29 29 27 26 27 27 28 28 29 29 25 24 23 23 19 18 16 16 16
15 12 8 3 9 15 23 25 25 25 26 25 24 27 27 27 28 27 26 28 30 28 25 27 29 32 31 30 29 28 27 26 26 26 26 25 20 18 15 13 14 13 10
21 19 17 16 16 5 4 4 20 23 27 25 23 21 25 23 22 23 24 26 27 24 24 27 27 30 32 31 31 28 26 23 24 18 18 16 15 14 10 13 12 11 11

GFSMA_850_spd_114.txt.gz
Wind_Speed
23 23 23 23 23 23 22 22 21 19 16 15 16 18 20 20 19 19 15 17 19 17 13 9 8 9 14 12 13 15 16 17 16 16 16 16 15 15 14 14 13 12 10
23 23 24 23 23 24 22 23 21 20 17 16 16 17 19 21 22 19 18 18 21 20 15 12 10 11 15 15 17 17 18 18 17 16 16 16 16 15 15 13 12 10 9
23 24 23 23 23 23 23 23 24 23 20 20 18 18 20 22 23 22 20 20 20 22 16 12 11 14 18 16 18 18 18 18 17 16 16 17 16 14 14 13 12 10 9
24 24 24 23 23 22 24 24 25 25 24 24 22 19 21 23 24 24 22 24 22 24 16 15 15 14 18 18 20 19 17 19 18 17 17 16 16 15 14 14 12 10 9
25 25 25 24 23 23 25 25 25 25 25 25 25 22 23 23 24 25 23 24 25 24 19 19 16 13 17 20 20 20 17 18 19 17 17 16 16 15 15 13 12 11 10
26 26 26 25 25 26 27 27 27 26 25 24 25 24 23 24 25 24 24 24 25 23 28 20 16 14 19 20 22 21 18 19 19 18 18 17 17 16 15 14 13 12 11
27 27 27 27 27 28 28 27 26 27 27 25 24 22 23 23 27 28 28 27 26 24 22 20 19 15 21 20 22 20 19 20 18 20 20 18 17 16 16 15 14 13 12
27 28 28 28 28 29 30 30 30 30 30 29 25 21 15 23 22 26 27 28 27 27 27 24 22 17 23 25 24 22 20 22 20 20 21 20 20 18 17 16 16 15 14
30 28 28 28 29 30 31 30 30 33 33 32 30 21 8 13 21 26 30 27 29 28 24 26 24 20 25 26 28 25 24 22 23 21 21 21 21 19 18 17 17 16 15
30 29 30 29 30 32 34 32 30 30 30 32 28 28 28 22 13 13 27 30 31 29 30 27 25 22 26 29 28 28 24 22 21 25 22 23 23 19 19 19 18 18 17
31 30 31 32 31 32 35 33 32 32 33 33 34 35 32 32 27 23 22 30 34 33 35 31 25 22 26 30 30 29 27 24 19 20 21 23 22 22 20 20 19 19 19
31 32 33 34 34 33 33 33 34 34 34 34 36 36 38 35 38 32 27 29 39 39 39 38 33 25 25 26 28 27 26 25 24 23 22 22 21 21 21 20 21 20 20
37 36 33 34 33 35 35 34 34 34 34 35 35 37 38 40 40 40 37 32 32 38 40 40 38 31 28 27 24 22 21 22 23 24 23 22 21 19 19 21 21 20 21
35 33 32 31 32 31 33 37 36 36 33 33 34 35 38 39 40 44 38 36 24 34 40 42 41 36 31 29 26 23 22 21 22 23 23 22 21 20 19 20 20 21 21
35 35 32 30 32 32 32 35 36 35 34 33 32 34 36 38 46 45 44 41 39 28 36 44 38 38 32 31 29 26 26 24 21 21 22 21 20 20 22 23 23 22 22
37 37 35 32 31 32 32 34 36 37 35 33 33 33 33 36 34 36 52 44 47 39 29 43 40 28 28 33 32 28 25 23 22 22 23 22 21 22 22 22 23 23 25
41 39 36 33 31 31 30 34 35 35 35 34 33 34 35 30 31 32 43 46 45 38 34 34 32 37 31 28 26 29 30 25 22 22 21 21 23 24 23 24 24 25 25
33 34 32 31 31 31 30 33 34 34 35 33 30 27 27 27 26 32 41 42 40 40 37 33 30 33 38 36 25 22 24 25 24 25 25 25 26 25 24 22 24 25 28
25 27 27 28 30 33 31 30 32 33 32 29 26 27 25 25 29 32 37 39 41 44 39 33 29 27 27 34 30 25 21 23 32 27 25 22 23 22 24 27 29 30 33
16 19 23 27 30 34 32 31 30 28 27 24 23 23 25 24 23 33 35 38 43 41 34 30 29 31 29 27 29 30 28 29 29 34 37 28 28 27 29 32 33 34 34
17 20 22 27 28 34 34 30 28 26 23 21 21 19 21 20 25 26 35 32 41 43 40 34 32 33 34 34 35 33 32 34 37 34 33 29 26 28 32 34 34 32 30
14 22 23 27 30 32 29 22 25 26 21 20 20 20 16 16 25 32 35 34 43 39 39 40 34 38 38 40 41 36 34 39 29 30 29 30 30 32 31 32 29 29 29
5 6 8 22 24 20 24 23 26 24 22 22 20 19 21 21 18 24 30 34 32 37 37 35 39 40 41 43 40 33 31 37 38 36 31 29 29 30 28 24 26 27 26
15 12 8 5 4 8 14 21 27 22 22 23 23 25 26 23 24 24 24 26 27 31 37 43 43 42 41 38 33 34 33 32 33 32 30 28 28 26 25 22 23 22 21
22 21 19 15 9 12 16 10 16 17 21 22 23 23 25 27 30 29 29 32 32 32 34 34 36 35 32 32 33 33 32 33 32 28 29 31 31 27 23 20 16 16 16
22 19 20 19 17 17 17 14 7 3 8 11 15 18 21 23 25 30 29 29 27 24 25 27 29 31 32 31 30 29 30 31 34 29 28 27 24 25 17 17 13 12 10

GFSMA_850_spd_117.txt.gz
Wind_Speed
25 24 24 26 26 26 23 20 22 20 15 13 12 14 17 16 15 16 16 16 15 17 15 14 12 11 11 12 11 13 17 18 19 17 17 16 16 16 17 17 16 15 13
25 24 25 26 26 25 23 21 22 23 17 15 13 14 17 19 19 19 17 15 15 16 16 17 12 11 12 13 13 14 16 18 18 18 17 17 17 17 17 17 16 15 13
25 24 24 25 26 25 23 22 21 22 21 18 16 15 16 18 19 19 19 19 17 17 18 15 12 9 10 13 15 16 17 18 18 17 18 18 18 18 18 17 16 14 12
24 24 24 24 25 24 24 24 23 23 23 21 19 19 18 17 19 20 19 21 21 20 20 21 14 10 11 15 18 18 20 19 18 18 18 19 18 18 18 17 15 14 12
25 25 25 24 23 23 25 26 25 25 24 23 22 22 21 20 19 20 20 22 24 23 21 22 17 14 13 17 18 19 19 20 19 19 18 19 20 19 18 17 16 13 12
25 26 26 25 24 24 24 26 27 26 25 24 24 23 24 23 22 22 21 20 22 24 22 22 20 17 15 17 20 19 19 19 21 20 19 19 19 19 19 18 17 15 13
26 26 27 27 26 26 25 25 27 27 26 25 23 24 25 25 23 25 25 23 23 24 24 21 23 20 18 19 22 22 21 20 21 22 20 19 20 19 19 18 17 16 15
28 27 27 28 28 27 27 28 29 29 27 27 25 23 19 23 26 25 23 26 26 25 26 25 25 24 20 22 25 25 24 20 21 20 22 21 21 20 20 19 18 18 16
31 30 29 28 28 29 30 31 30 31 28 28 28 22 10 13 15 20 22 23 25 26 28 29 27 27 22 25 26 25 24 22 23 21 20 24 23 21 20 20 19 19 18
33 32 29 28 28 30 31 32 31 31 31 31 27 29 29 24 10 10 18 23 24 26 26 31 27 29 26 26 27 30 28 28 25 25 24 23 23 23 22 22 21 21 19
36 32 31 30 30 30 32 33 32 32 31 30 31 30 30 30 31 25 19 23 27 31 30 33 35 32 30 27 29 31 32 30 30 28 27 26 24 24 24 22 22 21 19
38 35 32 32 30 30 32 33 32 33 33 32 34 35 33 31 33 33 29 27 33 34 32 34 36 36 32 26 28 32 30 29 27 25 22 28 27 26 24 22 22 22 19
37 38 35 34 32 30 31 32 31 34 35 37 36 35 34 34 34 31 34 31 28 35 35 35 39 41 38 31 30 29 31 30 29 29 28 26 26 25 25 24 23 22 22
35 40 42 36 34 32 30 31 29 32 35 34 36 37 36 33 34 37 36 35 28 29 35 39 39 43 44 39 31 26 26 29 29 29 29 29 28 27 25 24 25 24 24
36 36 34 33 32 32 32 32 31 32 35 37 36 35 33 34 34 35 35 37 42 22 34 38 40 43 45 46 41 30 29 27 26 26 26 28 28 27 26 24 24 23 22
33 34 33 31 33 33 33 33 34 33 34 36 37 35 33 35 35 36 34 37 45 41 31 41 39 41 43 51 43 35 31 29 27 27 25 25 26 26 26 25 24 25 26
31 34 33 32 33 34 33 33 36 35 36 35 37 36 36 34 35 35 35 39 38 39 39 27 37 39 37 46 38 36 32 32 29 29 29 28 27 28 28 27 27 27 28
19 21 24 28 34 32 33 33 34 37 36 37 36 35 35 35 37 33 33 34 34 32 41 36 34 32 39 37 35 34 32 34 36 33 29 29 29 30 32 30 28 29 29
20 20 20 22 25 28 31 31 32 36 34 35 34 33 34 36 30 29 28 30 29 29 38 39 35 33 36 36 39 39 33 31 35 35 32 31 31 31 31 30 29 29 28
13 19 20 18 15 18 22 27 30 34 35 34 34 33 32 28 28 27 27 26 28 31 35 40 37 34 36 38 37 44 34 29 30 31 28 27 26 22 27 28 30 30 29
7 8 11 16 17 19 22 26 29 35 41 35 27 28 25 26 25 26 28 29 34 35 39 39 36 33 33 33 34 40 43 38 32 31 30 29 32 35 32 32 31 32 32
6 6 7 10 13 18 23 26 29 28 28 28 19 24 24 23 21 21 19 23 25 29 37 39 40 36 35 36 32 35 41 36 34 35 35 36 37 41 41 39 35 31 33
13 10 7 5 8 13 19 26 28 28 23 25 20 22 24 23 20 19 16 30 35 35 36 38 41 40 37 35 32 39 40 41 43 40 39 41 40 35 31 32 34 34 35
22 19 17 15 13 12 11 12 20 27 20 23 28 26 28 25 25 22 20 21 32 34 35 37 40 39 38 36 34 42 42 45 45 44 41 41 36 32 30 28 28 31 32
25 24 21 20 19 20 17 13 10 10 11 13 14 21 26 24 27 23 23 26 31 32 33 39 38 38 42 42 40 41 41 43 46 42 41 43 39 33 29 26 24 25 23
25 23 23 25 24 24 25 21 14 6 3 5 6 7 14 21 20 23 26 26 26 29 29 33 35 40 41 40 41 40 38 38 42 34 37 36 35 37 21 22 22 20 16

GFSMA_850_spd_120.txt.gz
Wind_Speed
26 20 18 19 21 19 19 17 14 15 15 13 12 11 11 11 11 12 13 15 14 11 13 15 14 15 14 14 13 14 16 17 18 18 18 18 17 17 17 19 19 17 16
28 22 21 19 20 19 19 17 16 15 14 12 12 12 11 11 11 12 14 14 15 13 12 13 17 14 12 13 15 15 18 18 19 18 18 17 17 17 18 18 19 17 16
29 27 24 21 21 23 24 20 16 16 15 13 13 12 11 11 12 13 15 15 17 15 13 15 18 13 8 10 16 15 17 19 19 19 18 18 18 17 17 18 18 17 16
29 30 29 28 25 26 25 20 19 16 16 15 14 13 12 11 12 12 13 15 16 17 15 15 11 17 15 11 13 17 18 17 18 18 19 20 20 19 19 18 18 17 15
30 29 29 28 28 28 26 26 23 17 16 16 15 14 14 13 12 12 13 14 18 18 19 19 18 19 17 14 14 18 20 21 21 19 19 20 21 21 20 19 18 17 16
31 30 29 28 28 28 27 28 27 20 18 16 15 15 15 16 15 15 15 15 17 19 22 22 19 20 20 16 15 20 21 20 23 22 22 22 23 22 20 19 19 18 17
32 31 30 30 29 29 28 27 28 28 23 18 18 19 19 23 23 24 23 22 22 21 21 22 21 19 23 21 19 20 24 21 21 25 23 22 22 22 22 21 20 19 18
34 33 32 32 31 29 29 28 28 29 28 28 24 16 10 18 26 26 26 27 26 23 23 23 22 20 23 24 23 23 26 23 20 23 24 23 21 22 22 22 21 21 20
35 34 34 33 31 30 31 30 30 31 32 31 30 17 8 14 11 12 19 20 22 22 24 25 24 26 25 27 24 26 28 28 25 21 22 25 24 22 22 23 22 22 21
33 34 35 34 32 31 32 32 31 31 31 32 30 27 24 15 12 10 14 17 17 19 24 28 28 28 28 32 28 26 30 30 29 24 26 21 24 25 23 21 22 23 22
36 35 36 36 34 34 33 33 32 32 33 31 33 30 27 23 24 24 19 16 23 23 22 24 27 28 34 34 32 27 31 29 30 29 28 26 24 25 26 25 24 25 24
35 38 37 35 36 35 34 34 33 32 33 32 33 30 23 25 26 23 22 23 22 25 28 27 27 31 35 33 37 33 32 31 33 33 32 30 28 27 26 26 25 25 25
32 36 41 40 39 38 36 34 33 32 32 33 35 33 28 27 28 30 27 24 25 22 26 30 31 33 33 36 42 37 34 30 33 36 35 35 29 32 29 28 27 24 23
32 32 35 43 43 40 38 36 33 30 29 30 33 37 37 37 35 35 32 26 23 27 32 36 34 40 37 39 40 41 36 34 35 33 33 33 30 30 32 30 30 29 26
30 30 33 33 42 38 40 38 37 33 31 28 29 32 35 36 36 34 32 25 28 28 24 31 34 37 36 38 43 45 41 36 34 35 36 35 33 32 32 32 32 32 30
26 28 30 32 31 33 34 39 41 34 32 32 32 32 35 36 36 35 34 33 32 34 36 31 39 42 36 36 42 47 45 38 34 34 34 33 33 33 33 33 32 31 29
27 23 23 24 26 27 29 33 35 29 35 38 36 35 35 35 37 37 33 34 35 34 37 36 29 35 41 40 37 40 47 42 32 34 32 31 31 32 32 32 32 32 30
23 20 13 16 21 22 27 29 33 36 39 37 39 40 37 37 37 37 36 37 36 36 38 37 37 39 41 39 37 39 47 46 37 30 36 34 33 32 32 33 34 34 33
12 18 14 16 14 15 23 28 33 35 37 37 40 41 37 39 38 37 37 37 30 33 33 34 37 38 37 36 33 36 45 47 46 37 35 35 35 36 36 35 36 37 35
5 11 15 19 18 20 22 26 29 31 32 34 35 39 39 40 39 37 38 34 32 32 29 30 34 37 37 35 32 37 39 42 39 39 35 36 37 36 35 36 36 36 36
5 2 3 8 14 22 25 26 26 26 28 30 31 37 41 44 39 33 29 29 29 31 30 32 34 35 35 36 37 40 42 43 44 43 35 35 37 37 35 37 37 37 38
13 8 6 4 6 10 16 21 24 23 26 29 31 33 35 29 27 27 27 27 28 28 31 31 33 38 39 38 39 42 42 37 40 45 35 34 35 34 32 32 33 33 35
20 18 16 14 11 9 9 14 19 20 22 25 29 30 31 29 28 27 27 25 27 29 31 34 32 33 36 37 37 38 38 42 45 43 37 35 36 33 32 34 35 37 38
26 24 22 20 18 16 12 9 7 4 9 16 21 24 30 31 31 29 30 27 26 26 34 39 38 36 37 35 38 35 37 37 41 39 40 39 36 33 32 31 33 35 35
23 24 23 22 22 22 21 16 12 8 4 2 7 11 13 17 27 30 31 32 29 28 30 36 41 39 38 38 36 37 38 37 43 41 43 46 42 36 31 29 29 26 26
22 22 22 22 22 22 21 22 20 16 12 10 7 4 8 9 14 17 24 22 25 26 27 27 34 37 38 39 40 41 44 44 47 43 45 43 40 41 25 29 29 27 23

GFSMA_850_spd_123.txt.gz
Wind_Speed
24 21 20 20 22 18 18 17 17 16 17 17 13 14 11 9 9 9 11 12 11 10 8 11 15 13 13 14 14 13 13 15 16 15 14 14 13 15 15 15 18 18 17
24 21 21 20 21 20 22 19 19 16 14 13 13 12 11 11 10 10 10 12 13 12 11 11 11 15 17 15 15 15 14 15 17 18 16 15 15 15 17 17 16 18 16
27 23 23 23 22 21 22 21 21 17 16 15 14 13 13 13 12 11 10 10 14 15 12 10 12 12 20 13 14 17 17 18 18 19 18 17 18 18 18 20 18 18 17
32 28 22 23 21 24 24 23 21 18 19 18 14 14 12 11 11 12 12 13 14 14 16 16 14 13 18 16 9 16 19 20 19 20 19 19 19 19 18 19 21 19 17
34 30 25 30 23 25 28 23 19 17 19 19 17 15 15 13 13 13 13 13 14 15 18 18 17 14 17 19 18 14 16 19 21 21 20 21 21 21 20 19 20 20 18
37 35 34 30 31 29 28 24 22 20 18 19 15 16 17 17 15 16 15 14 12 15 18 21 19 20 19 23 23 19 18 17 20 22 21 22 23 22 22 21 21 21 21
39 38 36 34 32 31 29 28 28 23 21 19 16 21 17 21 22 19 17 15 14 15 17 18 22 22 22 23 25 23 19 19 20 21 25 22 22 23 24 22 22 23 22
38 40 38 36 34 33 31 29 29 28 23 22 18 15 14 18 22 24 25 19 18 18 19 20 21 24 23 21 29 26 24 22 23 21 25 26 24 24 24 23 23 23 23
35 39 38 36 34 34 33 33 31 31 27 27 26 17 9 15 12 12 11 17 18 19 19 21 22 25 25 23 25 29 29 26 27 25 21 27 26 24 24 23 23 23 23
35 37 39 37 35 33 33 34 32 32 31 32 29 33 24 15 12 12 11 12 15 18 17 18 22 26 26 26 26 30 30 28 30 30 26 22 28 25 24 23 23 24 24
31 33 38 38 35 33 32 34 34 34 32 32 33 27 30 23 23 23 20 13 12 15 18 20 21 24 28 28 28 32 31 28 31 33 31 27 28 23 27 25 25 24 26
32 29 31 36 35 32 33 35 35 33 33 32 34 28 23 23 27 24 23 22 21 16 19 20 24 24 24 26 28 34 35 36 32 34 35 32 31 29 25 27 27 25 25
28 30 27 27 33 32 32 33 34 35 33 34 33 34 28 28 25 23 25 24 19 20 22 27 23 25 26 27 30 31 34 38 34 34 37 36 33 33 30 28 28 28 28
19 23 26 27 29 29 31 32 32 33 33 31 31 30 30 30 29 27 23 22 25 25 22 26 20 24 24 29 31 27 35 41 39 38 39 37 37 37 34 32 32 30 29
14 16 17 18 27 32 30 33 34 29 26 27 26 28 29 30 31 32 32 28 29 25 26 22 27 27 29 26 30 27 33 39 43 41 39 41 39 38 38 36 36 35 32
20 16 18 17 20 22 29 33 38 31 31 38 29 29 29 29 29 32 33 34 33 34 32 26 24 21 30 29 28 28 30 34 44 45 41 39 40 38 39 37 34 35 35
20 22 15 13 15 19 23 27 31 31 34 35 28 30 37 39 36 36 35 36 36 37 34 39 28 33 34 36 30 31 33 35 38 48 47 42 42 41 39 39 38 37 36
15 17 14 13 11 13 14 20 24 26 29 32 33 38 43 46 39 41 40 38 36 37 31 34 41 39 38 35 35 33 34 35 37 46 48 38 39 41 39 38 38 38 38
5 6 8 16 15 12 14 19 21 22 27 30 33 40 43 41 41 43 42 41 40 40 39 35 42 33 34 35 32 31 32 32 36 44 43 34 38 37 38 37 37 38 39
9 4 5 10 10 11 16 20 21 21 24 27 29 33 37 39 42 42 42 41 41 39 37 31 36 34 34 31 30 30 34 36 39 44 48 40 36 38 39 40 39 38 38
17 13 8 4 2 8 14 18 20 20 25 28 29 32 34 35 36 36 41 40 38 37 37 31 32 33 32 33 32 30 32 36 38 44 47 49 40 37 39 41 42 43 41
20 17 16 14 10 9 9 13 15 18 21 25 29 29 29 31 34 33 35 32 32 35 32 32 34 36 36 35 32 32 32 36 39 41 45 46 44 43 38 38 41 41 44
23 21 20 18 18 15 13 10 11 11 14 16 18 22 25 29 30 31 33 33 33 34 35 34 35 34 36 29 32 33 36 39 42 40 41 39 37 36 41 40 41 41 41
26 25 24 23 21 19 16 14 12 11 11 10 11 13 15 20 24 30 31 34 35 36 37 36 38 40 38 37 35 33 31 38 42 39 36 35 38 41 41 37 37 39 38
25 26 25 24 23 21 20 19 16 14 14 14 14 14 13 13 17 20 23 24 28 29 35 36 35 38 41 41 40 36 37 37 42 42 38 39 40 39 36 31 33 35 35
22 22 22 23 23 23 21 20 20 19 18 16 15 14 14 14 13 12 12 14 18 20 19 24 23 26 34 37 36 38 40 42 44 39 42 43 42 42 29 31 33 32 34